Darstellungsparameter: Aktuell verwendete Einstellungen:
Skalierung der Graphiken ... ?
xyx+y,   Skalierungsfaktor:      Skalierung: Modus: x, Faktor: 1
Darstellungszeitraum ... ?
Vom - - bis: - -   Zeitraum: 18.06.2010 - 18.12.2010
Min/Max/Avg-Anzeige ... ?
Zeige MMA aktuell
Zeige MMA Monat
Zeige MMA alles
Zeige --A aktuell
Zeige --A Monat
Zeige --A alles
Keine MMA-Anzeige
MMA:
Minimum Maximum Average (ber die Originaldaten)
MMA-Basis: 14.04.2020 - 16.05.2020
Quicknavigation für Darstellung... ?
Tage:      1T, 2T, 3T, 5T -1T -2T -3T -5T +1T +2T +3T +5T
Wochen: 1W, 2W, 3W -1W -2W -3W +1W +2W +3W
Monate: 1M, 3M, 6M -1M -3M -6M +1M +3M +6M
Jahre:    1J, 3J, 5J, 10J -1J -3J -5J -10J +1J +3J +5J +10J
Nutze für die Darstellung ... ?
Originaldaten oder Mittelwerte auf ...
Stundenbasis Tagesbasis Wochenbasis
Monatsbasis Jahresbasis      Datenbasis: Original-Daten
Darstellen als:
Statistik (Auto) Statistik J:M      Darstellung:
Zur Graphik,    zurück zur Übersicht aller Sensoren.
 
Tabellarische Datenbersicht: ?
 
Sensor: Nr:Datum:Temp:Abs-Feuchte:Windchill:Wind:
Aussen-T/F 1 18-06-2010 00:02:02 14 C 10.98 g/m*3 14 C 0 km/h
2 18-06-2010 00:14:02 13.8 C 10.84 g/m*3 13.8 C 0 km/h
3 18-06-2010 00:26:02 13.7 C 10.89 g/m*3 13.7 C 0 km/h
4 18-06-2010 00:38:02 13.7 C 10.89 g/m*3 13.7 C 0 km/h
5 18-06-2010 00:50:02 13.8 C 10.96 g/m*3 13.8 C 0 km/h
6 18-06-2010 01:02:02 14 C 11.1 g/m*3 14 C 0 km/h
7 18-06-2010 01:14:02 14 C 11.1 g/m*3 14 C 0 km/h
8 18-06-2010 01:26:02 14 C 11.1 g/m*3 14 C 0 km/h
9 18-06-2010 01:38:02 14.1 C 11.17 g/m*3 14.1 C 0 km/h
10 18-06-2010 01:50:02 14.1 C 11.17 g/m*3 14.1 C 0 km/h
11 18-06-2010 02:02:02 14 C 11.1 g/m*3 14 C 0 km/h
12 18-06-2010 02:14:02 13.9 C 11.03 g/m*3 13.9 C 0 km/h
13 18-06-2010 02:26:02 13.8 C 10.96 g/m*3 13.8 C 0 km/h
14 18-06-2010 02:38:02 13.6 C 10.83 g/m*3 13.6 C 0 km/h
15 18-06-2010 02:50:03 13.5 C 10.76 g/m*3 13.5 C 0 km/h
16 18-06-2010 03:02:03 13.4 C 10.69 g/m*3 13.4 C 0 km/h
17 18-06-2010 03:14:03 13.6 C 10.83 g/m*3 13.6 C 0 km/h
18 18-06-2010 03:26:03 13.7 C 10.89 g/m*3 13.7 C 0 km/h
19 18-06-2010 03:38:03 13.5 C 10.76 g/m*3 13.5 C 0 km/h
20 18-06-2010 03:50:03 13.2 C 10.45 g/m*3 13.2 C 0 km/h
21 18-06-2010 04:02:03 12.9 C 10.26 g/m*3 12.9 C 0 km/h
22 18-06-2010 04:14:03 12.7 C 10.13 g/m*3 12.7 C 0 km/h
23 18-06-2010 04:26:03 12.4 C 9.94 g/m*3 12.4 C 0 km/h
24 18-06-2010 04:38:03 12.3 C 9.88 g/m*3 12.3 C 0 km/h
25 18-06-2010 04:50:03 12.2 C 9.82 g/m*3 12.2 C 0 km/h
Sensor: Nr:Datum:Temp:Abs-Feuchte:Windchill:Wind:
Aussen-T/F 26 18-06-2010 05:02:03 12.2 C 9.82 g/m*3 12.2 C 0 km/h
27 18-06-2010 05:14:03 12.2 C 9.82 g/m*3 12.2 C 0 km/h
28 18-06-2010 05:26:03 12.1 C 9.76 g/m*3 12.1 C 0 km/h
29 18-06-2010 05:38:03 12 C 9.7 g/m*3 12 C 0 km/h
30 18-06-2010 05:50:03 12 C 9.7 g/m*3 12 C 0 km/h
31 18-06-2010 06:02:03 12 C 9.7 g/m*3 12 C 0 km/h
32 18-06-2010 06:14:03 12.1 C 9.76 g/m*3 12.1 C 0 km/h
33 18-06-2010 06:26:03 12.2 C 9.82 g/m*3 12.2 C 0 km/h
34 18-06-2010 06:38:03 12.2 C 9.82 g/m*3 12.2 C 0 km/h
35 18-06-2010 06:50:04 12.4 C 9.83 g/m*3 12.4 C 0 km/h
36 18-06-2010 07:02:02 12.5 C 9.89 g/m*3 12.5 C 0 km/h
37 18-06-2010 07:14:02 12.7 C 9.91 g/m*3 12.7 C 0 km/h
38 18-06-2010 07:26:02 12.8 C 9.86 g/m*3 12.8 C 0 km/h
39 18-06-2010 07:38:02 12.8 C 9.86 g/m*3 12.8 C 0 km/h
40 18-06-2010 07:50:02 12.9 C 9.81 g/m*3 12.9 C 0 km/h
41 18-06-2010 08:02:02 13.1 C 9.7 g/m*3 13.1 C 0 km/h
42 18-06-2010 08:14:02 13.4 C 9.76 g/m*3 13.4 C 0 km/h
43 18-06-2010 08:26:02 13.5 C 9.83 g/m*3 13.5 C 0 km/h
44 18-06-2010 08:38:02 13.8 C 9.89 g/m*3 13.8 C 0 km/h
45 18-06-2010 08:50:02 14.4 C 10.01 g/m*3 14.4 C 0 km/h
46 18-06-2010 09:02:02 14.8 C 9.88 g/m*3 14.8 C 0 km/h
47 18-06-2010 09:14:02 15 C 9.49 g/m*3 15 C 0 km/h
48 18-06-2010 09:26:02 15.5 C 9.78 g/m*3 15.5 C 0 km/h
49 18-06-2010 09:38:02 15.7 C 9.77 g/m*3 15.7 C 0 km/h
50 18-06-2010 09:50:02 16.4 C 9.77 g/m*3 16.4 C 0 km/h
Sensor: Nr:Datum:Temp:Abs-Feuchte:Windchill:Wind:
Aussen-T/F 51 18-06-2010 10:02:03 16.5 C 9.27 g/m*3 16.5 C 0 km/h
52 18-06-2010 10:14:03 16.6 C 9.46 g/m*3 16.6 C 0 km/h
53 18-06-2010 10:26:02 16.3 C 9.43 g/m*3 16.3 C 0 km/h
54 18-06-2010 10:38:02 17 C 9.55 g/m*3 17 C 0 km/h
55 18-06-2010 10:50:02 16.4 C 8.93 g/m*3 16.4 C 0 km/h
56 18-06-2010 11:02:02 16.2 C 9.1 g/m*3 16.2 C 0 km/h
57 18-06-2010 11:14:02 15.9 C 9.07 g/m*3 15.9 C 0 km/h
58 18-06-2010 11:26:01 16.3 C 9.02 g/m*3 16.3 C 0 km/h
59 18-06-2010 11:38:02 16.6 C 8.9 g/m*3 16.6 C 0 km/h
60 18-06-2010 11:50:02 15.9 C 8.53 g/m*3 15.9 C 0 km/h
61 18-06-2010 12:02:02 15.9 C 8.94 g/m*3 15.9 C 0 km/h
62 18-06-2010 12:14:02 15.5 C 8.59 g/m*3 15.5 C 0 km/h
63 18-06-2010 12:26:01 15.3 C 8.88 g/m*3 15.3 C 0 km/h
64 18-06-2010 12:38:02 15 C 8.72 g/m*3 15 C 0 km/h
65 18-06-2010 12:50:02 15.6 C 8.91 g/m*3 15.6 C 0 km/h
66 18-06-2010 13:02:02 15.7 C 8.7 g/m*3 15.7 C 0 km/h
67 18-06-2010 13:14:03 16.3 C 8.6 g/m*3 16.3 C 0 km/h
68 18-06-2010 13:26:01 16.1 C 8.64 g/m*3 16.1 C 0 km/h
69 18-06-2010 13:38:02 15.8 C 8.48 g/m*3 15.8 C 0 km/h
70 18-06-2010 13:50:02 15.3 C 8.49 g/m*3 15.3 C 0 km/h
71 18-06-2010 14:02:02 15.3 C 8.49 g/m*3 15.3 C 0 km/h
72 18-06-2010 14:14:02 14.9 C 8.54 g/m*3 14.9 C 0 km/h
73 18-06-2010 14:26:01 14.7 C 8.44 g/m*3 14.7 C 0 km/h
74 18-06-2010 14:38:02 14.5 C 8.46 g/m*3 14.5 C 0 km/h
75 18-06-2010 14:50:02 14.9 C 8.54 g/m*3 14.9 C 0 km/h
Sensor: Nr:Datum:Temp:Abs-Feuchte:Windchill:Wind:
Aussen-T/F 76 18-06-2010 15:02:02 15.4 C 8.54 g/m*3 15.4 C 0 km/h
77 18-06-2010 15:14:03 14.5 C 8.33 g/m*3 14.5 C 0 km/h
78 18-06-2010 15:26:02 14.9 C 8.54 g/m*3 14.9 C 0 km/h
79 18-06-2010 15:38:02 15.2 C 8.44 g/m*3 15.2 C 0 km/h
80 18-06-2010 15:50:02 14.7 C 8.18 g/m*3 14.7 C 0 km/h
81 18-06-2010 16:02:03 14.8 C 8.49 g/m*3 14.8 C 0 km/h
82 18-06-2010 16:14:03 14.7 C 8.44 g/m*3 14.7 C 0 km/h
83 18-06-2010 16:26:03 15 C 8.33 g/m*3 15 C 0 km/h
84 18-06-2010 16:38:02 15.6 C 8.38 g/m*3 15.6 C 0 km/h
85 18-06-2010 16:50:01 16.8 C 7.86 g/m*3 16.8 C 0 km/h
86 18-06-2010 17:02:02 17.9 C 7.94 g/m*3 17.9 C 0 km/h
87 18-06-2010 17:14:02 19.1 C 7.21 g/m*3 19.1 C 0 km/h
88 18-06-2010 17:26:01 19.2 C 6.93 g/m*3 19.2 C 0 km/h
89 18-06-2010 17:38:02 19.8 C 7.34 g/m*3 19.8 C 0 km/h
90 18-06-2010 17:50:02 19.8 C 6.83 g/m*3 19.8 C 0 km/h
91 18-06-2010 18:02:03 21 C 6.96 g/m*3 21 C 0 km/h
92 18-06-2010 18:14:03 20.8 C 6.88 g/m*3 20.8 C 0 km/h
93 18-06-2010 18:26:02 21.5 C 6.98 g/m*3 21.5 C 0 km/h
94 18-06-2010 18:38:02 21.8 C 6.91 g/m*3 21.8 C 0 km/h
95 18-06-2010 18:50:02 22.2 C 6.87 g/m*3 22.2 C 0 km/h
96 18-06-2010 19:02:02 20.8 C 6.7 g/m*3 20.8 C 0 km/h
97 18-06-2010 19:14:02 19.9 C 7.04 g/m*3 19.9 C 0 km/h
98 18-06-2010 19:26:02 19.1 C 7.21 g/m*3 19.1 C 0 km/h
99 18-06-2010 19:38:02 18.9 C 7.45 g/m*3 18.9 C 0 km/h
100 18-06-2010 19:50:02 18.9 C 7.61 g/m*3 18.9 C 0 km/h
Sensor: Nr:Datum:Temp:Abs-Feuchte:Windchill:Wind:
Aussen-T/F 101 18-06-2010 20:02:02 18.5 C 7.44 g/m*3 18.5 C 0 km/h
102 18-06-2010 20:14:02 18.1 C 7.42 g/m*3 18.1 C 0 km/h
103 18-06-2010 20:26:02 17.8 C 7.59 g/m*3 17.8 C 0 km/h
104 18-06-2010 20:38:02 17.5 C 7.75 g/m*3 17.5 C 0 km/h
105 18-06-2010 20:50:01 17.2 C 7.91 g/m*3 17.2 C 0 km/h
106 18-06-2010 21:02:02 16 C 8.72 g/m*3 16 C 0 km/h
107 18-06-2010 21:14:02 15 C 9.36 g/m*3 15 C 0 km/h
108 18-06-2010 21:26:01 14.8 C 9.75 g/m*3 14.8 C 0 km/h
109 18-06-2010 21:38:01 14.7 C 9.82 g/m*3 14.7 C 0 km/h
110 18-06-2010 21:50:01 14.6 C 9.89 g/m*3 14.6 C 0 km/h
111 18-06-2010 22:02:01 14.7 C 9.82 g/m*3 14.7 C 0 km/h
112 18-06-2010 22:14:01 14.7 C 9.57 g/m*3 14.7 C 0 km/h
113 18-06-2010 22:26:02 14.8 C 9.5 g/m*3 14.8 C 0 km/h
114 18-06-2010 22:38:01 15 C 9.49 g/m*3 15 C 0 km/h
115 18-06-2010 22:50:02 15.1 C 9.29 g/m*3 15.1 C 0 km/h
116 18-06-2010 23:02:01 15 C 9.23 g/m*3 15 C 0 km/h
117 18-06-2010 23:14:01 14.8 C 8.61 g/m*3 14.8 C 0 km/h
118 18-06-2010 23:27:04 14.8 C 6.84 g/m*3 14.8 C 0 km/h
119 18-06-2010 23:39:04 14.7 C 6.55 g/m*3 14.7 C 0 km/h
120 18-06-2010 23:51:04 14.7 C 6.42 g/m*3 14.7 C 0 km/h
121 19-06-2010 00:03:04 14.6 C 6.63 g/m*3 14.6 C 0 km/h
122 19-06-2010 00:15:04 14.5 C 6.72 g/m*3 14.5 C 0 km/h
123 19-06-2010 00:27:04 14.4 C 6.92 g/m*3 14.4 C 0 km/h
124 19-06-2010 00:39:04 14.3 C 7.13 g/m*3 14.3 C 0 km/h
125 19-06-2010 00:51:04 14.2 C 7.08 g/m*3 14.2 C 0 km/h
Sensor: Nr:Datum:Temp:Abs-Feuchte:Windchill:Wind:
Aussen-T/F 126 19-06-2010 01:03:04 14 C 7.12 g/m*3 14 C 0 km/h
127 19-06-2010 01:15:04 13.8 C 7.27 g/m*3 13.8 C 0 km/h
128 19-06-2010 01:27:05 13.6 C 7.18 g/m*3 13.6 C 0 km/h
129 19-06-2010 01:39:05 13.4 C 7.09 g/m*3 13.4 C 0 km/h
130 19-06-2010 01:51:05 13.2 C 7 g/m*3 13.2 C 0 km/h
131 19-06-2010 02:03:05 12.8 C 6.94 g/m*3 12.8 C 0 km/h
132 19-06-2010 02:15:05 12.7 C 6.9 g/m*3 12.7 C 0 km/h
133 19-06-2010 02:27:05 12.5 C 6.82 g/m*3 12.5 C 0 km/h
134 19-06-2010 02:39:05 12.4 C 6.77 g/m*3 12.4 C 0 km/h
135 19-06-2010 02:51:05 12.4 C 6.77 g/m*3 12.4 C 0 km/h
136 19-06-2010 03:03:05 12.5 C 6.82 g/m*3 12.5 C 0 km/h
137 19-06-2010 03:15:05 12.5 C 6.71 g/m*3 12.5 C 0 km/h
138 19-06-2010 03:27:05 12.1 C 6.54 g/m*3 12.1 C 0 km/h
139 19-06-2010 03:39:05 11.8 C 6.74 g/m*3 11.8 C 0 km/h
140 19-06-2010 03:51:05 11.5 C 6.61 g/m*3 11.5 C 0 km/h
141 19-06-2010 04:03:05 11.2 C 6.49 g/m*3 11.2 C 0 km/h
142 19-06-2010 04:15:05 11 C 6.51 g/m*3 11 C 0 km/h
143 19-06-2010 04:27:05 10.9 C 6.56 g/m*3 10.9 C 0 km/h
144 19-06-2010 04:39:05 10.7 C 6.58 g/m*3 10.7 C 0 km/h
145 19-06-2010 04:51:05 10.9 C 6.66 g/m*3 10.9 C 0 km/h
146 19-06-2010 05:03:05 11 C 6.61 g/m*3 11 C 0 km/h
147 19-06-2010 05:15:05 11.1 C 6.55 g/m*3 11.1 C 0 km/h
148 19-06-2010 05:27:06 11.2 C 6.59 g/m*3 11.2 C 0 km/h
149 19-06-2010 05:39:06 11.2 C 6.59 g/m*3 11.2 C 0 km/h
150 19-06-2010 05:51:06 11.2 C 6.59 g/m*3 11.2 C 0 km/h
Sensor: Nr:Datum:Temp:Abs-Feuchte:Windchill:Wind:
Aussen-T/F 151 19-06-2010 06:03:06 11.4 C 6.77 g/m*3 11.4 C 0 km/h
152 19-06-2010 06:15:06 11.4 C 6.77 g/m*3 11.4 C 0 km/h
153 19-06-2010 06:27:06 11.5 C 6.82 g/m*3 11.5 C 0 km/h
154 19-06-2010 06:39:06 11.6 C 6.86 g/m*3 11.6 C 0 km/h
155 19-06-2010 06:51:06 11.6 C 6.86 g/m*3 11.6 C 0 km/h
156 19-06-2010 07:03:06 11.8 C 6.84 g/m*3 11.8 C 0 km/h
157 19-06-2010 07:15:06 11.8 C 6.84 g/m*3 11.8 C 0 km/h
158 19-06-2010 07:27:06 12 C 6.71 g/m*3 12 C 0 km/h
159 19-06-2010 07:39:06 11.9 C 6.57 g/m*3 11.9 C 0 km/h
160 19-06-2010 07:51:06 11.8 C 6.53 g/m*3 11.8 C 0 km/h
161 19-06-2010 08:03:06 12 C 6.5 g/m*3 12 C 0 km/h
162 19-06-2010 08:15:03 12 C 6.39 g/m*3 12 C 0 km/h
163 19-06-2010 08:27:03 12 C 6.5 g/m*3 12 C 0 km/h
164 19-06-2010 08:39:03 11.9 C 6.46 g/m*3 11.9 C 0 km/h
165 19-06-2010 08:51:02 11.9 C 6.46 g/m*3 11.9 C 0 km/h
166 19-06-2010 09:03:02 11.8 C 6.63 g/m*3 11.8 C 0 km/h
167 19-06-2010 09:15:03 12.1 C 6.97 g/m*3 12.1 C 0 km/h
168 19-06-2010 09:27:03 12.8 C 6.61 g/m*3 12.8 C 0 km/h
169 19-06-2010 09:39:02 12.9 C 6.42 g/m*3 12.9 C 0 km/h
170 19-06-2010 09:51:02 12.8 C 6.38 g/m*3 12.8 C 0 km/h
171 19-06-2010 10:03:02 12.9 C 6.31 g/m*3 12.9 C 0 km/h
172 19-06-2010 10:15:02 11.6 C 6.65 g/m*3 11.6 C 0 km/h
173 19-06-2010 10:27:02 11.8 C 6.95 g/m*3 11.8 C 0 km/h
174 19-06-2010 10:39:02 12.4 C 6.77 g/m*3 12.4 C 0 km/h
175 19-06-2010 10:51:02 12.4 C 6.45 g/m*3 12.4 C 0 km/h
Sensor: Nr:Datum:Temp:Abs-Feuchte:Windchill:Wind:
Aussen-T/F 176 19-06-2010 11:03:02 12.9 C 6.31 g/m*3 12.9 C 0 km/h
177 19-06-2010 11:15:02 13.6 C 6.47 g/m*3 13.6 C 0 km/h
178 19-06-2010 11:27:02 13.8 C 5.96 g/m*3 13.8 C 0 km/h
179 19-06-2010 11:39:02 15.8 C 6.19 g/m*3 15.8 C 0 km/h
180 19-06-2010 11:51:02 17.6 C 6.15 g/m*3 17.6 C 0 km/h
181 19-06-2010 12:03:02 16.6 C 5.65 g/m*3 16.6 C 0 km/h
182 19-06-2010 12:15:02 18.1 C 5.41 g/m*3 18.1 C 0 km/h
183 19-06-2010 12:27:02 16.9 C 5.03 g/m*3 16.9 C 0 km/h
184 19-06-2010 12:39:01 15.5 C 5.29 g/m*3 15.5 C 0 km/h
185 19-06-2010 12:51:02 14.3 C 5.41 g/m*3 14.3 C 0 km/h
186 19-06-2010 13:03:01 13.4 C 6.16 g/m*3 13.4 C 0 km/h
187 19-06-2010 13:15:02 15 C 6.28 g/m*3 15 C 0 km/h
188 19-06-2010 13:27:02 17.3 C 5.89 g/m*3 17.3 C 0 km/h
189 19-06-2010 13:39:01 20.4 C 5.48 g/m*3 20.4 C 0 km/h
190 19-06-2010 13:51:02 18.7 C 5.44 g/m*3 18.7 C 0 km/h
191 19-06-2010 14:03:02 19.3 C 5.31 g/m*3 19.3 C 0 km/h
192 19-06-2010 14:15:02 19.3 C 4.98 g/m*3 19.3 C 0 km/h
193 19-06-2010 14:27:02 18.3 C 4.69 g/m*3 18.3 C 0 km/h
194 19-06-2010 14:39:02 16.8 C 5 g/m*3 16.8 C 0 km/h
195 19-06-2010 14:51:02 17.6 C 5.1 g/m*3 17.6 C 0 km/h
196 19-06-2010 15:03:01 18.6 C 4.77 g/m*3 18.6 C 0 km/h
197 19-06-2010 15:15:01 18.7 C 4.8 g/m*3 18.7 C 0 km/h
198 19-06-2010 15:27:01 18.7 C 4.96 g/m*3 18.7 C 0 km/h
199 19-06-2010 15:39:02 17.4 C 4.74 g/m*3 17.4 C 0 km/h
200 19-06-2010 15:51:02 18.2 C 4.82 g/m*3 18.2 C 0 km/h
Sensor: Nr:Datum:Temp:Abs-Feuchte:Windchill:Wind:
Aussen-T/F 201 19-06-2010 16:03:02 17.9 C 4.73 g/m*3 17.9 C 0 km/h
202 19-06-2010 16:15:02 17.7 C 5.13 g/m*3 17.7 C 0 km/h
203 19-06-2010 16:27:02 17.9 C 5.04 g/m*3 17.9 C 0 km/h
204 19-06-2010 16:39:02 19.9 C 5.33 g/m*3 19.9 C 0 km/h
205 19-06-2010 16:51:02 20.2 C 4.55 g/m*3 20.2 C 0 km/h
206 19-06-2010 17:03:02 18.5 C 4.75 g/m*3 18.5 C 0 km/h
207 19-06-2010 17:15:02 18.2 C 5.13 g/m*3 18.2 C 0 km/h
208 19-06-2010 17:27:02 18 C 4.92 g/m*3 18 C 0 km/h
209 19-06-2010 17:39:02 16.8 C 5.15 g/m*3 16.8 C 0 km/h
210 19-06-2010 17:51:03 16.8 C 5.58 g/m*3 16.8 C 0 km/h
211 19-06-2010 18:03:03 16.7 C 5.26 g/m*3 16.7 C 0 km/h
212 19-06-2010 18:15:02 16.9 C 5.47 g/m*3 16.9 C 0 km/h
213 19-06-2010 18:27:02 16 C 5.59 g/m*3 16 C 0 km/h
214 19-06-2010 18:39:02 16.3 C 5.55 g/m*3 16.3 C 0 km/h
215 19-06-2010 18:51:01 15.8 C 5.52 g/m*3 15.8 C 0 km/h
216 19-06-2010 19:03:03 17.4 C 5.48 g/m*3 17.4 C 0 km/h
217 19-06-2010 19:15:01 17.2 C 5.13 g/m*3 17.2 C 0 km/h
218 19-06-2010 19:27:01 16.6 C 5.09 g/m*3 16.6 C 0 km/h
219 19-06-2010 19:39:02 16.1 C 5.35 g/m*3 16.1 C 0 km/h
220 19-06-2010 19:51:03 16.1 C 5.76 g/m*3 16.1 C 0 km/h
221 19-06-2010 20:03:03 15 C 5.26 g/m*3 15 C 0 km/h
222 19-06-2010 20:15:02 14.8 C 5.57 g/m*3 14.8 C 0 km/h
223 19-06-2010 20:27:03 14.8 C 5.83 g/m*3 14.8 C 0 km/h
224 19-06-2010 20:39:02 14.4 C 5.81 g/m*3 14.4 C 0 km/h
225 19-06-2010 20:51:01 14.5 C 6.09 g/m*3 14.5 C 0 km/h
Sensor: Nr:Datum:Temp:Abs-Feuchte:Windchill:Wind:
Aussen-T/F 226 19-06-2010 21:03:02 14.5 C 6.09 g/m*3 14.5 C 0 km/h
227 19-06-2010 21:15:02 14.3 C 6.02 g/m*3 14.3 C 0 km/h
228 19-06-2010 21:27:02 14.1 C 6.19 g/m*3 14.1 C 0 km/h
229 19-06-2010 21:39:02 14 C 6.27 g/m*3 14 C 0 km/h
230 19-06-2010 21:51:02 13.8 C 6.31 g/m*3 13.8 C 0 km/h
231 19-06-2010 22:03:04 13.6 C 6.24 g/m*3 13.6 C 0 km/h
232 19-06-2010 22:15:15 13.2 C 6.09 g/m*3 13.2 C 0 km/h
233 19-06-2010 22:27:15 12.8 C 5.94 g/m*3 12.8 C 0 km/h
234 19-06-2010 22:39:01 12.6 C 5.97 g/m*3 12.6 C 0 km/h
235 19-06-2010 22:51:02 12.4 C 6.12 g/m*3 12.4 C 0 km/h
236 19-06-2010 23:03:01 11.9 C 6.14 g/m*3 11.9 C 0 km/h
237 19-06-2010 23:15:02 12.2 C 6.26 g/m*3 12.2 C 0 km/h
238 19-06-2010 23:27:02 12.4 C 6.23 g/m*3 12.4 C 0 km/h
239 19-06-2010 23:39:01 12.1 C 6.22 g/m*3 12.1 C 0 km/h
240 19-06-2010 23:51:02 11.8 C 6.31 g/m*3 11.8 C 0 km/h
241 20-06-2010 00:03:02 11.5 C 6.3 g/m*3 11.5 C 0 km/h
242 20-06-2010 00:15:02 11.2 C 6.28 g/m*3 11.2 C 0 km/h
243 20-06-2010 00:27:02 10.8 C 6.33 g/m*3 10.8 C 0 km/h
244 20-06-2010 00:39:02 10.6 C 6.44 g/m*3 10.6 C 0 km/h
245 20-06-2010 00:51:02 10.5 C 6.4 g/m*3 10.5 C 0 km/h
246 20-06-2010 01:03:01 10.6 C 6.15 g/m*3 10.6 C 0 km/h
247 20-06-2010 01:15:02 10.6 C 5.95 g/m*3 10.6 C 0 km/h
248 20-06-2010 01:27:02 10.5 C 5.92 g/m*3 10.5 C 0 km/h
249 20-06-2010 01:40:01 10.4 C 5.88 g/m*3 10.4 C 0 km/h
250 20-06-2010 01:52:01 10.2 C 5.9 g/m*3 10.2 C 0 km/h
Sensor: Nr:Datum:Temp:Abs-Feuchte:Windchill:Wind:
Aussen-T/F 251 20-06-2010 02:04:01 10.1 C 5.96 g/m*3 10.1 C 0 km/h
252 20-06-2010 02:16:01 9.8 C 6.03 g/m*3 9.8 C 0 km/h
253 20-06-2010 02:28:01 9.6 C 6.05 g/m*3 9.6 C 0 km/h
254 20-06-2010 02:40:01 9.4 C 6.06 g/m*3 9.4 C 0 km/h
255 20-06-2010 02:52:01 9.3 C 6.2 g/m*3 9.3 C 0 km/h
256 20-06-2010 03:04:01 9.3 C 6.38 g/m*3 9.3 C 0 km/h
257 20-06-2010 03:16:01 9.5 C 6.46 g/m*3 9.5 C 0 km/h
258 20-06-2010 03:28:02 9.6 C 6.6 g/m*3 9.6 C 0 km/h
259 20-06-2010 03:40:02 9.5 C 6.74 g/m*3 9.5 C 0 km/h
260 20-06-2010 03:52:02 9.4 C 6.69 g/m*3 9.4 C 0 km/h
261 20-06-2010 04:04:02 9.1 C 6.74 g/m*3 9.1 C 0 km/h
262 20-06-2010 04:16:02 9.1 C 6.92 g/m*3 9.1 C 0 km/h
263 20-06-2010 04:28:02 9.2 C 7.05 g/m*3 9.2 C 0 km/h
264 20-06-2010 04:40:02 9.4 C 7.15 g/m*3 9.4 C 0 km/h
265 20-06-2010 04:52:02 9.2 C 7.05 g/m*3 9.2 C 0 km/h
266 20-06-2010 05:04:02 9.2 C 7.05 g/m*3 9.2 C 0 km/h
267 20-06-2010 05:16:02 9.2 C 7.05 g/m*3 9.2 C 0 km/h
268 20-06-2010 05:28:02 9.3 C 7.1 g/m*3 9.3 C 0 km/h
269 20-06-2010 05:40:02 9.4 C 7.15 g/m*3 9.4 C 0 km/h
270 20-06-2010 05:52:02 9.6 C 7.24 g/m*3 9.6 C 0 km/h
271 20-06-2010 06:04:02 9.6 C 7.24 g/m*3 9.6 C 0 km/h
272 20-06-2010 06:16:02 9.7 C 7.28 g/m*3 9.7 C 0 km/h
273 20-06-2010 06:28:02 10.1 C 7.28 g/m*3 10.1 C 0 km/h
274 20-06-2010 06:40:02 10.4 C 7.42 g/m*3 10.4 C 0 km/h
275 20-06-2010 06:52:02 10.6 C 7.32 g/m*3 10.6 C 0 km/h
Sensor: Nr:Datum:Temp:Abs-Feuchte:Windchill:Wind:
Aussen-T/F 276 20-06-2010 07:04:02 10.7 C 7.17 g/m*3 10.7 C 0 km/h
277 20-06-2010 07:16:02 10.7 C 7.17 g/m*3 10.7 C 0 km/h
278 20-06-2010 07:28:02 10.4 C 7.32 g/m*3 10.4 C 0 km/h
279 20-06-2010 07:40:02 10.2 C 7.52 g/m*3 10.2 C 0 km/h
280 20-06-2010 07:52:02 10.2 C 7.71 g/m*3 10.2 C 0 km/h
281 20-06-2010 08:04:01 10.3 C 7.85 g/m*3 10.3 C 0 km/h
282 20-06-2010 08:16:02 10.5 C 8.05 g/m*3 10.5 C 0 km/h
283 20-06-2010 08:28:02 10.4 C 8 g/m*3 10.4 C 0 km/h
284 20-06-2010 08:40:01 10.9 C 8.36 g/m*3 10.9 C 0 km/h
285 20-06-2010 08:52:03 10.8 C 8.2 g/m*3 10.8 C 0 km/h
286 20-06-2010 09:04:02 11.4 C 8.21 g/m*3 11.4 C 0 km/h
287 20-06-2010 09:16:03 12.4 C 8.52 g/m*3 12.4 C 0 km/h
288 20-06-2010 09:28:03 12.5 C 7.92 g/m*3 12.5 C 0 km/h
289 20-06-2010 09:40:02 13 C 7.83 g/m*3 13 C 0 km/h
290 20-06-2010 09:52:02 13.1 C 7.53 g/m*3 13.1 C 0 km/h
291 20-06-2010 10:04:01 13.6 C 7.77 g/m*3 13.6 C 0 km/h
292 20-06-2010 10:16:02 14 C 7.48 g/m*3 14 C 0 km/h
293 20-06-2010 10:28:02 13.7 C 6.99 g/m*3 13.7 C 0 km/h
294 20-06-2010 10:40:02 13.3 C 7.05 g/m*3 13.3 C 0 km/h
295 20-06-2010 10:52:02 13.1 C 6.96 g/m*3 13.1 C 0 km/h
296 20-06-2010 11:04:02 13 C 6.92 g/m*3 13 C 0 km/h
297 20-06-2010 11:16:01 12.6 C 7.08 g/m*3 12.6 C 0 km/h
298 20-06-2010 11:28:01 13.3 C 7.05 g/m*3 13.3 C 0 km/h
299 20-06-2010 11:40:02 14 C 7 g/m*3 14 C 0 km/h
300 20-06-2010 11:52:02 14.3 C 6.63 g/m*3 14.3 C 0 km/h
Sensor: Nr:Datum:Temp:Abs-Feuchte:Windchill:Wind:
Aussen-T/F 301 20-06-2010 12:04:02 14.4 C 6.55 g/m*3 14.4 C 0 km/h
302 20-06-2010 12:16:02 14.9 C 6.75 g/m*3 14.9 C 0 km/h
303 20-06-2010 12:28:02 15.3 C 6.53 g/m*3 15.3 C 0 km/h
304 20-06-2010 12:40:02 16.1 C 6.44 g/m*3 16.1 C 0 km/h
305 20-06-2010 12:52:01 15.6 C 6.25 g/m*3 15.6 C 0 km/h
306 20-06-2010 13:04:02 15.3 C 6.53 g/m*3 15.3 C 0 km/h
307 20-06-2010 13:16:01 15.6 C 6.65 g/m*3 15.6 C 0 km/h
308 20-06-2010 13:28:01 15.8 C 6.46 g/m*3 15.8 C 0 km/h
309 20-06-2010 13:40:01 16.9 C 6.33 g/m*3 16.9 C 0 km/h
310 20-06-2010 13:52:01 18.2 C 5.91 g/m*3 18.2 C 0 km/h
311 20-06-2010 14:04:01 16.9 C 5.47 g/m*3 16.9 C 0 km/h
312 20-06-2010 14:16:02 15.7 C 5.89 g/m*3 15.7 C 0 km/h
313 20-06-2010 14:28:02 15.9 C 6.09 g/m*3 15.9 C 0 km/h
314 20-06-2010 14:40:01 17.4 C 6.22 g/m*3 17.4 C 0 km/h
315 20-06-2010 14:52:02 16.7 C 5.68 g/m*3 16.7 C 0 km/h
316 20-06-2010 15:04:02 17.2 C 5.71 g/m*3 17.2 C 0 km/h
317 20-06-2010 15:16:02 17.6 C 5.85 g/m*3 17.6 C 0 km/h
318 20-06-2010 15:28:02 17.7 C 6.04 g/m*3 17.7 C 0 km/h
319 20-06-2010 15:40:02 18.7 C 6.08 g/m*3 18.7 C 0 km/h
320 20-06-2010 15:52:02 18.1 C 5.72 g/m*3 18.1 C 0 km/h
321 20-06-2010 16:04:02 16.4 C 5.72 g/m*3 16.4 C 0 km/h
322 20-06-2010 16:16:02 16.4 C 5.72 g/m*3 16.4 C 0 km/h
323 20-06-2010 16:28:02 16.7 C 5.97 g/m*3 16.7 C 0 km/h
324 20-06-2010 16:40:03 17.1 C 5.68 g/m*3 17.1 C 0 km/h
325 20-06-2010 16:52:02 17.1 C 5.39 g/m*3 17.1 C 0 km/h
Sensor: Nr:Datum:Temp:Abs-Feuchte:Windchill:Wind:
Aussen-T/F 326 20-06-2010 17:04:01 17 C 5.35 g/m*3 17 C 0 km/h
327 20-06-2010 17:16:02 16 C 5.72 g/m*3 16 C 0 km/h
328 20-06-2010 17:28:02 16.2 C 5.79 g/m*3 16.2 C 0 km/h
329 20-06-2010 17:40:02 16 C 5.86 g/m*3 16 C 0 km/h
330 20-06-2010 17:52:02 16.4 C 6.14 g/m*3 16.4 C 0 km/h
331 20-06-2010 18:04:03 16.5 C 6.32 g/m*3 16.5 C 0 km/h
332 20-06-2010 18:16:02 16.2 C 6.34 g/m*3 16.2 C 0 km/h
333 20-06-2010 18:28:02 16.4 C 6.28 g/m*3 16.4 C 0 km/h
334 20-06-2010 18:40:02 16.3 C 6.24 g/m*3 16.3 C 0 km/h
335 20-06-2010 18:52:02 16.2 C 6.07 g/m*3 16.2 C 0 km/h
336 20-06-2010 19:04:02 15.9 C 5.96 g/m*3 15.9 C 0 km/h
337 20-06-2010 19:16:01 15.7 C 5.89 g/m*3 15.7 C 0 km/h
338 20-06-2010 19:28:01 15.4 C 5.91 g/m*3 15.4 C 0 km/h
339 20-06-2010 19:40:02 15.6 C 6.12 g/m*3 15.6 C 0 km/h
340 20-06-2010 19:52:02 15.8 C 6.19 g/m*3 15.8 C 0 km/h
341 20-06-2010 20:04:02 15.6 C 6.25 g/m*3 15.6 C 0 km/h
342 20-06-2010 20:16:01 15.3 C 6.01 g/m*3 15.3 C 0 km/h
343 20-06-2010 20:28:01 15.2 C 6.1 g/m*3 15.2 C 0 km/h
344 20-06-2010 20:40:02 15.1 C 6.19 g/m*3 15.1 C 0 km/h
345 20-06-2010 20:52:02 15 C 6.28 g/m*3 15 C 0 km/h
346 20-06-2010 21:04:02 14.8 C 6.59 g/m*3 14.8 C 0 km/h
347 20-06-2010 21:16:01 14.7 C 6.55 g/m*3 14.7 C 0 km/h
348 20-06-2010 21:28:01 14.6 C 6.63 g/m*3 14.6 C 0 km/h
349 20-06-2010 21:40:02 14.5 C 6.84 g/m*3 14.5 C 0 km/h
350 20-06-2010 21:52:02 14.3 C 6.76 g/m*3 14.3 C 0 km/h
Sensor: Nr:Datum:Temp:Abs-Feuchte:Windchill:Wind:
Aussen-T/F 351 20-06-2010 22:04:02 14.2 C 6.84 g/m*3 14.2 C 0 km/h
352 20-06-2010 22:17:02 14 C 6.75 g/m*3 14 C 0 km/h
353 20-06-2010 22:29:02 13.8 C 6.91 g/m*3 13.8 C 0 km/h
354 20-06-2010 22:41:02 13.5 C 6.9 g/m*3 13.5 C 0 km/h
355 20-06-2010 22:53:02 13.4 C 6.97 g/m*3 13.4 C 0 km/h
356 20-06-2010 23:05:02 13.2 C 6.89 g/m*3 13.2 C 0 km/h
357 20-06-2010 23:17:02 13 C 6.92 g/m*3 13 C 0 km/h
358 20-06-2010 23:29:02 12.6 C 6.97 g/m*3 12.6 C 0 km/h
359 20-06-2010 23:41:02 12.3 C 6.84 g/m*3 12.3 C 0 km/h
360 20-06-2010 23:53:02 12.1 C 6.97 g/m*3 12.1 C 0 km/h
361 21-06-2010 00:05:02 11.9 C 7.1 g/m*3 11.9 C 0 km/h
362 21-06-2010 00:17:02 11.8 C 7.05 g/m*3 11.8 C 0 km/h
363 21-06-2010 00:29:02 11.4 C 6.98 g/m*3 11.4 C 0 km/h
364 21-06-2010 00:41:02 11.2 C 7.1 g/m*3 11.2 C 0 km/h
365 21-06-2010 00:53:03 11.2 C 7.1 g/m*3 11.2 C 0 km/h
366 21-06-2010 01:05:03 11.1 C 6.95 g/m*3 11.1 C 0 km/h
367 21-06-2010 01:17:03 11.1 C 7.05 g/m*3 11.1 C 0 km/h
368 21-06-2010 01:29:03 11 C 7.01 g/m*3 11 C 0 km/h
369 21-06-2010 01:41:03 10.8 C 7.02 g/m*3 10.8 C 0 km/h
370 21-06-2010 01:53:03 10.7 C 7.07 g/m*3 10.7 C 0 km/h
371 21-06-2010 02:05:03 10.5 C 6.98 g/m*3 10.5 C 0 km/h
372 21-06-2010 02:17:03 10.4 C 7.04 g/m*3 10.4 C 0 km/h
373 21-06-2010 02:29:03 10.1 C 6.9 g/m*3 10.1 C 0 km/h
374 21-06-2010 02:41:03 10.2 C 7.04 g/m*3 10.2 C 0 km/h
375 21-06-2010 02:53:03 10.2 C 6.95 g/m*3 10.2 C 0 km/h
Sensor: Nr:Datum:Temp:Abs-Feuchte:Windchill:Wind:
Aussen-T/F 376 21-06-2010 03:05:03 10 C 6.86 g/m*3 10 C 0 km/h
377 21-06-2010 03:17:03 9.8 C 6.87 g/m*3 9.8 C 0 km/h
378 21-06-2010 03:29:03 9.6 C 6.78 g/m*3 9.6 C 0 km/h
379 21-06-2010 03:41:03 9.5 C 6.83 g/m*3 9.5 C 0 km/h
380 21-06-2010 03:53:03 9.3 C 6.74 g/m*3 9.3 C 0 km/h
381 21-06-2010 04:05:03 9.1 C 6.74 g/m*3 9.1 C 0 km/h
382 21-06-2010 04:17:03 9.1 C 6.83 g/m*3 9.1 C 0 km/h
383 21-06-2010 04:29:03 9.2 C 6.97 g/m*3 9.2 C 0 km/h
384 21-06-2010 04:41:03 9.4 C 6.96 g/m*3 9.4 C 0 km/h
385 21-06-2010 04:53:03 9 C 6.79 g/m*3 9 C 0 km/h
386 21-06-2010 05:05:04 8.8 C 6.88 g/m*3 8.8 C 0 km/h
387 21-06-2010 05:17:04 8.7 C 6.83 g/m*3 8.7 C 0 km/h
388 21-06-2010 05:29:04 8.7 C 6.92 g/m*3 8.7 C 0 km/h
389 21-06-2010 05:41:04 8.6 C 6.87 g/m*3 8.6 C 0 km/h
390 21-06-2010 05:53:04 8.6 C 6.96 g/m*3 8.6 C 0 km/h
391 21-06-2010 06:05:04 8.5 C 7 g/m*3 8.5 C 0 km/h
392 21-06-2010 06:17:04 8.5 C 7 g/m*3 8.5 C 0 km/h
393 21-06-2010 06:29:04 8.6 C 7.13 g/m*3 8.6 C 0 km/h
394 21-06-2010 06:41:04 8.6 C 7.22 g/m*3 8.6 C 0 km/h
395 21-06-2010 06:53:02 8.9 C 7.36 g/m*3 8.9 C 0 km/h
396 21-06-2010 07:05:03 9.1 C 7.36 g/m*3 9.1 C 0 km/h
397 21-06-2010 07:17:03 9.5 C 7.46 g/m*3 9.5 C 0 km/h
398 21-06-2010 07:29:03 9.8 C 7.33 g/m*3 9.8 C 0 km/h
399 21-06-2010 07:41:03 10.6 C 7.22 g/m*3 10.6 C 0 km/h
400 21-06-2010 07:53:02 11.5 C 7.23 g/m*3 11.5 C 0 km/h
Sensor: Nr:Datum:Temp:Abs-Feuchte:Windchill:Wind:
Aussen-T/F 401 21-06-2010 08:05:02 12.1 C 7.18 g/m*3 12.1 C 0 km/h
402 21-06-2010 08:17:02 12.3 C 6.95 g/m*3 12.3 C 0 km/h
403 21-06-2010 08:29:02 12.4 C 6.77 g/m*3 12.4 C 0 km/h
404 21-06-2010 08:41:02 12.7 C 6.9 g/m*3 12.7 C 0 km/h
405 21-06-2010 08:53:02 13.2 C 6.77 g/m*3 13.2 C 0 km/h
406 21-06-2010 09:05:01 13.4 C 6.63 g/m*3 13.4 C 0 km/h
407 21-06-2010 09:17:02 13.4 C 6.16 g/m*3 13.4 C 0 km/h
408 21-06-2010 09:29:03 13.7 C 6.39 g/m*3 13.7 C 0 km/h
409 21-06-2010 09:41:01 14.2 C 5.86 g/m*3 14.2 C 0 km/h
410 21-06-2010 09:53:02 14 C 5.43 g/m*3 14 C 0 km/h
411 21-06-2010 10:05:01 13.9 C 5.39 g/m*3 13.9 C 0 km/h
412 21-06-2010 10:17:02 13.9 C 5.63 g/m*3 13.9 C 0 km/h
413 21-06-2010 10:29:02 13.5 C 6.08 g/m*3 13.5 C 0 km/h
414 21-06-2010 10:41:01 13.5 C 5.97 g/m*3 13.5 C 0 km/h
415 21-06-2010 10:53:02 14 C 5.55 g/m*3 14 C 0 km/h
416 21-06-2010 11:05:02 14.7 C 5.67 g/m*3 14.7 C 0 km/h
417 21-06-2010 11:17:02 14.7 C 5.16 g/m*3 14.7 C 0 km/h
418 21-06-2010 11:29:02 14.2 C 5.13 g/m*3 14.2 C 0 km/h
419 21-06-2010 11:41:02 14.4 C 5.44 g/m*3 14.4 C 0 km/h
420 21-06-2010 11:53:02 15.4 C 5.52 g/m*3 15.4 C 0 km/h
421 21-06-2010 12:05:01 16.3 C 5.27 g/m*3 16.3 C 0 km/h
422 21-06-2010 12:17:02 16.5 C 5.34 g/m*3 16.5 C 0 km/h
423 21-06-2010 12:29:02 16 C 5.18 g/m*3 16 C 0 km/h
424 21-06-2010 12:41:02 14.8 C 5.19 g/m*3 14.8 C 0 km/h
425 21-06-2010 12:53:01 15 C 5.39 g/m*3 15 C 0 km/h
Sensor: Nr:Datum:Temp:Abs-Feuchte:Windchill:Wind:
Aussen-T/F 426 21-06-2010 13:05:02 14.7 C 5.29 g/m*3 14.7 C 0 km/h
427 21-06-2010 13:17:01 15.2 C 5.19 g/m*3 15.2 C 0 km/h
428 21-06-2010 13:29:01 16 C 5.04 g/m*3 16 C 0 km/h
429 21-06-2010 13:41:02 18 C 5.07 g/m*3 18 C 0 km/h
430 21-06-2010 13:53:02 19.6 C 4.9 g/m*3 19.6 C 0 km/h
431 21-06-2010 14:05:02 19.3 C 4.81 g/m*3 19.3 C 0 km/h
432 21-06-2010 14:17:01 18.2 C 4.66 g/m*3 18.2 C 0 km/h
433 21-06-2010 14:29:01 18.7 C 4.48 g/m*3 18.7 C 0 km/h
434 21-06-2010 14:41:02 18.9 C 4.86 g/m*3 18.9 C 0 km/h
435 21-06-2010 14:53:02 18 C 4.61 g/m*3 18 C 0 km/h
436 21-06-2010 15:05:02 17.7 C 4.38 g/m*3 17.7 C 0 km/h
437 21-06-2010 15:17:02 18.4 C 4.88 g/m*3 18.4 C 0 km/h
438 21-06-2010 15:29:02 20 C 4.49 g/m*3 20 C 0 km/h
439 21-06-2010 15:41:02 18.7 C 4.8 g/m*3 18.7 C 0 km/h
440 21-06-2010 15:53:02 18.5 C 4.27 g/m*3 18.5 C 0 km/h
441 21-06-2010 16:05:02 19 C 4.56 g/m*3 19 C 0 km/h
442 21-06-2010 16:17:02 20 C 4.67 g/m*3 20 C 0 km/h
443 21-06-2010 16:29:02 21.2 C 4.63 g/m*3 21.2 C 0 km/h
444 21-06-2010 16:41:02 21 C 4.21 g/m*3 21 C 0 km/h
445 21-06-2010 16:53:02 22.6 C 4.42 g/m*3 22.6 C 0 km/h
446 21-06-2010 17:05:02 21 C 4.03 g/m*3 21 C 0 km/h
447 21-06-2010 17:17:03 20.6 C 4.47 g/m*3 20.6 C 0 km/h
448 21-06-2010 17:29:03 19.3 C 4.64 g/m*3 19.3 C 0 km/h
449 21-06-2010 17:41:02 18.7 C 4.8 g/m*3 18.7 C 0 km/h
450 21-06-2010 17:53:02 18.3 C 5 g/m*3 18.3 C 0 km/h
Sensor: Nr:Datum:Temp:Abs-Feuchte:Windchill:Wind:
Aussen-T/F 451 21-06-2010 18:05:02 18.4 C 5.03 g/m*3 18.4 C 0 km/h
452 21-06-2010 18:17:02 18.2 C 4.82 g/m*3 18.2 C 0 km/h
453 21-06-2010 18:29:02 18.4 C 5.03 g/m*3 18.4 C 0 km/h
454 21-06-2010 18:41:02 18.2 C 4.82 g/m*3 18.2 C 0 km/h
455 21-06-2010 18:53:02 18.4 C 5.03 g/m*3 18.4 C 0 km/h
456 21-06-2010 19:05:02 18.2 C 4.97 g/m*3 18.2 C 0 km/h
457 21-06-2010 19:17:02 17.6 C 5.1 g/m*3 17.6 C 0 km/h
458 21-06-2010 19:29:03 17.4 C 5.19 g/m*3 17.4 C 0 km/h
459 21-06-2010 19:41:02 17.3 C 5.3 g/m*3 17.3 C 0 km/h
460 21-06-2010 19:53:02 17.2 C 5.13 g/m*3 17.2 C 0 km/h
461 21-06-2010 20:05:01 17.2 C 5.86 g/m*3 17.2 C 0 km/h
462 21-06-2010 20:17:02 17.2 C 5.71 g/m*3 17.2 C 0 km/h
463 21-06-2010 20:29:02 16.9 C 6.33 g/m*3 16.9 C 0 km/h
464 21-06-2010 20:41:02 16.6 C 6.36 g/m*3 16.6 C 0 km/h
465 21-06-2010 20:53:01 16.2 C 6.48 g/m*3 16.2 C 0 km/h
466 21-06-2010 21:05:01 16 C 6.4 g/m*3 16 C 0 km/h
467 21-06-2010 21:17:02 15.6 C 6.25 g/m*3 15.6 C 0 km/h
468 21-06-2010 21:29:02 15.2 C 6.1 g/m*3 15.2 C 0 km/h
469 21-06-2010 21:41:01 14.9 C 6.25 g/m*3 14.9 C 0 km/h
470 21-06-2010 21:53:02 14.5 C 5.97 g/m*3 14.5 C 0 km/h
471 21-06-2010 22:05:02 14.2 C 6.11 g/m*3 14.2 C 0 km/h
472 21-06-2010 22:18:03 14 C 6.15 g/m*3 14 C 0 km/h
473 21-06-2010 22:30:03 13.7 C 6.16 g/m*3 13.7 C 0 km/h
474 21-06-2010 22:42:04 13.4 C 6.39 g/m*3 13.4 C 0 km/h
475 21-06-2010 22:54:04 13.4 C 6.28 g/m*3 13.4 C 0 km/h
Sensor: Nr:Datum:Temp:Abs-Feuchte:Windchill:Wind:
Aussen-T/F 476 21-06-2010 23:06:04 13.5 C 6.55 g/m*3 13.5 C 0 km/h
477 21-06-2010 23:18:04 13.4 C 6.51 g/m*3 13.4 C 0 km/h
478 21-06-2010 23:30:04 13.4 C 6.51 g/m*3 13.4 C 0 km/h
479 21-06-2010 23:42:04 13.2 C 6.43 g/m*3 13.2 C 0 km/h
480 21-06-2010 23:54:04 13.1 C 6.39 g/m*3 13.1 C 0 km/h
481 22-06-2010 00:06:04 12.8 C 6.5 g/m*3 12.8 C 0 km/h
482 22-06-2010 00:18:04 12.5 C 6.49 g/m*3 12.5 C 0 km/h
483 22-06-2010 00:30:04 12.2 C 6.58 g/m*3 12.2 C 0 km/h
484 22-06-2010 00:42:04 12.1 C 6.65 g/m*3 12.1 C 0 km/h
485 22-06-2010 00:54:04 12.1 C 6.86 g/m*3 12.1 C 0 km/h
486 22-06-2010 01:06:04 12.2 C 7.01 g/m*3 12.2 C 0 km/h
487 22-06-2010 01:18:04 12.2 C 7.01 g/m*3 12.2 C 0 km/h
488 22-06-2010 01:30:05 12.4 C 6.99 g/m*3 12.4 C 0 km/h
489 22-06-2010 01:42:05 12.2 C 7.01 g/m*3 12.2 C 0 km/h
490 22-06-2010 01:54:05 12.2 C 7.01 g/m*3 12.2 C 0 km/h
491 22-06-2010 02:06:05 12.1 C 6.97 g/m*3 12.1 C 0 km/h
492 22-06-2010 02:18:05 12.2 C 7.01 g/m*3 12.2 C 0 km/h
493 22-06-2010 02:30:05 12 C 7.03 g/m*3 12 C 0 km/h
494 22-06-2010 02:42:05 11.9 C 7.1 g/m*3 11.9 C 0 km/h
495 22-06-2010 02:54:05 11.9 C 7.2 g/m*3 11.9 C 0 km/h
496 22-06-2010 03:06:05 11.9 C 7.31 g/m*3 11.9 C 0 km/h
497 22-06-2010 03:18:05 11.8 C 7.26 g/m*3 11.8 C 0 km/h
498 22-06-2010 03:30:05 11.7 C 7.22 g/m*3 11.7 C 0 km/h
499 22-06-2010 03:42:05 11.8 C 7.26 g/m*3 11.8 C 0 km/h
500 22-06-2010 03:54:05 11.9 C 7.41 g/m*3 11.9 C 0 km/h
Sensor: Nr:Datum:Temp:Abs-Feuchte:Windchill:Wind:
Aussen-T/F 501 22-06-2010 04:06:05 11.5 C 7.33 g/m*3 11.5 C 0 km/h
502 22-06-2010 04:18:05 11.4 C 7.29 g/m*3 11.4 C 0 km/h
503 22-06-2010 04:30:05 11.5 C 7.44 g/m*3 11.5 C 0 km/h
504 22-06-2010 04:42:05 11.5 C 7.44 g/m*3 11.5 C 0 km/h
505 22-06-2010 04:54:05 11.5 C 7.44 g/m*3 11.5 C 0 km/h
506 22-06-2010 05:06:05 11.5 C 7.54 g/m*3 11.5 C 0 km/h
507 22-06-2010 05:18:05 11.4 C 7.49 g/m*3 11.4 C 0 km/h
508 22-06-2010 05:30:05 11.4 C 7.49 g/m*3 11.4 C 0 km/h
509 22-06-2010 05:42:05 11.5 C 7.54 g/m*3 11.5 C 0 km/h
510 22-06-2010 05:54:05 11.4 C 7.39 g/m*3 11.4 C 0 km/h
511 22-06-2010 06:06:06 11.5 C 7.54 g/m*3 11.5 C 0 km/h
512 22-06-2010 06:18:06 11.5 C 7.54 g/m*3 11.5 C 0 km/h
513 22-06-2010 06:30:06 11.6 C 7.69 g/m*3 11.6 C 0 km/h
514 22-06-2010 06:42:03 11.6 C 7.69 g/m*3 11.6 C 0 km/h
515 22-06-2010 06:54:02 11.7 C 7.64 g/m*3 11.7 C 0 km/h
516 22-06-2010 07:06:02 11.9 C 7.73 g/m*3 11.9 C 0 km/h
517 22-06-2010 07:18:02 12 C 7.67 g/m*3 12 C 0 km/h
518 22-06-2010 07:30:02 12.1 C 7.61 g/m*3 12.1 C 0 km/h
519 22-06-2010 07:42:02 12.4 C 7.65 g/m*3 12.4 C 0 km/h
520 22-06-2010 07:54:01 12.8 C 7.73 g/m*3 12.8 C 0 km/h
521 22-06-2010 08:06:02 13.1 C 7.65 g/m*3 13.1 C 0 km/h
522 22-06-2010 08:18:02 13 C 7.14 g/m*3 13 C 0 km/h
523 22-06-2010 08:30:02 12.9 C 7.44 g/m*3 12.9 C 0 km/h
524 22-06-2010 08:42:02 12.9 C 7.66 g/m*3 12.9 C 0 km/h
525 22-06-2010 08:54:02 13.1 C 7.53 g/m*3 13.1 C 0 km/h
Sensor: Nr:Datum:Temp:Abs-Feuchte:Windchill:Wind:
Aussen-T/F 526 22-06-2010 09:06:01 13.5 C 7.49 g/m*3 13.5 C 0 km/h
527 22-06-2010 09:18:02 14.2 C 7.45 g/m*3 14.2 C 0 km/h
528 22-06-2010 09:30:03 15.1 C 7.61 g/m*3 15.1 C 0 km/h
529 22-06-2010 09:42:01 15.8 C 7.4 g/m*3 15.8 C 0 km/h
530 22-06-2010 09:54:02 16.4 C 6.7 g/m*3 16.4 C 0 km/h
531 22-06-2010 10:06:01 17.3 C 6.19 g/m*3 17.3 C 0 km/h
532 22-06-2010 10:18:01 17.9 C 6.11 g/m*3 17.9 C 0 km/h
533 22-06-2010 10:30:01 18.7 C 6.56 g/m*3 18.7 C 0 km/h
534 22-06-2010 10:42:02 19.5 C 6.55 g/m*3 19.5 C 0 km/h
535 22-06-2010 10:54:02 20.2 C 6.47 g/m*3 20.2 C 0 km/h
536 22-06-2010 11:06:01 20.7 C 5.94 g/m*3 20.7 C 0 km/h
537 22-06-2010 11:18:02 20.1 C 6.08 g/m*3 20.1 C 0 km/h
538 22-06-2010 11:30:02 20.4 C 5.84 g/m*3 20.4 C 0 km/h
539 22-06-2010 11:42:02 20.4 C 5.66 g/m*3 20.4 C 0 km/h
540 22-06-2010 11:54:02 19.6 C 5.57 g/m*3 19.6 C 0 km/h
541 22-06-2010 12:06:03 21.4 C 6 g/m*3 21.4 C 0 km/h
542 22-06-2010 12:18:02 23.3 C 5.23 g/m*3 23.3 C 0 km/h
543 22-06-2010 12:30:02 20.7 C 5.4 g/m*3 20.7 C 0 km/h
544 22-06-2010 12:42:02 19.9 C 5.5 g/m*3 19.9 C 0 km/h
545 22-06-2010 12:54:01 20.1 C 5.21 g/m*3 20.1 C 0 km/h
546 22-06-2010 13:06:02 22.5 C 4.99 g/m*3 22.5 C 0 km/h
547 22-06-2010 13:18:01 20.4 C 5.31 g/m*3 20.4 C 0 km/h
548 22-06-2010 13:30:01 20.7 C 5.4 g/m*3 20.7 C 0 km/h
549 22-06-2010 13:42:01 22.1 C 5.47 g/m*3 22.1 C 0 km/h
550 22-06-2010 13:54:01 22.7 C 5.25 g/m*3 22.7 C 0 km/h
Sensor: Nr:Datum:Temp:Abs-Feuchte:Windchill:Wind:
Aussen-T/F 551 22-06-2010 14:06:02 23 C 4.93 g/m*3 23 C 0 km/h
552 22-06-2010 14:18:01 23.1 C 5.37 g/m*3 23.1 C 0 km/h
553 22-06-2010 14:30:01 23.2 C 5.41 g/m*3 23.2 C 0 km/h
554 22-06-2010 14:42:01 23.3 C 5.23 g/m*3 23.3 C 0 km/h
555 22-06-2010 14:54:01 23.9 C 4.98 g/m*3 23.9 C 0 km/h
556 22-06-2010 15:06:02 23.9 C 4.98 g/m*3 23.9 C 0 km/h
557 22-06-2010 15:18:02 24.7 C 4.75 g/m*3 24.7 C 0 km/h
558 22-06-2010 15:30:02 24.9 C 5.49 g/m*3 24.9 C 0 km/h
559 22-06-2010 15:42:01 25 C 5.06 g/m*3 25 C 0 km/h
560 22-06-2010 15:54:02 24.2 C 4.4 g/m*3 24.2 C 0 km/h
561 22-06-2010 16:06:01 23.3 C 4.81 g/m*3 23.3 C 0 km/h
562 22-06-2010 16:18:02 23.4 C 5.26 g/m*3 23.4 C 0 km/h
563 22-06-2010 16:30:02 24.9 C 5.04 g/m*3 24.9 C 0 km/h
564 22-06-2010 16:42:01 26 C 4.87 g/m*3 26 C 0 km/h
565 22-06-2010 16:54:03 23.8 C 4.73 g/m*3 23.8 C 0 km/h
566 22-06-2010 17:06:02 23.6 C 5.32 g/m*3 23.6 C 0 km/h
567 22-06-2010 17:18:02 22.8 C 5.08 g/m*3 22.8 C 0 km/h
568 22-06-2010 17:30:03 22.7 C 5.25 g/m*3 22.7 C 0 km/h
569 22-06-2010 17:42:02 23.3 C 5.23 g/m*3 23.3 C 0 km/h
570 22-06-2010 17:54:02 24.1 C 5.03 g/m*3 24.1 C 0 km/h
571 22-06-2010 18:06:01 23.7 C 4.92 g/m*3 23.7 C 0 km/h
572 22-06-2010 18:18:02 23.8 C 6.24 g/m*3 23.8 C 0 km/h
573 22-06-2010 18:30:02 23.3 C 6.48 g/m*3 23.3 C 0 km/h
574 22-06-2010 18:42:02 22.6 C 6.63 g/m*3 22.6 C 0 km/h
575 22-06-2010 18:54:01 22.3 C 6.91 g/m*3 22.3 C 0 km/h
Sensor: Nr:Datum:Temp:Abs-Feuchte:Windchill:Wind:
Aussen-T/F 576 22-06-2010 19:06:02 22.7 C 6.67 g/m*3 22.7 C 0 km/h
577 22-06-2010 19:18:01 23.3 C 6.27 g/m*3 23.3 C 0 km/h
578 22-06-2010 19:30:01 23.9 C 6.06 g/m*3 23.9 C 0 km/h
579 22-06-2010 19:42:02 24 C 5.87 g/m*3 24 C 0 km/h
580 22-06-2010 19:54:02 23.5 C 6.56 g/m*3 23.5 C 0 km/h
581 22-06-2010 20:06:02 22.8 C 6.5 g/m*3 22.8 C 0 km/h
582 22-06-2010 20:18:01 22.1 C 6.44 g/m*3 22.1 C 0 km/h
583 22-06-2010 20:30:01 21.1 C 6.63 g/m*3 21.1 C 0 km/h
584 22-06-2010 20:42:02 20 C 6.74 g/m*3 20 C 0 km/h
585 22-06-2010 20:54:02 19.2 C 6.76 g/m*3 19.2 C 0 km/h
586 22-06-2010 21:06:02 18.9 C 6.64 g/m*3 18.9 C 0 km/h
587 22-06-2010 21:18:01 18.3 C 6.41 g/m*3 18.3 C 0 km/h
588 22-06-2010 21:30:01 18 C 6.45 g/m*3 18 C 0 km/h
589 22-06-2010 21:42:02 17.6 C 6.45 g/m*3 17.6 C 0 km/h
590 22-06-2010 21:54:02 17.3 C 6.33 g/m*3 17.3 C 0 km/h
591 22-06-2010 22:06:02 16.8 C 6.72 g/m*3 16.8 C 0 km/h
592 22-06-2010 22:18:02 16.7 C 6.82 g/m*3 16.7 C 0 km/h
593 22-06-2010 22:30:02 16.3 C 6.8 g/m*3 16.3 C 0 km/h
594 22-06-2010 22:42:02 16 C 6.81 g/m*3 16 C 0 km/h
595 22-06-2010 22:55:05 15.8 C 6.87 g/m*3 15.8 C 0 km/h
596 22-06-2010 23:07:05 15.5 C 7.01 g/m*3 15.5 C 0 km/h
597 22-06-2010 23:19:05 15.2 C 6.88 g/m*3 15.2 C 0 km/h
598 22-06-2010 23:31:05 14.9 C 6.88 g/m*3 14.9 C 0 km/h
599 22-06-2010 23:43:05 14.7 C 7.05 g/m*3 14.7 C 0 km/h
600 22-06-2010 23:55:05 14.6 C 7.13 g/m*3 14.6 C 0 km/h
Sensor: Nr:Datum:Temp:Abs-Feuchte:Windchill:Wind:
Aussen-T/F 601 23-06-2010 00:07:05 14.3 C 7.37 g/m*3 14.3 C 0 km/h
602 23-06-2010 00:19:06 14 C 7.36 g/m*3 14 C 0 km/h
603 23-06-2010 00:31:06 13.8 C 7.51 g/m*3 13.8 C 0 km/h
604 23-06-2010 00:43:06 13.5 C 7.6 g/m*3 13.5 C 0 km/h
605 23-06-2010 00:55:06 13.4 C 7.67 g/m*3 13.4 C 0 km/h
606 23-06-2010 01:07:06 13.2 C 7.58 g/m*3 13.2 C 0 km/h
607 23-06-2010 01:19:06 12.9 C 7.78 g/m*3 12.9 C 0 km/h
608 23-06-2010 01:31:06 12.7 C 7.68 g/m*3 12.7 C 0 km/h
609 23-06-2010 01:43:06 12.4 C 7.76 g/m*3 12.4 C 0 km/h
610 23-06-2010 01:55:06 12.2 C 7.77 g/m*3 12.2 C 0 km/h
611 23-06-2010 02:07:06 12.2 C 7.77 g/m*3 12.2 C 0 km/h
612 23-06-2010 02:19:06 11.9 C 7.73 g/m*3 11.9 C 0 km/h
613 23-06-2010 02:31:06 11.8 C 7.79 g/m*3 11.8 C 0 km/h
614 23-06-2010 02:43:06 11.8 C 7.89 g/m*3 11.8 C 0 km/h
615 23-06-2010 02:55:06 11.5 C 7.75 g/m*3 11.5 C 0 km/h
616 23-06-2010 03:07:06 11.2 C 7.7 g/m*3 11.2 C 0 km/h
617 23-06-2010 03:19:06 11.2 C 7.8 g/m*3 11.2 C 0 km/h
618 23-06-2010 03:31:06 11.1 C 7.66 g/m*3 11.1 C 0 km/h
619 23-06-2010 03:43:06 10.9 C 7.76 g/m*3 10.9 C 0 km/h
620 23-06-2010 03:55:06 10.7 C 7.66 g/m*3 10.7 C 0 km/h
621 23-06-2010 04:07:06 10.7 C 7.66 g/m*3 10.7 C 0 km/h
622 23-06-2010 04:19:06 10.5 C 7.66 g/m*3 10.5 C 0 km/h
623 23-06-2010 04:31:06 10.4 C 7.71 g/m*3 10.4 C 0 km/h
624 23-06-2010 04:43:06 10.3 C 7.66 g/m*3 10.3 C 0 km/h
625 23-06-2010 04:55:07 10.2 C 7.61 g/m*3 10.2 C 0 km/h
Sensor: Nr:Datum:Temp:Abs-Feuchte:Windchill:Wind:
Aussen-T/F 626 23-06-2010 05:07:07 10.2 C 7.71 g/m*3 10.2 C 0 km/h
627 23-06-2010 05:19:07 10.2 C 7.71 g/m*3 10.2 C 0 km/h
628 23-06-2010 05:31:07 10 C 7.61 g/m*3 10 C 0 km/h
629 23-06-2010 05:43:07 9.8 C 7.7 g/m*3 9.8 C 0 km/h
630 23-06-2010 05:55:07 9.8 C 7.7 g/m*3 9.8 C 0 km/h
631 23-06-2010 06:07:07 9.8 C 7.7 g/m*3 9.8 C 0 km/h
632 23-06-2010 06:19:04 9.8 C 7.7 g/m*3 9.8 C 0 km/h
633 23-06-2010 06:31:04 10 C 7.71 g/m*3 10 C 0 km/h
634 23-06-2010 06:43:04 10.2 C 7.8 g/m*3 10.2 C 0 km/h
635 23-06-2010 06:55:02 10.5 C 7.86 g/m*3 10.5 C 0 km/h
636 23-06-2010 07:07:02 10.7 C 7.96 g/m*3 10.7 C 0 km/h
637 23-06-2010 07:19:02 10.5 C 7.66 g/m*3 10.5 C 0 km/h
638 23-06-2010 07:31:02 10.5 C 7.66 g/m*3 10.5 C 0 km/h
639 23-06-2010 07:43:02 10.7 C 7.76 g/m*3 10.7 C 0 km/h
640 23-06-2010 07:55:02 10.8 C 7.81 g/m*3 10.8 C 0 km/h
641 23-06-2010 08:07:01 11 C 7.81 g/m*3 11 C 0 km/h
642 23-06-2010 08:19:01 11.5 C 7.95 g/m*3 11.5 C 0 km/h
643 23-06-2010 08:31:02 11.8 C 7.89 g/m*3 11.8 C 0 km/h
644 23-06-2010 08:43:02 12.1 C 7.83 g/m*3 12.1 C 0 km/h
645 23-06-2010 08:55:02 12.5 C 7.81 g/m*3 12.5 C 0 km/h
646 23-06-2010 09:07:02 13 C 7.83 g/m*3 13 C 0 km/h
647 23-06-2010 09:19:02 13.4 C 7.79 g/m*3 13.4 C 0 km/h
648 23-06-2010 09:31:02 14.2 C 7.82 g/m*3 14.2 C 0 km/h
649 23-06-2010 09:43:02 14.8 C 7.85 g/m*3 14.8 C 0 km/h
650 23-06-2010 09:55:02 15.4 C 7.75 g/m*3 15.4 C 0 km/h
Sensor: Nr:Datum:Temp:Abs-Feuchte:Windchill:Wind:
Aussen-T/F 651 23-06-2010 10:07:02 16.3 C 7.63 g/m*3 16.3 C 0 km/h
652 23-06-2010 10:19:02 17 C 7.67 g/m*3 17 C 0 km/h
653 23-06-2010 10:31:02 17.8 C 7.89 g/m*3 17.8 C 0 km/h
654 23-06-2010 10:43:02 18.6 C 7.64 g/m*3 18.6 C 0 km/h
655 23-06-2010 10:55:02 19.1 C 7.7 g/m*3 19.1 C 0 km/h
656 23-06-2010 11:07:02 19.9 C 7.9 g/m*3 19.9 C 0 km/h
657 23-06-2010 11:19:02 20.1 C 7.65 g/m*3 20.1 C 0 km/h
658 23-06-2010 11:31:02 20.6 C 7.52 g/m*3 20.6 C 0 km/h
659 23-06-2010 11:43:02 21.6 C 7.02 g/m*3 21.6 C 0 km/h
660 23-06-2010 11:55:01 23 C 6.78 g/m*3 23 C 0 km/h
661 23-06-2010 12:07:01 24.4 C 6.9 g/m*3 24.4 C 0 km/h
662 23-06-2010 12:19:01 25.4 C 6.59 g/m*3 25.4 C 0 km/h
663 23-06-2010 12:31:01 25.9 C 5.33 g/m*3 25.9 C 0 km/h
664 23-06-2010 12:43:01 26.8 C 5.35 g/m*3 26.8 C 0 km/h
665 23-06-2010 12:55:02 27.3 C 5.23 g/m*3 27.3 C 0 km/h
666 23-06-2010 13:07:02 27 C 5.66 g/m*3 27 C 0 km/h
667 23-06-2010 13:19:02 28.1 C 5.47 g/m*3 28.1 C 0 km/h
668 23-06-2010 13:31:02 29.1 C 5.78 g/m*3 29.1 C 0 km/h
669 23-06-2010 13:43:02 27.8 C 5.38 g/m*3 27.8 C 0 km/h
670 23-06-2010 13:55:01 28.2 C 5.5 g/m*3 28.2 C 0 km/h
671 23-06-2010 14:07:02 28.3 C 5.53 g/m*3 28.3 C 0 km/h
672 23-06-2010 14:19:02 27.4 C 5.26 g/m*3 27.4 C 0 km/h
673 23-06-2010 14:31:01 27.3 C 5.49 g/m*3 27.3 C 0 km/h
674 23-06-2010 14:43:01 26.9 C 5.37 g/m*3 26.9 C 0 km/h
675 23-06-2010 14:55:02 28.3 C 5.53 g/m*3 28.3 C 0 km/h
Sensor: Nr:Datum:Temp:Abs-Feuchte:Windchill:Wind:
Aussen-T/F 676 23-06-2010 15:07:01 28 C 5.44 g/m*3 28 C 0 km/h
677 23-06-2010 15:19:02 28.4 C 5.84 g/m*3 28.4 C 0 km/h
678 23-06-2010 15:31:01 29 C 5.74 g/m*3 29 C 0 km/h
679 23-06-2010 15:43:01 28.4 C 5.56 g/m*3 28.4 C 0 km/h
680 23-06-2010 15:55:02 29.4 C 5.87 g/m*3 29.4 C 0 km/h
681 23-06-2010 16:07:02 30 C 6.06 g/m*3 30 C 0 km/h
682 23-06-2010 16:19:02 30.6 C 6.26 g/m*3 30.6 C 0 km/h
683 23-06-2010 16:31:02 29.4 C 5.87 g/m*3 29.4 C 0 km/h
684 23-06-2010 16:43:02 30 C 6.06 g/m*3 30 C 0 km/h
685 23-06-2010 16:55:02 30.8 C 6.33 g/m*3 30.8 C 0 km/h
686 23-06-2010 17:07:02 30.7 C 6.3 g/m*3 30.7 C 0 km/h
687 23-06-2010 17:19:01 28.3 C 5.53 g/m*3 28.3 C 0 km/h
688 23-06-2010 17:31:02 28.4 C 5.56 g/m*3 28.4 C 0 km/h
689 23-06-2010 17:43:02 29.6 C 5.94 g/m*3 29.6 C 0 km/h
690 23-06-2010 17:55:02 30.3 C 6.16 g/m*3 30.3 C 0 km/h
691 23-06-2010 18:07:02 30.8 C 6.33 g/m*3 30.8 C 0 km/h
692 23-06-2010 18:19:01 30.6 C 6.26 g/m*3 30.6 C 0 km/h
693 23-06-2010 18:31:02 30.5 C 6.23 g/m*3 30.5 C 0 km/h
694 23-06-2010 18:43:02 29.5 C 5.9 g/m*3 29.5 C 0 km/h
695 23-06-2010 18:55:01 30 C 6.06 g/m*3 30 C 0 km/h
696 23-06-2010 19:07:02 29 C 5.74 g/m*3 29 C 0 km/h
697 23-06-2010 19:19:01 29.2 C 5.81 g/m*3 29.2 C 0 km/h
698 23-06-2010 19:31:02 29 C 5.74 g/m*3 29 C 0 km/h
699 23-06-2010 19:43:02 29.5 C 5.9 g/m*3 29.5 C 0 km/h
700 23-06-2010 19:55:02 29 C 5.74 g/m*3 29 C 0 km/h
Sensor: Nr:Datum:Temp:Abs-Feuchte:Windchill:Wind:
Aussen-T/F 701 23-06-2010 20:07:02 29 C 5.74 g/m*3 29 C 0 km/h
702 23-06-2010 20:19:01 28.5 C 6.43 g/m*3 28.5 C 0 km/h
703 23-06-2010 20:31:01 27.2 C 6.77 g/m*3 27.2 C 0 km/h
704 23-06-2010 20:43:01 26.5 C 6.76 g/m*3 26.5 C 0 km/h
705 23-06-2010 20:55:01 25.7 C 6.94 g/m*3 25.7 C 0 km/h
706 23-06-2010 21:07:02 24.3 C 6.64 g/m*3 24.3 C 0 km/h
707 23-06-2010 21:19:01 23.3 C 6.9 g/m*3 23.3 C 0 km/h
708 23-06-2010 21:31:01 22.5 C 6.99 g/m*3 22.5 C 0 km/h
709 23-06-2010 21:43:01 21.8 C 6.91 g/m*3 21.8 C 0 km/h
710 23-06-2010 21:55:01 21.5 C 6.79 g/m*3 21.5 C 0 km/h
711 23-06-2010 22:07:02 21.2 C 6.86 g/m*3 21.2 C 0 km/h
712 23-06-2010 22:19:01 20.8 C 7.06 g/m*3 20.8 C 0 km/h
713 23-06-2010 22:31:01 20.5 C 6.76 g/m*3 20.5 C 0 km/h
714 23-06-2010 22:43:01 20.3 C 7.03 g/m*3 20.3 C 0 km/h
715 23-06-2010 22:55:01 19.8 C 7 g/m*3 19.8 C 0 km/h
716 23-06-2010 23:07:02 19.5 C 7.05 g/m*3 19.5 C 0 km/h
717 23-06-2010 23:19:02 19.5 C 7.22 g/m*3 19.5 C 0 km/h
718 23-06-2010 23:31:01 19.1 C 7.21 g/m*3 19.1 C 0 km/h
719 23-06-2010 23:43:01 18.8 C 7.41 g/m*3 18.8 C 0 km/h
720 23-06-2010 23:55:01 18.7 C 7.36 g/m*3 18.7 C 0 km/h
721 24-06-2010 00:07:01 18.2 C 7.46 g/m*3 18.2 C 0 km/h
722 24-06-2010 00:19:02 17.8 C 7.74 g/m*3 17.8 C 0 km/h
723 24-06-2010 00:31:02 17.6 C 7.8 g/m*3 17.6 C 0 km/h
724 24-06-2010 00:43:02 17.3 C 7.96 g/m*3 17.3 C 0 km/h
725 24-06-2010 00:55:02 17 C 7.96 g/m*3 17 C 0 km/h
Sensor: Nr:Datum:Temp:Abs-Feuchte:Windchill:Wind:
Aussen-T/F 726 24-06-2010 01:07:02 16.8 C 8.01 g/m*3 16.8 C 0 km/h
727 24-06-2010 01:19:02 16.5 C 8.28 g/m*3 16.5 C 0 km/h
728 24-06-2010 01:31:02 16 C 8.17 g/m*3 16 C 0 km/h
729 24-06-2010 01:43:02 15.5 C 8.33 g/m*3 15.5 C 0 km/h
730 24-06-2010 01:55:02 15.6 C 8.38 g/m*3 15.6 C 0 km/h
731 24-06-2010 02:07:02 15.3 C 8.36 g/m*3 15.3 C 0 km/h
732 24-06-2010 02:19:01 15.2 C 8.18 g/m*3 15.2 C 0 km/h
733 24-06-2010 02:31:02 15.1 C 8.26 g/m*3 15.1 C 0 km/h
734 24-06-2010 02:43:02 14.8 C 8.36 g/m*3 14.8 C 0 km/h
735 24-06-2010 02:56:03 14.5 C 8.33 g/m*3 14.5 C 0 km/h
736 24-06-2010 03:08:03 14.5 C 8.46 g/m*3 14.5 C 0 km/h
737 24-06-2010 03:20:04 14.3 C 8.35 g/m*3 14.3 C 0 km/h
738 24-06-2010 03:32:02 14.2 C 8.3 g/m*3 14.2 C 0 km/h
739 24-06-2010 03:44:03 14.1 C 8.25 g/m*3 14.1 C 0 km/h
740 24-06-2010 03:56:03 13.8 C 8.34 g/m*3 13.8 C 0 km/h
741 24-06-2010 04:08:02 13.4 C 8.37 g/m*3 13.4 C 0 km/h
742 24-06-2010 04:20:02 13.4 C 8.37 g/m*3 13.4 C 0 km/h
743 24-06-2010 04:32:02 13.2 C 8.38 g/m*3 13.2 C 0 km/h
744 24-06-2010 04:44:02 13.1 C 8.44 g/m*3 13.1 C 0 km/h
745 24-06-2010 04:56:02 12.9 C 8.45 g/m*3 12.9 C 0 km/h
746 24-06-2010 05:08:01 12.8 C 8.4 g/m*3 12.8 C 0 km/h
747 24-06-2010 05:20:01 12.8 C 8.4 g/m*3 12.8 C 0 km/h
748 24-06-2010 05:32:02 12.7 C 8.46 g/m*3 12.7 C 0 km/h
749 24-06-2010 05:44:02 12.4 C 8.41 g/m*3 12.4 C 0 km/h
750 24-06-2010 05:56:02 12.4 C 8.41 g/m*3 12.4 C 0 km/h
Sensor: Nr:Datum:Temp:Abs-Feuchte:Windchill:Wind:
Aussen-T/F 751 24-06-2010 06:08:01 12.6 C 8.52 g/m*3 12.6 C 0 km/h
752 24-06-2010 06:20:02 12.6 C 8.41 g/m*3 12.6 C 0 km/h
753 24-06-2010 06:32:02 12.6 C 8.52 g/m*3 12.6 C 0 km/h
754 24-06-2010 06:44:02 12.7 C 8.57 g/m*3 12.7 C 0 km/h
755 24-06-2010 06:56:01 13 C 8.62 g/m*3 13 C 0 km/h
756 24-06-2010 07:08:02 13.1 C 8.44 g/m*3 13.1 C 0 km/h
757 24-06-2010 07:20:01 13.3 C 8.55 g/m*3 13.3 C 0 km/h
758 24-06-2010 07:32:01 13.4 C 8.37 g/m*3 13.4 C 0 km/h
759 24-06-2010 07:44:01 13.6 C 8.36 g/m*3 13.6 C 0 km/h
760 24-06-2010 07:56:02 13.7 C 8.41 g/m*3 13.7 C 0 km/h
761 24-06-2010 08:08:02 14 C 8.44 g/m*3 14 C 0 km/h
762 24-06-2010 08:20:01 14.4 C 8.53 g/m*3 14.4 C 0 km/h
763 24-06-2010 08:32:02 14.7 C 8.69 g/m*3 14.7 C 0 km/h
764 24-06-2010 08:44:02 15.2 C 8.57 g/m*3 15.2 C 0 km/h
765 24-06-2010 08:56:02 15.5 C 8.72 g/m*3 15.5 C 0 km/h
766 24-06-2010 09:08:02 16 C 8.58 g/m*3 16 C 0 km/h
767 24-06-2010 09:20:01 16.6 C 8.76 g/m*3 16.6 C 0 km/h
768 24-06-2010 09:32:02 17.3 C 8.4 g/m*3 17.3 C 0 km/h
769 24-06-2010 09:44:02 18.4 C 8.65 g/m*3 18.4 C 0 km/h
770 24-06-2010 09:56:02 19 C 8.31 g/m*3 19 C 0 km/h
771 24-06-2010 10:08:02 19.6 C 8.44 g/m*3 19.6 C 0 km/h
772 24-06-2010 10:20:01 20.9 C 8.92 g/m*3 20.9 C 0 km/h
773 24-06-2010 10:32:02 21.6 C 8.72 g/m*3 21.6 C 0 km/h
774 24-06-2010 10:44:02 22.4 C 8.54 g/m*3 22.4 C 0 km/h
775 24-06-2010 10:56:01 23 C 8.22 g/m*3 23 C 0 km/h
Sensor: Nr:Datum:Temp:Abs-Feuchte:Windchill:Wind:
Aussen-T/F 776 24-06-2010 11:08:02 23.6 C 8.29 g/m*3 23.6 C 0 km/h
777 24-06-2010 11:20:02 24.1 C 8.1 g/m*3 24.1 C 0 km/h
778 24-06-2010 11:32:02 24.9 C 7.55 g/m*3 24.9 C 0 km/h
779 24-06-2010 11:44:02 26 C 7.55 g/m*3 26 C 0 km/h
780 24-06-2010 11:56:01 26.2 C 6.89 g/m*3 26.2 C 0 km/h
781 24-06-2010 12:08:02 27.5 C 6.61 g/m*3 27.5 C 0 km/h
782 24-06-2010 12:20:02 28.4 C 6.12 g/m*3 28.4 C 0 km/h
783 24-06-2010 12:32:02 29.2 C 5.81 g/m*3 29.2 C 0 km/h
784 24-06-2010 12:44:02 28.4 C 5.56 g/m*3 28.4 C 0 km/h
785 24-06-2010 12:56:01 30.1 C 6.1 g/m*3 30.1 C 0 km/h
786 24-06-2010 13:08:02 30.1 C 6.1 g/m*3 30.1 C 0 km/h
787 24-06-2010 13:20:02 30.4 C 6.2 g/m*3 30.4 C 0 km/h
788 24-06-2010 13:32:01 30.7 C 6.3 g/m*3 30.7 C 0 km/h
789 24-06-2010 13:44:01 30.4 C 6.2 g/m*3 30.4 C 0 km/h
790 24-06-2010 13:56:02 30.1 C 6.1 g/m*3 30.1 C 0 km/h
791 24-06-2010 14:08:01 30.4 C 6.2 g/m*3 30.4 C 0 km/h
792 24-06-2010 14:20:02 29.6 C 5.94 g/m*3 29.6 C 0 km/h
793 24-06-2010 14:32:01 29.1 C 5.78 g/m*3 29.1 C 0 km/h
794 24-06-2010 14:44:01 29.5 C 5.9 g/m*3 29.5 C 0 km/h
795 24-06-2010 14:56:02 30 C 6.06 g/m*3 30 C 0 km/h
796 24-06-2010 15:08:01 30.3 C 6.16 g/m*3 30.3 C 0 km/h
797 24-06-2010 15:20:02 31.2 C 6.47 g/m*3 31.2 C 0 km/h
798 24-06-2010 15:32:01 31 C 6.4 g/m*3 31 C 0 km/h
799 24-06-2010 15:44:01 31.3 C 6.5 g/m*3 31.3 C 0 km/h
800 24-06-2010 15:56:01 30.7 C 6.3 g/m*3 30.7 C 0 km/h
Sensor: Nr:Datum:Temp:Abs-Feuchte:Windchill:Wind:
Aussen-T/F 801 24-06-2010 16:08:01 30.6 C 6.26 g/m*3 30.6 C 0 km/h
802 24-06-2010 16:20:02 31.3 C 6.5 g/m*3 31.3 C 0 km/h
803 24-06-2010 16:32:01 31.2 C 6.47 g/m*3 31.2 C 0 km/h
804 24-06-2010 16:44:01 32 C 6.75 g/m*3 32 C 0 km/h
805 24-06-2010 16:56:01 31.5 C 6.57 g/m*3 31.5 C 0 km/h
806 24-06-2010 17:08:01 32.3 C 6.86 g/m*3 32.3 C 0 km/h
807 24-06-2010 17:20:02 32.4 C 6.9 g/m*3 32.4 C 0 km/h
808 24-06-2010 17:32:01 32.8 C 7.04 g/m*3 32.8 C 0 km/h
809 24-06-2010 17:44:01 32.9 C 7.08 g/m*3 32.9 C 0 km/h
810 24-06-2010 17:56:02 32.8 C 7.04 g/m*3 32.8 C 0 km/h
811 24-06-2010 18:08:02 32.1 C 6.79 g/m*3 32.1 C 0 km/h
812 24-06-2010 18:20:03 32.4 C 6.9 g/m*3 32.4 C 0 km/h
813 24-06-2010 18:32:02 32.8 C 7.04 g/m*3 32.8 C 0 km/h
814 24-06-2010 18:44:02 33 C 7.12 g/m*3 33 C 0 km/h
815 24-06-2010 18:56:02 32.9 C 7.08 g/m*3 32.9 C 0 km/h
816 24-06-2010 19:08:02 32.2 C 6.82 g/m*3 32.2 C 0 km/h
817 24-06-2010 19:20:03 31.8 C 6.68 g/m*3 31.8 C 0 km/h
818 24-06-2010 19:32:02 31.4 C 6.54 g/m*3 31.4 C 0 km/h
819 24-06-2010 19:44:02 31.4 C 6.54 g/m*3 31.4 C 0 km/h
820 24-06-2010 19:56:03 31.8 C 6.68 g/m*3 31.8 C 0 km/h
821 24-06-2010 20:08:02 31.5 C 6.57 g/m*3 31.5 C 0 km/h
822 24-06-2010 20:20:02 31.2 C 6.47 g/m*3 31.2 C 0 km/h
823 24-06-2010 20:32:02 30.5 C 6.85 g/m*3 30.5 C 0 km/h
824 24-06-2010 20:44:02 29.4 C 7.34 g/m*3 29.4 C 0 km/h
825 24-06-2010 20:56:02 28.1 C 7.11 g/m*3 28.1 C 0 km/h
Sensor: Nr:Datum:Temp:Abs-Feuchte:Windchill:Wind:
Aussen-T/F 826 24-06-2010 21:08:02 26.9 C 6.91 g/m*3 26.9 C 0 km/h
827 24-06-2010 21:20:02 25.8 C 7.22 g/m*3 25.8 C 0 km/h
828 24-06-2010 21:32:02 24.8 C 7.06 g/m*3 24.8 C 0 km/h
829 24-06-2010 21:44:02 24.5 C 7.16 g/m*3 24.5 C 0 km/h
830 24-06-2010 21:56:02 24.2 C 7.04 g/m*3 24.2 C 0 km/h
831 24-06-2010 22:08:02 23.7 C 7.49 g/m*3 23.7 C 0 km/h
832 24-06-2010 22:21:03 23.4 C 7.36 g/m*3 23.4 C 0 km/h
833 24-06-2010 22:33:03 22.9 C 7.56 g/m*3 22.9 C 0 km/h
834 24-06-2010 22:45:03 22.6 C 7.43 g/m*3 22.6 C 0 km/h
835 24-06-2010 22:57:03 22.2 C 7.46 g/m*3 22.2 C 0 km/h
836 24-06-2010 23:09:03 22 C 7.38 g/m*3 22 C 0 km/h
837 24-06-2010 23:21:03 21.8 C 7.67 g/m*3 21.8 C 0 km/h
838 24-06-2010 23:33:03 21.5 C 7.73 g/m*3 21.5 C 0 km/h
839 24-06-2010 23:45:04 20.9 C 7.83 g/m*3 20.9 C 0 km/h
840 24-06-2010 23:57:04 20.7 C 7.92 g/m*3 20.7 C 0 km/h
841 25-06-2010 00:09:04 20.6 C 7.87 g/m*3 20.6 C 0 km/h
842 25-06-2010 00:21:04 20.4 C 7.96 g/m*3 20.4 C 0 km/h
843 25-06-2010 00:33:04 20 C 7.95 g/m*3 20 C 0 km/h
844 25-06-2010 00:45:04 19.7 C 8.15 g/m*3 19.7 C 0 km/h
845 25-06-2010 00:57:04 19.5 C 8.22 g/m*3 19.5 C 0 km/h
846 25-06-2010 01:09:04 19.1 C 8.2 g/m*3 19.1 C 0 km/h
847 25-06-2010 01:21:04 19.1 C 8.2 g/m*3 19.1 C 0 km/h
848 25-06-2010 01:33:04 18.9 C 8.42 g/m*3 18.9 C 0 km/h
849 25-06-2010 01:45:04 18.6 C 8.44 g/m*3 18.6 C 0 km/h
850 25-06-2010 01:57:04 18.6 C 8.59 g/m*3 18.6 C 0 km/h
Sensor: Nr:Datum:Temp:Abs-Feuchte:Windchill:Wind:
Aussen-T/F 851 25-06-2010 02:09:04 18.3 C 8.76 g/m*3 18.3 C 0 km/h
852 25-06-2010 02:21:04 18.7 C 8.81 g/m*3 18.7 C 0 km/h
853 25-06-2010 02:33:04 18.7 C 8.81 g/m*3 18.7 C 0 km/h
854 25-06-2010 02:45:04 18.3 C 8.76 g/m*3 18.3 C 0 km/h
855 25-06-2010 02:57:04 18 C 8.75 g/m*3 18 C 0 km/h
856 25-06-2010 03:09:04 17.4 C 8.89 g/m*3 17.4 C 0 km/h
857 25-06-2010 03:21:04 17.2 C 9.08 g/m*3 17.2 C 0 km/h
858 25-06-2010 03:33:04 17 C 9.12 g/m*3 17 C 0 km/h
859 25-06-2010 03:45:04 16.9 C 9.21 g/m*3 16.9 C 0 km/h
860 25-06-2010 03:57:05 16.8 C 9.29 g/m*3 16.8 C 0 km/h
861 25-06-2010 04:09:05 17 C 9.26 g/m*3 17 C 0 km/h
862 25-06-2010 04:21:05 16.7 C 9.24 g/m*3 16.7 C 0 km/h
863 25-06-2010 04:33:05 16.6 C 9.32 g/m*3 16.6 C 0 km/h
864 25-06-2010 04:45:05 16.6 C 9.32 g/m*3 16.6 C 0 km/h
865 25-06-2010 04:57:05 16.7 C 9.38 g/m*3 16.7 C 0 km/h
866 25-06-2010 05:09:05 16.5 C 9.27 g/m*3 16.5 C 0 km/h
867 25-06-2010 05:21:05 16.2 C 9.38 g/m*3 16.2 C 0 km/h
868 25-06-2010 05:33:05 16 C 9.26 g/m*3 16 C 0 km/h
869 25-06-2010 05:45:05 16 C 9.4 g/m*3 16 C 0 km/h
870 25-06-2010 05:57:05 16.1 C 9.46 g/m*3 16.1 C 0 km/h
871 25-06-2010 06:09:05 16.2 C 9.52 g/m*3 16.2 C 0 km/h
872 25-06-2010 06:21:05 16.1 C 9.46 g/m*3 16.1 C 0 km/h
873 25-06-2010 06:33:05 16.3 C 9.57 g/m*3 16.3 C 0 km/h
874 25-06-2010 06:45:05 16.2 C 9.52 g/m*3 16.2 C 0 km/h
875 25-06-2010 06:57:05 16.3 C 9.57 g/m*3 16.3 C 0 km/h
Sensor: Nr:Datum:Temp:Abs-Feuchte:Windchill:Wind:
Aussen-T/F 876 25-06-2010 07:09:03 16.6 C 9.75 g/m*3 16.6 C 0 km/h
877 25-06-2010 07:21:03 16.7 C 9.66 g/m*3 16.7 C 0 km/h
878 25-06-2010 07:33:04 17.1 C 9.61 g/m*3 17.1 C 0 km/h
879 25-06-2010 07:45:02 17.5 C 9.69 g/m*3 17.5 C 0 km/h
880 25-06-2010 07:57:02 17.7 C 9.66 g/m*3 17.7 C 0 km/h
881 25-06-2010 08:09:02 18.1 C 9.73 g/m*3 18.1 C 0 km/h
882 25-06-2010 08:21:02 19 C 9.61 g/m*3 19 C 0 km/h
883 25-06-2010 08:33:02 19.4 C 9.34 g/m*3 19.4 C 0 km/h
884 25-06-2010 08:45:02 19.4 C 9.18 g/m*3 19.4 C 0 km/h
885 25-06-2010 08:57:02 19.3 C 9.12 g/m*3 19.3 C 0 km/h
886 25-06-2010 09:09:03 19.4 C 9.01 g/m*3 19.4 C 0 km/h
887 25-06-2010 09:21:02 20 C 8.99 g/m*3 20 C 0 km/h
888 25-06-2010 09:33:02 20.4 C 9.2 g/m*3 20.4 C 0 km/h
889 25-06-2010 09:45:01 20.6 C 9.13 g/m*3 20.6 C 0 km/h
890 25-06-2010 09:57:01 21.5 C 9.43 g/m*3 21.5 C 0 km/h
891 25-06-2010 10:09:02 21.8 C 9.02 g/m*3 21.8 C 0 km/h
892 25-06-2010 10:21:01 22.4 C 8.94 g/m*3 22.4 C 0 km/h
893 25-06-2010 10:33:02 22.7 C 8.69 g/m*3 22.7 C 0 km/h
894 25-06-2010 10:45:01 22.9 C 8.58 g/m*3 22.9 C 0 km/h
895 25-06-2010 10:57:01 23.1 C 8.48 g/m*3 23.1 C 0 km/h
896 25-06-2010 11:09:02 23.5 C 8.25 g/m*3 23.5 C 0 km/h
897 25-06-2010 11:21:01 23.6 C 8.29 g/m*3 23.6 C 0 km/h
898 25-06-2010 11:33:02 24 C 8.27 g/m*3 24 C 0 km/h
899 25-06-2010 11:45:01 24.2 C 8.14 g/m*3 24.2 C 0 km/h
900 25-06-2010 11:57:01 26.3 C 8.17 g/m*3 26.3 C 0 km/h
Sensor: Nr:Datum:Temp:Abs-Feuchte:Windchill:Wind:
Aussen-T/F 901 25-06-2010 12:09:02 26.2 C 7.88 g/m*3 26.2 C 0 km/h
902 25-06-2010 12:21:02 27.4 C 8.16 g/m*3 27.4 C 0 km/h
903 25-06-2010 12:33:01 27.9 C 7.57 g/m*3 27.9 C 0 km/h
904 25-06-2010 12:45:02 28.9 C 8 g/m*3 28.9 C 0 km/h
905 25-06-2010 12:57:02 28.2 C 7.42 g/m*3 28.2 C 0 km/h
906 25-06-2010 13:09:01 29.1 C 7.51 g/m*3 29.1 C 0 km/h
907 25-06-2010 13:21:02 29.1 C 7.22 g/m*3 29.1 C 0 km/h
908 25-06-2010 13:33:01 29.3 C 7.3 g/m*3 29.3 C 0 km/h
909 25-06-2010 13:45:03 29 C 7.18 g/m*3 29 C 0 km/h
910 25-06-2010 13:57:03 28.7 C 7.06 g/m*3 28.7 C 0 km/h
911 25-06-2010 14:09:02 29.4 C 7.05 g/m*3 29.4 C 0 km/h
912 25-06-2010 14:21:02 28.6 C 7.03 g/m*3 28.6 C 0 km/h
913 25-06-2010 14:33:03 28.4 C 6.95 g/m*3 28.4 C 0 km/h
914 25-06-2010 14:45:02 28.9 C 7.14 g/m*3 28.9 C 0 km/h
915 25-06-2010 14:57:03 28.9 C 6.57 g/m*3 28.9 C 0 km/h
916 25-06-2010 15:09:01 28.9 C 6.57 g/m*3 28.9 C 0 km/h
917 25-06-2010 15:21:02 29.4 C 6.46 g/m*3 29.4 C 0 km/h
918 25-06-2010 15:33:02 29.2 C 6.97 g/m*3 29.2 C 0 km/h
919 25-06-2010 15:45:01 30.2 C 6.13 g/m*3 30.2 C 0 km/h
920 25-06-2010 15:57:01 30.3 C 6.16 g/m*3 30.3 C 0 km/h
921 25-06-2010 16:09:02 29.6 C 5.94 g/m*3 29.6 C 0 km/h
922 25-06-2010 16:21:01 30.3 C 6.16 g/m*3 30.3 C 0 km/h
923 25-06-2010 16:33:01 30.7 C 6.3 g/m*3 30.7 C 0 km/h
924 25-06-2010 16:45:02 30.4 C 6.2 g/m*3 30.4 C 0 km/h
925 25-06-2010 16:57:02 30.2 C 6.13 g/m*3 30.2 C 0 km/h
Sensor: Nr:Datum:Temp:Abs-Feuchte:Windchill:Wind:
Aussen-T/F 926 25-06-2010 17:09:02 30.8 C 6.33 g/m*3 30.8 C 0 km/h
927 25-06-2010 17:21:01 30.8 C 6.33 g/m*3 30.8 C 0 km/h
928 25-06-2010 17:33:02 31.2 C 6.47 g/m*3 31.2 C 0 km/h
929 25-06-2010 17:45:02 30.6 C 6.26 g/m*3 30.6 C 0 km/h
930 25-06-2010 17:57:02 30.1 C 6.1 g/m*3 30.1 C 0 km/h
931 25-06-2010 18:09:02 30.4 C 6.2 g/m*3 30.4 C 0 km/h
932 25-06-2010 18:21:01 30.8 C 6.33 g/m*3 30.8 C 0 km/h
933 25-06-2010 18:33:02 31.1 C 6.43 g/m*3 31.1 C 0 km/h
934 25-06-2010 18:45:02 30.7 C 6.3 g/m*3 30.7 C 0 km/h
935 25-06-2010 18:57:02 30.7 C 6.3 g/m*3 30.7 C 0 km/h
936 25-06-2010 19:09:02 30.7 C 6.3 g/m*3 30.7 C 0 km/h
937 25-06-2010 19:21:02 30.7 C 6.3 g/m*3 30.7 C 0 km/h
938 25-06-2010 19:33:02 30 C 6.06 g/m*3 30 C 0 km/h
939 25-06-2010 19:45:02 29.9 C 6.03 g/m*3 29.9 C 0 km/h
940 25-06-2010 19:57:02 29.7 C 6.27 g/m*3 29.7 C 0 km/h
941 25-06-2010 20:09:03 29.7 C 6.27 g/m*3 29.7 C 0 km/h
942 25-06-2010 20:21:02 28.5 C 5.59 g/m*3 28.5 C 0 km/h
943 25-06-2010 20:33:03 28 C 5.71 g/m*3 28 C 0 km/h
944 25-06-2010 20:45:02 27.8 C 6.19 g/m*3 27.8 C 0 km/h
945 25-06-2010 20:57:02 27.2 C 6.25 g/m*3 27.2 C 0 km/h
946 25-06-2010 21:09:02 26.3 C 6.44 g/m*3 26.3 C 0 km/h
947 25-06-2010 21:21:02 25.8 C 7.22 g/m*3 25.8 C 0 km/h
948 25-06-2010 21:33:02 24.9 C 7.1 g/m*3 24.9 C 0 km/h
949 25-06-2010 21:45:02 24.1 C 7.22 g/m*3 24.1 C 0 km/h
950 25-06-2010 21:57:02 23.8 C 7.31 g/m*3 23.8 C 0 km/h
Sensor: Nr:Datum:Temp:Abs-Feuchte:Windchill:Wind:
Aussen-T/F 951 25-06-2010 22:09:02 23.3 C 7.32 g/m*3 23.3 C 0 km/h
952 25-06-2010 22:21:01 23 C 7.4 g/m*3 23 C 0 km/h
953 25-06-2010 22:33:01 22.7 C 7.48 g/m*3 22.7 C 0 km/h
954 25-06-2010 22:45:01 22.2 C 7.46 g/m*3 22.2 C 0 km/h
955 25-06-2010 22:57:01 22 C 7.57 g/m*3 22 C 0 km/h
956 25-06-2010 23:09:01 21.5 C 7.54 g/m*3 21.5 C 0 km/h
957 25-06-2010 23:21:01 21.4 C 7.69 g/m*3 21.4 C 0 km/h
958 25-06-2010 23:33:01 21 C 7.51 g/m*3 21 C 0 km/h
959 25-06-2010 23:45:01 20.8 C 8.15 g/m*3 20.8 C 0 km/h
960 25-06-2010 23:57:01 20.5 C 8.01 g/m*3 20.5 C 0 km/h
961 26-06-2010 00:09:01 20.3 C 8.09 g/m*3 20.3 C 0 km/h
962 26-06-2010 00:21:01 20.2 C 8.04 g/m*3 20.2 C 0 km/h
963 26-06-2010 00:33:02 19.7 C 8.15 g/m*3 19.7 C 0 km/h
964 26-06-2010 00:45:02 19.3 C 8.29 g/m*3 19.3 C 0 km/h
965 26-06-2010 00:57:02 18.9 C 8.26 g/m*3 18.9 C 0 km/h
966 26-06-2010 01:09:02 18.7 C 8.33 g/m*3 18.7 C 0 km/h
967 26-06-2010 01:21:02 18.9 C 8.42 g/m*3 18.9 C 0 km/h
968 26-06-2010 01:33:02 18.7 C 8.33 g/m*3 18.7 C 0 km/h
969 26-06-2010 01:45:02 18.5 C 8.23 g/m*3 18.5 C 0 km/h
970 26-06-2010 01:57:02 18.2 C 8.24 g/m*3 18.2 C 0 km/h
971 26-06-2010 02:09:02 17.9 C 8.55 g/m*3 17.9 C 0 km/h
972 26-06-2010 02:21:02 17.7 C 8.45 g/m*3 17.7 C 0 km/h
973 26-06-2010 02:33:02 17.4 C 8.6 g/m*3 17.4 C 0 km/h
974 26-06-2010 02:45:02 17.1 C 8.59 g/m*3 17.1 C 0 km/h
975 26-06-2010 02:57:02 17 C 8.54 g/m*3 17 C 0 km/h
Sensor: Nr:Datum:Temp:Abs-Feuchte:Windchill:Wind:
Aussen-T/F 976 26-06-2010 03:09:02 16.9 C 8.63 g/m*3 16.9 C 0 km/h
977 26-06-2010 03:21:02 16.5 C 8.57 g/m*3 16.5 C 0 km/h
978 26-06-2010 03:33:02 16.5 C 8.71 g/m*3 16.5 C 0 km/h
979 26-06-2010 03:45:02 16.3 C 8.74 g/m*3 16.3 C 0 km/h
980 26-06-2010 03:57:02 16.1 C 8.64 g/m*3 16.1 C 0 km/h
981 26-06-2010 04:09:02 15.9 C 8.8 g/m*3 15.9 C 0 km/h
982 26-06-2010 04:21:02 15.6 C 8.78 g/m*3 15.6 C 0 km/h
983 26-06-2010 04:33:03 15.5 C 8.86 g/m*3 15.5 C 0 km/h
984 26-06-2010 04:45:03 15.3 C 8.88 g/m*3 15.3 C 0 km/h
985 26-06-2010 04:57:03 15.2 C 8.83 g/m*3 15.2 C 0 km/h
986 26-06-2010 05:09:03 15 C 8.85 g/m*3 15 C 0 km/h
987 26-06-2010 05:21:03 14.8 C 8.87 g/m*3 14.8 C 0 km/h
988 26-06-2010 05:33:03 14.8 C 8.87 g/m*3 14.8 C 0 km/h
989 26-06-2010 05:45:03 14.7 C 9.07 g/m*3 14.7 C 0 km/h
990 26-06-2010 05:57:03 14.5 C 8.95 g/m*3 14.5 C 0 km/h
991 26-06-2010 06:09:03 14.4 C 9.15 g/m*3 14.4 C 0 km/h
992 26-06-2010 06:21:03 14.5 C 9.2 g/m*3 14.5 C 0 km/h
993 26-06-2010 06:33:03 14.7 C 9.19 g/m*3 14.7 C 0 km/h
994 26-06-2010 06:45:03 14.9 C 9.3 g/m*3 14.9 C 0 km/h
995 26-06-2010 06:57:03 15.2 C 9.22 g/m*3 15.2 C 0 km/h
996 26-06-2010 07:09:03 15.2 C 9.22 g/m*3 15.2 C 0 km/h
997 26-06-2010 07:21:03 15.3 C 9.27 g/m*3 15.3 C 0 km/h
998 26-06-2010 07:33:03 15.4 C 9.33 g/m*3 15.4 C 0 km/h
999 26-06-2010 07:45:03 15.4 C 9.33 g/m*3 15.4 C 0 km/h
1000 26-06-2010 07:57:03 15.6 C 9.44 g/m*3 15.6 C 0 km/h
Sensor: Nr:Datum:Temp:Abs-Feuchte:Windchill:Wind:
Aussen-T/F 1001 26-06-2010 08:09:03 15.8 C 9.42 g/m*3 15.8 C 0 km/h
1002 26-06-2010 08:21:03 16.3 C 9.57 g/m*3 16.3 C 0 km/h
1003 26-06-2010 08:33:03 16.8 C 9.72 g/m*3 16.8 C 0 km/h
1004 26-06-2010 08:45:01 17.3 C 9.43 g/m*3 17.3 C 0 km/h
1005 26-06-2010 08:57:01 17.8 C 9.41 g/m*3 17.8 C 0 km/h
1006 26-06-2010 09:09:02 18.4 C 9.59 g/m*3 18.4 C 0 km/h
1007 26-06-2010 09:21:01 18.9 C 9.72 g/m*3 18.9 C 0 km/h
1008 26-06-2010 09:33:02 19.4 C 9.68 g/m*3 19.4 C 0 km/h
1009 26-06-2010 09:45:01 20.2 C 9.44 g/m*3 20.2 C 0 km/h
1010 26-06-2010 09:57:01 20.9 C 9.47 g/m*3 20.9 C 0 km/h
1011 26-06-2010 10:09:02 21.8 C 9.4 g/m*3 21.8 C 0 km/h
1012 26-06-2010 10:21:01 22.4 C 8.94 g/m*3 22.4 C 0 km/h
1013 26-06-2010 10:33:01 23 C 9.04 g/m*3 23 C 0 km/h
1014 26-06-2010 10:45:01 23.6 C 8.72 g/m*3 23.6 C 0 km/h
1015 26-06-2010 10:57:01 24.3 C 8.19 g/m*3 24.3 C 0 km/h
1016 26-06-2010 11:09:01 24.6 C 7.88 g/m*3 24.6 C 0 km/h
1017 26-06-2010 11:21:02 25.8 C 7.7 g/m*3 25.8 C 0 km/h
1018 26-06-2010 11:33:01 26.4 C 7.47 g/m*3 26.4 C 0 km/h
1019 26-06-2010 11:45:01 26.8 C 6.62 g/m*3 26.8 C 0 km/h
1020 26-06-2010 11:57:01 27.3 C 6.28 g/m*3 27.3 C 0 km/h
1021 26-06-2010 12:09:01 27.8 C 6.72 g/m*3 27.8 C 0 km/h
1022 26-06-2010 12:21:02 28.4 C 6.39 g/m*3 28.4 C 0 km/h
1023 26-06-2010 12:33:01 29.6 C 6.53 g/m*3 29.6 C 0 km/h
1024 26-06-2010 12:45:02 30.3 C 6.16 g/m*3 30.3 C 0 km/h
1025 26-06-2010 12:57:02 30.9 C 6.37 g/m*3 30.9 C 0 km/h
Sensor: Nr:Datum:Temp:Abs-Feuchte:Windchill:Wind:
Aussen-T/F 1026 26-06-2010 13:09:01 31.3 C 6.5 g/m*3 31.3 C 0 km/h
1027 26-06-2010 13:21:02 30.5 C 6.23 g/m*3 30.5 C 0 km/h
1028 26-06-2010 13:33:01 31 C 6.4 g/m*3 31 C 0 km/h
1029 26-06-2010 13:45:02 31.8 C 6.68 g/m*3 31.8 C 0 km/h
1030 26-06-2010 13:57:02 30.8 C 6.33 g/m*3 30.8 C 0 km/h
1031 26-06-2010 14:09:02 30.6 C 6.26 g/m*3 30.6 C 0 km/h
1032 26-06-2010 14:21:01 28.8 C 5.68 g/m*3 28.8 C 0 km/h
1033 26-06-2010 14:33:01 29.7 C 5.97 g/m*3 29.7 C 0 km/h
1034 26-06-2010 14:45:01 28.9 C 5.71 g/m*3 28.9 C 0 km/h
1035 26-06-2010 14:57:01 29.6 C 5.94 g/m*3 29.6 C 0 km/h
1036 26-06-2010 15:09:02 29.9 C 6.03 g/m*3 29.9 C 0 km/h
1037 26-06-2010 15:21:01 30 C 6.06 g/m*3 30 C 0 km/h
1038 26-06-2010 15:33:01 30 C 6.06 g/m*3 30 C 0 km/h
1039 26-06-2010 15:45:01 31.5 C 6.57 g/m*3 31.5 C 0 km/h
1040 26-06-2010 15:57:01 31.9 C 6.72 g/m*3 31.9 C 0 km/h
1041 26-06-2010 16:09:01 32.1 C 6.79 g/m*3 32.1 C 0 km/h
1042 26-06-2010 16:21:02 31.3 C 6.5 g/m*3 31.3 C 0 km/h
1043 26-06-2010 16:33:01 31.4 C 6.54 g/m*3 31.4 C 0 km/h
1044 26-06-2010 16:45:02 31.9 C 6.72 g/m*3 31.9 C 0 km/h
1045 26-06-2010 16:57:02 31.5 C 6.57 g/m*3 31.5 C 0 km/h
1046 26-06-2010 17:09:01 32.4 C 6.9 g/m*3 32.4 C 0 km/h
1047 26-06-2010 17:21:02 32.5 C 6.93 g/m*3 32.5 C 0 km/h
1048 26-06-2010 17:33:01 32.9 C 7.08 g/m*3 32.9 C 0 km/h
1049 26-06-2010 17:45:02 33.1 C 7.16 g/m*3 33.1 C 0 km/h
1050 26-06-2010 17:57:02 33.3 C 7.23 g/m*3 33.3 C 0 km/h
Sensor: Nr:Datum:Temp:Abs-Feuchte:Windchill:Wind:
Aussen-T/F 1051 26-06-2010 18:09:01 33.1 C 7.16 g/m*3 33.1 C 0 km/h
1052 26-06-2010 18:21:01 32.4 C 6.9 g/m*3 32.4 C 0 km/h
1053 26-06-2010 18:33:03 31.4 C 6.54 g/m*3 31.4 C 0 km/h
1054 26-06-2010 18:45:02 31.9 C 6.72 g/m*3 31.9 C 0 km/h
1055 26-06-2010 18:57:02 31.4 C 6.54 g/m*3 31.4 C 0 km/h
1056 26-06-2010 19:09:01 31.4 C 6.54 g/m*3 31.4 C 0 km/h
1057 26-06-2010 19:21:01 31.3 C 6.5 g/m*3 31.3 C 0 km/h
1058 26-06-2010 19:33:02 31.3 C 6.5 g/m*3 31.3 C 0 km/h
1059 26-06-2010 19:45:01 31.2 C 6.47 g/m*3 31.2 C 0 km/h
1060 26-06-2010 19:57:01 31 C 6.4 g/m*3 31 C 0 km/h
1061 26-06-2010 20:09:02 30.7 C 6.3 g/m*3 30.7 C 0 km/h
1062 26-06-2010 20:21:01 30.4 C 6.2 g/m*3 30.4 C 0 km/h
1063 26-06-2010 20:33:02 30.4 C 6.2 g/m*3 30.4 C 0 km/h
1064 26-06-2010 20:45:01 30.1 C 6.4 g/m*3 30.1 C 0 km/h
1065 26-06-2010 20:57:01 29.1 C 7.22 g/m*3 29.1 C 0 km/h
1066 26-06-2010 21:09:02 27.8 C 7.26 g/m*3 27.8 C 0 km/h
1067 26-06-2010 21:21:01 26.4 C 6.97 g/m*3 26.4 C 0 km/h
1068 26-06-2010 21:33:01 25.8 C 6.98 g/m*3 25.8 C 0 km/h
1069 26-06-2010 21:45:01 25 C 6.91 g/m*3 25 C 0 km/h
1070 26-06-2010 21:57:01 24.3 C 7.3 g/m*3 24.3 C 0 km/h
1071 26-06-2010 22:09:02 24 C 6.74 g/m*3 24 C 0 km/h
1072 26-06-2010 22:21:01 23.4 C 7.57 g/m*3 23.4 C 0 km/h
1073 26-06-2010 22:33:02 23.2 C 7.48 g/m*3 23.2 C 0 km/h
1074 26-06-2010 22:45:01 22.9 C 7.97 g/m*3 22.9 C 0 km/h
1075 26-06-2010 22:57:01 22.3 C 7.9 g/m*3 22.3 C 0 km/h
Sensor: Nr:Datum:Temp:Abs-Feuchte:Windchill:Wind:
Aussen-T/F 1076 26-06-2010 23:09:02 22.2 C 8.05 g/m*3 22.2 C 0 km/h
1077 26-06-2010 23:21:01 21.8 C 8.06 g/m*3 21.8 C 0 km/h
1078 26-06-2010 23:33:01 21.4 C 7.69 g/m*3 21.4 C 0 km/h
1079 26-06-2010 23:45:01 21.4 C 7.87 g/m*3 21.4 C 0 km/h
1080 26-06-2010 23:57:01 21 C 7.51 g/m*3 21 C 0 km/h
1081 27-06-2010 00:09:01 20.7 C 7.74 g/m*3 20.7 C 0 km/h
1082 27-06-2010 00:21:01 20.5 C 8.01 g/m*3 20.5 C 0 km/h
1083 27-06-2010 00:33:02 20 C 7.95 g/m*3 20 C 0 km/h
1084 27-06-2010 00:45:01 19.7 C 7.98 g/m*3 19.7 C 0 km/h
1085 27-06-2010 00:57:01 19.5 C 8.06 g/m*3 19.5 C 0 km/h
1086 27-06-2010 01:09:02 19.4 C 8.18 g/m*3 19.4 C 0 km/h
1087 27-06-2010 01:21:01 18.9 C 8.26 g/m*3 18.9 C 0 km/h
1088 27-06-2010 01:33:01 18.7 C 8.33 g/m*3 18.7 C 0 km/h
1089 27-06-2010 01:45:01 18.5 C 8.39 g/m*3 18.5 C 0 km/h
1090 27-06-2010 01:57:01 18.3 C 8.44 g/m*3 18.3 C 0 km/h
1091 27-06-2010 02:09:01 18.1 C 8.34 g/m*3 18.1 C 0 km/h
1092 27-06-2010 02:21:01 17.7 C 8.6 g/m*3 17.7 C 0 km/h
1093 27-06-2010 02:33:01 17.5 C 8.65 g/m*3 17.5 C 0 km/h
1094 27-06-2010 02:46:10 17.3 C 8.54 g/m*3 17.3 C 0 km/h
1095 27-06-2010 02:58:10 17.2 C 8.79 g/m*3 17.2 C 0 km/h
1096 27-06-2010 03:10:11 17 C 8.68 g/m*3 17 C 0 km/h
1097 27-06-2010 03:22:11 16.9 C 8.77 g/m*3 16.9 C 0 km/h
1098 27-06-2010 03:34:02 16.7 C 8.95 g/m*3 16.7 C 0 km/h
1099 27-06-2010 03:46:02 16.4 C 8.79 g/m*3 16.4 C 0 km/h
1100 27-06-2010 03:58:02 16.2 C 8.96 g/m*3 16.2 C 0 km/h
Sensor: Nr:Datum:Temp:Abs-Feuchte:Windchill:Wind:
Aussen-T/F 1101 27-06-2010 04:10:02 16.1 C 8.77 g/m*3 16.1 C 0 km/h
1102 27-06-2010 04:22:03 16 C 8.99 g/m*3 16 C 0 km/h
1103 27-06-2010 04:34:03 15.8 C 8.88 g/m*3 15.8 C 0 km/h
1104 27-06-2010 04:46:01 15.5 C 8.86 g/m*3 15.5 C 0 km/h
1105 27-06-2010 04:58:02 15.4 C 8.93 g/m*3 15.4 C 0 km/h
1106 27-06-2010 05:10:01 15.2 C 8.83 g/m*3 15.2 C 0 km/h
1107 27-06-2010 05:22:01 15.1 C 8.77 g/m*3 15.1 C 0 km/h
1108 27-06-2010 05:34:01 15.1 C 8.9 g/m*3 15.1 C 0 km/h
1109 27-06-2010 05:46:02 14.9 C 9.05 g/m*3 14.9 C 0 km/h
1110 27-06-2010 05:58:02 14.9 C 9.05 g/m*3 14.9 C 0 km/h
1111 27-06-2010 06:10:02 14.9 C 9.05 g/m*3 14.9 C 0 km/h
1112 27-06-2010 06:22:01 15 C 9.1 g/m*3 15 C 0 km/h
1113 27-06-2010 06:34:02 15 C 9.1 g/m*3 15 C 0 km/h
1114 27-06-2010 06:46:02 14.9 C 9.3 g/m*3 14.9 C 0 km/h
1115 27-06-2010 06:58:02 14.9 C 9.43 g/m*3 14.9 C 0 km/h
1116 27-06-2010 07:10:02 14.8 C 9.37 g/m*3 14.8 C 0 km/h
1117 27-06-2010 07:22:01 15.1 C 9.29 g/m*3 15.1 C 0 km/h
1118 27-06-2010 07:34:02 15.4 C 9.46 g/m*3 15.4 C 0 km/h
1119 27-06-2010 07:46:01 15.6 C 9.31 g/m*3 15.6 C 0 km/h
1120 27-06-2010 07:58:01 15.9 C 9.34 g/m*3 15.9 C 0 km/h
1121 27-06-2010 08:10:02 16.2 C 9.38 g/m*3 16.2 C 0 km/h
1122 27-06-2010 08:22:01 16.6 C 9.32 g/m*3 16.6 C 0 km/h
1123 27-06-2010 08:34:01 16.9 C 9.21 g/m*3 16.9 C 0 km/h
1124 27-06-2010 08:46:01 17.5 C 9.24 g/m*3 17.5 C 0 km/h
1125 27-06-2010 08:58:01 18 C 9.06 g/m*3 18 C 0 km/h
Sensor: Nr:Datum:Temp:Abs-Feuchte:Windchill:Wind:
Aussen-T/F 1126 27-06-2010 09:10:02 18.6 C 9.23 g/m*3 18.6 C 0 km/h
1127 27-06-2010 09:22:02 19.5 C 9.4 g/m*3 19.5 C 0 km/h
1128 27-06-2010 09:34:01 20.5 C 9.79 g/m*3 20.5 C 0 km/h
1129 27-06-2010 09:46:02 21.3 C 9.32 g/m*3 21.3 C 0 km/h
1130 27-06-2010 09:58:02 21.8 C 9.21 g/m*3 21.8 C 0 km/h
1131 27-06-2010 10:10:01 22.5 C 9.19 g/m*3 22.5 C 0 km/h
1132 27-06-2010 10:22:02 23.7 C 9.41 g/m*3 23.7 C 0 km/h
1133 27-06-2010 10:34:01 24.4 C 8.9 g/m*3 24.4 C 0 km/h
1134 27-06-2010 10:46:02 24.8 C 8.42 g/m*3 24.8 C 0 km/h
1135 27-06-2010 10:58:02 25.4 C 8.48 g/m*3 25.4 C 0 km/h
1136 27-06-2010 11:10:02 25.6 C 8.09 g/m*3 25.6 C 0 km/h
1137 27-06-2010 11:22:02 26.1 C 7.83 g/m*3 26.1 C 0 km/h
1138 27-06-2010 11:34:01 27.3 C 8.11 g/m*3 27.3 C 0 km/h
1139 27-06-2010 11:46:02 28 C 7.61 g/m*3 28 C 0 km/h
1140 27-06-2010 11:58:02 29.1 C 7.22 g/m*3 29.1 C 0 km/h
1141 27-06-2010 12:10:01 29.8 C 6.6 g/m*3 29.8 C 0 km/h
1142 27-06-2010 12:22:01 29.7 C 6.27 g/m*3 29.7 C 0 km/h
1143 27-06-2010 12:34:01 30.7 C 6.3 g/m*3 30.7 C 0 km/h
1144 27-06-2010 12:46:02 31.3 C 6.5 g/m*3 31.3 C 0 km/h
1145 27-06-2010 12:58:02 31.4 C 6.54 g/m*3 31.4 C 0 km/h
1146 27-06-2010 13:10:02 31.4 C 6.54 g/m*3 31.4 C 0 km/h
1147 27-06-2010 13:22:02 32 C 6.75 g/m*3 32 C 0 km/h
1148 27-06-2010 13:34:03 32.4 C 6.9 g/m*3 32.4 C 0 km/h
1149 27-06-2010 13:46:02 32.2 C 6.82 g/m*3 32.2 C 0 km/h
1150 27-06-2010 13:58:02 31.5 C 6.57 g/m*3 31.5 C 0 km/h
Sensor: Nr:Datum:Temp:Abs-Feuchte:Windchill:Wind:
Aussen-T/F 1151 27-06-2010 14:10:02 31.4 C 6.54 g/m*3 31.4 C 0 km/h
1152 27-06-2010 14:22:01 31.3 C 6.5 g/m*3 31.3 C 0 km/h
1153 27-06-2010 14:34:02 31.3 C 6.5 g/m*3 31.3 C 0 km/h
1154 27-06-2010 14:46:02 31.3 C 6.5 g/m*3 31.3 C 0 km/h
1155 27-06-2010 14:58:02 31.4 C 6.54 g/m*3 31.4 C 0 km/h
1156 27-06-2010 15:10:02 32 C 6.75 g/m*3 32 C 0 km/h
1157 27-06-2010 15:22:01 32.4 C 6.9 g/m*3 32.4 C 0 km/h
1158 27-06-2010 15:34:02 32.5 C 6.93 g/m*3 32.5 C 0 km/h
1159 27-06-2010 15:46:02 32.7 C 7.01 g/m*3 32.7 C 0 km/h
1160 27-06-2010 15:58:02 32.6 C 6.97 g/m*3 32.6 C 0 km/h
1161 27-06-2010 16:10:02 33 C 7.12 g/m*3 33 C 0 km/h
1162 27-06-2010 16:22:02 32.8 C 7.04 g/m*3 32.8 C 0 km/h
1163 27-06-2010 16:34:02 33.1 C 7.16 g/m*3 33.1 C 0 km/h
1164 27-06-2010 16:46:02 33.3 C 7.23 g/m*3 33.3 C 0 km/h
1165 27-06-2010 16:58:02 33.3 C 7.23 g/m*3 33.3 C 0 km/h
1166 27-06-2010 17:10:02 33.5 C 7.31 g/m*3 33.5 C 0 km/h
1167 27-06-2010 17:22:02 32.8 C 7.04 g/m*3 32.8 C 0 km/h
1168 27-06-2010 17:34:02 33.4 C 7.27 g/m*3 33.4 C 0 km/h
1169 27-06-2010 17:46:02 33.1 C 7.16 g/m*3 33.1 C 0 km/h
1170 27-06-2010 17:58:02 33.5 C 7.31 g/m*3 33.5 C 0 km/h
1171 27-06-2010 18:10:02 33.6 C 7.35 g/m*3 33.6 C 0 km/h
1172 27-06-2010 18:22:02 33.8 C 7.43 g/m*3 33.8 C 0 km/h
1173 27-06-2010 18:34:02 33.6 C 7.35 g/m*3 33.6 C 0 km/h
1174 27-06-2010 18:46:02 33.7 C 7.39 g/m*3 33.7 C 0 km/h
1175 27-06-2010 18:58:02 33.9 C 7.46 g/m*3 33.9 C 0 km/h
Sensor: Nr:Datum:Temp:Abs-Feuchte:Windchill:Wind:
Aussen-T/F 1176 27-06-2010 19:10:02 33.8 C 7.43 g/m*3 33.8 C 0 km/h
1177 27-06-2010 19:22:02 33.5 C 7.31 g/m*3 33.5 C 0 km/h
1178 27-06-2010 19:34:02 33.4 C 7.27 g/m*3 33.4 C 0 km/h
1179 27-06-2010 19:46:02 33.3 C 7.23 g/m*3 33.3 C 0 km/h
1180 27-06-2010 19:58:02 32.9 C 7.08 g/m*3 32.9 C 0 km/h
1181 27-06-2010 20:10:02 32.6 C 6.97 g/m*3 32.6 C 0 km/h
1182 27-06-2010 20:22:02 31.9 C 6.72 g/m*3 31.9 C 0 km/h
1183 27-06-2010 20:34:02 31.5 C 6.57 g/m*3 31.5 C 0 km/h
1184 27-06-2010 20:46:02 31 C 6.4 g/m*3 31 C 0 km/h
1185 27-06-2010 20:58:02 30.3 C 6.47 g/m*3 30.3 C 0 km/h
1186 27-06-2010 21:10:02 29.2 C 6.97 g/m*3 29.2 C 0 km/h
1187 27-06-2010 21:22:02 27.6 C 7.18 g/m*3 27.6 C 0 km/h
1188 27-06-2010 21:34:02 26.6 C 7.05 g/m*3 26.6 C 0 km/h
1189 27-06-2010 21:46:01 25.9 C 7.51 g/m*3 25.9 C 0 km/h
1190 27-06-2010 21:58:01 25.3 C 7.26 g/m*3 25.3 C 0 km/h
1191 27-06-2010 22:10:01 24.8 C 7.28 g/m*3 24.8 C 0 km/h
1192 27-06-2010 22:22:01 24.3 C 7.3 g/m*3 24.3 C 0 km/h
1193 27-06-2010 22:34:02 24.3 C 7.52 g/m*3 24.3 C 0 km/h
1194 27-06-2010 22:46:02 23.9 C 7.57 g/m*3 23.9 C 0 km/h
1195 27-06-2010 22:58:02 23.7 C 7.7 g/m*3 23.7 C 0 km/h
1196 27-06-2010 23:11:02 23.5 C 8.04 g/m*3 23.5 C 0 km/h
1197 27-06-2010 23:23:02 23 C 7.6 g/m*3 23 C 0 km/h
1198 27-06-2010 23:35:02 22.5 C 7.99 g/m*3 22.5 C 0 km/h
1199 27-06-2010 23:47:02 22.3 C 8.1 g/m*3 22.3 C 0 km/h
1200 27-06-2010 23:59:02 22 C 7.96 g/m*3 22 C 0 km/h
Sensor: Nr:Datum:Temp:Abs-Feuchte:Windchill:Wind:
Aussen-T/F 1201 28-06-2010 00:11:02 21.6 C 8.35 g/m*3 21.6 C 0 km/h
1202 28-06-2010 00:23:02 21.3 C 8.2 g/m*3 21.3 C 0 km/h
1203 28-06-2010 00:35:03 21 C 8.06 g/m*3 21 C 0 km/h
1204 28-06-2010 00:47:03 20.8 C 8.15 g/m*3 20.8 C 0 km/h
1205 28-06-2010 00:59:03 20.3 C 8.27 g/m*3 20.3 C 0 km/h
1206 28-06-2010 01:11:03 20 C 7.95 g/m*3 20 C 0 km/h
1207 28-06-2010 01:23:03 20 C 8.3 g/m*3 20 C 0 km/h
1208 28-06-2010 01:35:03 19.9 C 8.25 g/m*3 19.9 C 0 km/h
1209 28-06-2010 01:47:03 19.6 C 8.1 g/m*3 19.6 C 0 km/h
1210 28-06-2010 01:59:03 19.4 C 8.34 g/m*3 19.4 C 0 km/h
1211 28-06-2010 02:11:03 18.9 C 8.59 g/m*3 18.9 C 0 km/h
1212 28-06-2010 02:23:03 18.9 C 8.59 g/m*3 18.9 C 0 km/h
1213 28-06-2010 02:35:03 18.8 C 8.7 g/m*3 18.8 C 0 km/h
1214 28-06-2010 02:47:03 18.5 C 8.7 g/m*3 18.5 C 0 km/h
1215 28-06-2010 02:59:03 18.4 C 8.65 g/m*3 18.4 C 0 km/h
1216 28-06-2010 03:11:03 18.1 C 8.65 g/m*3 18.1 C 0 km/h
1217 28-06-2010 03:23:03 17.9 C 8.7 g/m*3 17.9 C 0 km/h
1218 28-06-2010 03:35:03 17.8 C 8.8 g/m*3 17.8 C 0 km/h
1219 28-06-2010 03:47:03 17.6 C 8.85 g/m*3 17.6 C 0 km/h
1220 28-06-2010 03:59:03 17.5 C 8.8 g/m*3 17.5 C 0 km/h
1221 28-06-2010 04:11:03 17.1 C 8.88 g/m*3 17.1 C 0 km/h
1222 28-06-2010 04:23:03 17 C 8.97 g/m*3 17 C 0 km/h
1223 28-06-2010 04:35:04 16.8 C 9.01 g/m*3 16.8 C 0 km/h
1224 28-06-2010 04:47:04 16.6 C 9.18 g/m*3 16.6 C 0 km/h
1225 28-06-2010 04:59:04 16.4 C 9.07 g/m*3 16.4 C 0 km/h
Sensor: Nr:Datum:Temp:Abs-Feuchte:Windchill:Wind:
Aussen-T/F 1226 28-06-2010 05:11:04 16.3 C 9.16 g/m*3 16.3 C 0 km/h
1227 28-06-2010 05:23:04 16 C 9.26 g/m*3 16 C 0 km/h
1228 28-06-2010 05:35:04 16 C 9.26 g/m*3 16 C 0 km/h
1229 28-06-2010 05:47:04 16 C 9.13 g/m*3 16 C 0 km/h
1230 28-06-2010 05:59:04 16.2 C 9.24 g/m*3 16.2 C 0 km/h
1231 28-06-2010 06:11:04 16.2 C 9.38 g/m*3 16.2 C 0 km/h
1232 28-06-2010 06:23:04 16.4 C 9.49 g/m*3 16.4 C 0 km/h
1233 28-06-2010 06:35:04 16.5 C 9.41 g/m*3 16.5 C 0 km/h
1234 28-06-2010 06:47:04 16.6 C 9.61 g/m*3 16.6 C 0 km/h
1235 28-06-2010 06:59:04 16.4 C 9.49 g/m*3 16.4 C 0 km/h
1236 28-06-2010 07:11:02 16.2 C 9.52 g/m*3 16.2 C 0 km/h
1237 28-06-2010 07:23:02 16.4 C 9.63 g/m*3 16.4 C 0 km/h
1238 28-06-2010 07:35:02 16.8 C 9.87 g/m*3 16.8 C 0 km/h
1239 28-06-2010 07:47:03 17.4 C 9.78 g/m*3 17.4 C 0 km/h
1240 28-06-2010 07:59:03 17.2 C 9.67 g/m*3 17.2 C 0 km/h
1241 28-06-2010 08:11:02 17.5 C 9.69 g/m*3 17.5 C 0 km/h
1242 28-06-2010 08:23:02 17.9 C 9.77 g/m*3 17.9 C 0 km/h
1243 28-06-2010 08:35:02 18.1 C 9.58 g/m*3 18.1 C 0 km/h
1244 28-06-2010 08:47:02 18.5 C 9.49 g/m*3 18.5 C 0 km/h
1245 28-06-2010 08:59:02 19 C 9.45 g/m*3 19 C 0 km/h
1246 28-06-2010 09:11:02 19.7 C 9.51 g/m*3 19.7 C 0 km/h
1247 28-06-2010 09:23:02 20.4 C 9.73 g/m*3 20.4 C 0 km/h
1248 28-06-2010 09:35:01 21.1 C 9.58 g/m*3 21.1 C 0 km/h
1249 28-06-2010 09:47:02 22.1 C 9.76 g/m*3 22.1 C 0 km/h
1250 28-06-2010 09:59:02 22.9 C 9.81 g/m*3 22.9 C 0 km/h
Sensor: Nr:Datum:Temp:Abs-Feuchte:Windchill:Wind:
Aussen-T/F 1251 28-06-2010 10:11:01 23.7 C 9.84 g/m*3 23.7 C 0 km/h
1252 28-06-2010 10:23:01 24.1 C 9.19 g/m*3 24.1 C 0 km/h
1253 28-06-2010 10:35:02 25.5 C 9.71 g/m*3 25.5 C 0 km/h
1254 28-06-2010 10:47:01 26.3 C 9.41 g/m*3 26.3 C 0 km/h
1255 28-06-2010 10:59:01 26.7 C 10.12 g/m*3 26.7 C 0 km/h
1256 28-06-2010 11:11:02 27.5 C 9.52 g/m*3 27.5 C 0 km/h
1257 28-06-2010 11:23:02 28 C 10.06 g/m*3 28 C 0 km/h
1258 28-06-2010 11:35:01 29 C 8.62 g/m*3 29 C 0 km/h
1259 28-06-2010 11:47:02 29.8 C 8.1 g/m*3 29.8 C 0 km/h
1260 28-06-2010 11:59:02 30.5 C 7.79 g/m*3 30.5 C 0 km/h
1261 28-06-2010 12:11:01 30.9 C 7.64 g/m*3 30.9 C 0 km/h
1262 28-06-2010 12:23:02 31.4 C 7.19 g/m*3 31.4 C 0 km/h
1263 28-06-2010 12:35:01 31.7 C 6.64 g/m*3 31.7 C 0 km/h
1264 28-06-2010 12:47:03 32.1 C 6.79 g/m*3 32.1 C 0 km/h
1265 28-06-2010 12:59:03 32.4 C 6.9 g/m*3 32.4 C 0 km/h
1266 28-06-2010 13:11:02 32.6 C 6.97 g/m*3 32.6 C 0 km/h
1267 28-06-2010 13:23:03 33 C 7.12 g/m*3 33 C 0 km/h
1268 28-06-2010 13:35:03 33.2 C 7.2 g/m*3 33.2 C 0 km/h
1269 28-06-2010 13:47:02 33.3 C 7.23 g/m*3 33.3 C 0 km/h
1270 28-06-2010 13:59:03 33.3 C 7.23 g/m*3 33.3 C 0 km/h
1271 28-06-2010 14:11:02 32.6 C 6.97 g/m*3 32.6 C 0 km/h
1272 28-06-2010 14:23:02 32.5 C 6.93 g/m*3 32.5 C 0 km/h
1273 28-06-2010 14:35:03 32.1 C 6.79 g/m*3 32.1 C 0 km/h
1274 28-06-2010 14:47:02 32.5 C 6.93 g/m*3 32.5 C 0 km/h
1275 28-06-2010 14:59:02 32.9 C 7.08 g/m*3 32.9 C 0 km/h
Sensor: Nr:Datum:Temp:Abs-Feuchte:Windchill:Wind:
Aussen-T/F 1276 28-06-2010 15:11:02 33.4 C 7.27 g/m*3 33.4 C 0 km/h
1277 28-06-2010 15:23:02 32.1 C 6.79 g/m*3 32.1 C 0 km/h
1278 28-06-2010 15:35:02 31.9 C 6.72 g/m*3 31.9 C 0 km/h
1279 28-06-2010 15:47:01 32.4 C 6.9 g/m*3 32.4 C 0 km/h
1280 28-06-2010 15:59:01 32.3 C 6.86 g/m*3 32.3 C 0 km/h
1281 28-06-2010 16:11:02 32.4 C 6.9 g/m*3 32.4 C 0 km/h
1282 28-06-2010 16:23:01 32.7 C 7.01 g/m*3 32.7 C 0 km/h
1283 28-06-2010 16:35:02 33.2 C 7.2 g/m*3 33.2 C 0 km/h
1284 28-06-2010 16:47:01 32.1 C 6.79 g/m*3 32.1 C 0 km/h
1285 28-06-2010 16:59:01 33.3 C 7.23 g/m*3 33.3 C 0 km/h
1286 28-06-2010 17:11:02 33.6 C 7.35 g/m*3 33.6 C 0 km/h
1287 28-06-2010 17:23:01 34.2 C 7.58 g/m*3 34.2 C 0 km/h
1288 28-06-2010 17:35:02 32.5 C 6.93 g/m*3 32.5 C 0 km/h
1289 28-06-2010 17:47:01 32.7 C 7.01 g/m*3 32.7 C 0 km/h
1290 28-06-2010 17:59:01 32.9 C 7.08 g/m*3 32.9 C 0 km/h
1291 28-06-2010 18:11:02 33.3 C 7.23 g/m*3 33.3 C 0 km/h
1292 28-06-2010 18:23:02 33 C 7.12 g/m*3 33 C 0 km/h
1293 28-06-2010 18:35:02 32.7 C 7.01 g/m*3 32.7 C 0 km/h
1294 28-06-2010 18:47:02 32.6 C 6.97 g/m*3 32.6 C 0 km/h
1295 28-06-2010 18:59:02 32.4 C 6.9 g/m*3 32.4 C 0 km/h
1296 28-06-2010 19:11:02 31.6 C 6.61 g/m*3 31.6 C 0 km/h
1297 28-06-2010 19:23:02 31.7 C 6.64 g/m*3 31.7 C 0 km/h
1298 28-06-2010 19:35:01 31.9 C 6.72 g/m*3 31.9 C 0 km/h
1299 28-06-2010 19:47:02 31.5 C 6.57 g/m*3 31.5 C 0 km/h
1300 28-06-2010 19:59:02 31.3 C 6.5 g/m*3 31.3 C 0 km/h
Sensor: Nr:Datum:Temp:Abs-Feuchte:Windchill:Wind:
Aussen-T/F 1301 28-06-2010 20:11:01 31.2 C 6.47 g/m*3 31.2 C 0 km/h
1302 28-06-2010 20:23:02 31 C 6.72 g/m*3 31 C 0 km/h
1303 28-06-2010 20:35:01 30.6 C 7.2 g/m*3 30.6 C 0 km/h
1304 28-06-2010 20:47:02 30.1 C 7.01 g/m*3 30.1 C 0 km/h
1305 28-06-2010 20:59:02 29.5 C 6.79 g/m*3 29.5 C 0 km/h
1306 28-06-2010 21:11:01 28.9 C 7.14 g/m*3 28.9 C 0 km/h
1307 28-06-2010 21:23:01 28.2 C 7.15 g/m*3 28.2 C 0 km/h
1308 28-06-2010 21:35:02 27.5 C 7.14 g/m*3 27.5 C 0 km/h
1309 28-06-2010 21:47:02 27 C 7.21 g/m*3 27 C 0 km/h
1310 28-06-2010 21:59:02 26.6 C 7.3 g/m*3 26.6 C 0 km/h
1311 28-06-2010 22:11:02 26.5 C 7.26 g/m*3 26.5 C 0 km/h
1312 28-06-2010 22:24:04 26.3 C 7.43 g/m*3 26.3 C 0 km/h
1313 28-06-2010 22:36:04 26 C 7.55 g/m*3 26 C 0 km/h
1314 28-06-2010 22:48:05 25.8 C 7.94 g/m*3 25.8 C 0 km/h
1315 28-06-2010 23:00:05 25.4 C 8 g/m*3 25.4 C 0 km/h
1316 28-06-2010 23:12:05 25.3 C 8.19 g/m*3 25.3 C 0 km/h
1317 28-06-2010 23:24:05 25.1 C 8.33 g/m*3 25.1 C 0 km/h
1318 28-06-2010 23:36:05 24.7 C 8.37 g/m*3 24.7 C 0 km/h
1319 28-06-2010 23:48:05 24.4 C 8.46 g/m*3 24.4 C 0 km/h
1320 29-06-2010 00:00:05 24.1 C 8.75 g/m*3 24.1 C 0 km/h
1321 29-06-2010 00:12:05 23.7 C 8.56 g/m*3 23.7 C 0 km/h
1322 29-06-2010 00:24:05 23.7 C 8.98 g/m*3 23.7 C 0 km/h
1323 29-06-2010 00:36:05 23.3 C 8.57 g/m*3 23.3 C 0 km/h
1324 29-06-2010 00:48:05 23 C 8.84 g/m*3 23 C 0 km/h
1325 29-06-2010 01:00:05 22.7 C 9.09 g/m*3 22.7 C 0 km/h
Sensor: Nr:Datum:Temp:Abs-Feuchte:Windchill:Wind:
Aussen-T/F 1326 29-06-2010 01:12:05 22.5 C 8.99 g/m*3 22.5 C 0 km/h
1327 29-06-2010 01:24:05 22.4 C 8.94 g/m*3 22.4 C 0 km/h
1328 29-06-2010 01:36:05 21.8 C 9.02 g/m*3 21.8 C 0 km/h
1329 29-06-2010 01:48:05 21.5 C 9.05 g/m*3 21.5 C 0 km/h
1330 29-06-2010 02:00:05 21.3 C 9.32 g/m*3 21.3 C 0 km/h
1331 29-06-2010 02:12:05 21.1 C 9.21 g/m*3 21.1 C 0 km/h
1332 29-06-2010 02:24:05 21.1 C 9.21 g/m*3 21.1 C 0 km/h
1333 29-06-2010 02:36:05 21 C 9.34 g/m*3 21 C 0 km/h
1334 29-06-2010 02:48:05 21.1 C 9.4 g/m*3 21.1 C 0 km/h
1335 29-06-2010 03:00:06 21.2 C 9.45 g/m*3 21.2 C 0 km/h
1336 29-06-2010 03:12:06 20.8 C 9.6 g/m*3 20.8 C 0 km/h
1337 29-06-2010 03:24:06 20.6 C 9.49 g/m*3 20.6 C 0 km/h
1338 29-06-2010 03:36:06 20.3 C 9.5 g/m*3 20.3 C 0 km/h
1339 29-06-2010 03:48:06 20 C 9.51 g/m*3 20 C 0 km/h
1340 29-06-2010 04:00:06 20 C 9.51 g/m*3 20 C 0 km/h
1341 29-06-2010 04:12:06 19.7 C 9.68 g/m*3 19.7 C 0 km/h
1342 29-06-2010 04:24:06 19.4 C 9.84 g/m*3 19.4 C 0 km/h
1343 29-06-2010 04:36:06 19.3 C 9.79 g/m*3 19.3 C 0 km/h
1344 29-06-2010 04:48:06 19.2 C 9.89 g/m*3 19.2 C 0 km/h
1345 29-06-2010 05:00:06 19 C 9.94 g/m*3 19 C 0 km/h
1346 29-06-2010 05:12:06 18.9 C 10.21 g/m*3 18.9 C 0 km/h
1347 29-06-2010 05:24:06 18.7 C 10.25 g/m*3 18.7 C 0 km/h
1348 29-06-2010 05:36:06 18.5 C 10.28 g/m*3 18.5 C 0 km/h
1349 29-06-2010 05:48:06 18.4 C 10.38 g/m*3 18.4 C 0 km/h
1350 29-06-2010 06:00:06 18.3 C 10.32 g/m*3 18.3 C 0 km/h
Sensor: Nr:Datum:Temp:Abs-Feuchte:Windchill:Wind:
Aussen-T/F 1351 29-06-2010 06:12:06 18.3 C 10.48 g/m*3 18.3 C 0 km/h
1352 29-06-2010 06:24:04 18.3 C 10.32 g/m*3 18.3 C 0 km/h
1353 29-06-2010 06:36:04 18.4 C 10.54 g/m*3 18.4 C 0 km/h
1354 29-06-2010 06:48:02 18.5 C 10.6 g/m*3 18.5 C 0 km/h
1355 29-06-2010 07:00:02 18.5 C 10.6 g/m*3 18.5 C 0 km/h
1356 29-06-2010 07:12:02 18.7 C 10.73 g/m*3 18.7 C 0 km/h
1357 29-06-2010 07:24:02 18.9 C 10.69 g/m*3 18.9 C 0 km/h
1358 29-06-2010 07:36:01 19.1 C 10.49 g/m*3 19.1 C 0 km/h
1359 29-06-2010 07:48:02 19.2 C 10.72 g/m*3 19.2 C 0 km/h
1360 29-06-2010 08:00:02 19.3 C 10.62 g/m*3 19.3 C 0 km/h
1361 29-06-2010 08:12:01 19.6 C 10.8 g/m*3 19.6 C 0 km/h
1362 29-06-2010 08:24:01 19.9 C 10.82 g/m*3 19.9 C 0 km/h
1363 29-06-2010 08:36:02 20.4 C 10.26 g/m*3 20.4 C 0 km/h
1364 29-06-2010 08:48:02 20.9 C 10.02 g/m*3 20.9 C 0 km/h
1365 29-06-2010 09:00:02 21.4 C 10.12 g/m*3 21.4 C 0 km/h
1366 29-06-2010 09:12:02 21.9 C 10.23 g/m*3 21.9 C 0 km/h
1367 29-06-2010 09:24:02 22.5 C 9.99 g/m*3 22.5 C 0 km/h
1368 29-06-2010 09:36:02 23.2 C 9.98 g/m*3 23.2 C 0 km/h
1369 29-06-2010 09:48:01 24.1 C 10.06 g/m*3 24.1 C 0 km/h
1370 29-06-2010 10:00:01 24.5 C 9.85 g/m*3 24.5 C 0 km/h
1371 29-06-2010 10:12:02 25 C 9.67 g/m*3 25 C 0 km/h
1372 29-06-2010 10:24:01 25.9 C 9.93 g/m*3 25.9 C 0 km/h
1373 29-06-2010 10:36:01 26.5 C 9.51 g/m*3 26.5 C 0 km/h
1374 29-06-2010 10:48:01 27.3 C 9.94 g/m*3 27.3 C 0 km/h
1375 29-06-2010 11:00:01 27.4 C 9.74 g/m*3 27.4 C 0 km/h
Sensor: Nr:Datum:Temp:Abs-Feuchte:Windchill:Wind:
Aussen-T/F 1376 29-06-2010 11:12:02 28.2 C 9.9 g/m*3 28.2 C 0 km/h
1377 29-06-2010 11:24:01 28.3 C 9.4 g/m*3 28.3 C 0 km/h
1378 29-06-2010 11:36:02 28.8 C 9.09 g/m*3 28.8 C 0 km/h
1379 29-06-2010 11:48:01 29.8 C 9.9 g/m*3 29.8 C 0 km/h
1380 29-06-2010 12:00:01 30.4 C 8.99 g/m*3 30.4 C 0 km/h
1381 29-06-2010 12:12:02 31 C 8.64 g/m*3 31 C 0 km/h
1382 29-06-2010 12:24:02 31.5 C 7.89 g/m*3 31.5 C 0 km/h
1383 29-06-2010 12:36:01 31.9 C 7.39 g/m*3 31.9 C 0 km/h
1384 29-06-2010 12:48:01 32.4 C 6.9 g/m*3 32.4 C 0 km/h
1385 29-06-2010 13:00:01 31.9 C 6.72 g/m*3 31.9 C 0 km/h
1386 29-06-2010 13:12:02 32.5 C 6.93 g/m*3 32.5 C 0 km/h
1387 29-06-2010 13:24:02 33.1 C 7.16 g/m*3 33.1 C 0 km/h
1388 29-06-2010 13:36:01 33.4 C 7.27 g/m*3 33.4 C 0 km/h
1389 29-06-2010 13:48:02 32.3 C 6.86 g/m*3 32.3 C 0 km/h
1390 29-06-2010 14:00:02 32.8 C 7.04 g/m*3 32.8 C 0 km/h
1391 29-06-2010 14:12:01 31.4 C 6.54 g/m*3 31.4 C 0 km/h
1392 29-06-2010 14:24:02 31.4 C 6.54 g/m*3 31.4 C 0 km/h
1393 29-06-2010 14:36:01 31.2 C 6.47 g/m*3 31.2 C 0 km/h
1394 29-06-2010 14:48:02 30.9 C 6.68 g/m*3 30.9 C 0 km/h
1395 29-06-2010 15:00:02 30.6 C 7.2 g/m*3 30.6 C 0 km/h
1396 29-06-2010 15:12:02 29.5 C 7.38 g/m*3 29.5 C 0 km/h
1397 29-06-2010 15:24:02 28.7 C 8.19 g/m*3 28.7 C 0 km/h
1398 29-06-2010 15:36:02 27.6 C 8.25 g/m*3 27.6 C 0 km/h
1399 29-06-2010 15:48:02 26.6 C 8.56 g/m*3 26.6 C 0 km/h
1400 29-06-2010 16:00:03 26.4 C 8.96 g/m*3 26.4 C 0 km/h
Sensor: Nr:Datum:Temp:Abs-Feuchte:Windchill:Wind:
Aussen-T/F 1401 29-06-2010 16:12:01 26.1 C 11.26 g/m*3 26.1 C 0 km/h
1402 29-06-2010 16:24:02 25.1 C 12.96 g/m*3 25.1 C 0 km/h
1403 29-06-2010 16:36:02 27.9 C 11.36 g/m*3 27.9 C 0 km/h
1404 29-06-2010 16:48:01 29.8 C 10.2 g/m*3 29.8 C 0 km/h
1405 29-06-2010 17:00:01 29.7 C 10.14 g/m*3 29.7 C 0 km/h
1406 29-06-2010 17:12:02 29.1 C 10.11 g/m*3 29.1 C 0 km/h
1407 29-06-2010 17:24:01 29 C 9.77 g/m*3 29 C 0 km/h
1408 29-06-2010 17:36:02 29.5 C 9.74 g/m*3 29.5 C 0 km/h
1409 29-06-2010 17:48:02 30.4 C 8.99 g/m*3 30.4 C 0 km/h
1410 29-06-2010 18:00:02 29.9 C 8.45 g/m*3 29.9 C 0 km/h
1411 29-06-2010 18:12:02 28.6 C 8.43 g/m*3 28.6 C 0 km/h
1412 29-06-2010 18:24:01 28.9 C 8.86 g/m*3 28.9 C 0 km/h
1413 29-06-2010 18:36:02 29.3 C 8.76 g/m*3 29.3 C 0 km/h
1414 29-06-2010 18:48:02 28.8 C 8.52 g/m*3 28.8 C 0 km/h
1415 29-06-2010 19:00:02 28.8 C 8.81 g/m*3 28.8 C 0 km/h
1416 29-06-2010 19:12:02 29.4 C 8.81 g/m*3 29.4 C 0 km/h
1417 29-06-2010 19:24:01 29.5 C 8.56 g/m*3 29.5 C 0 km/h
1418 29-06-2010 19:36:02 28.8 C 8.52 g/m*3 28.8 C 0 km/h
1419 29-06-2010 19:48:02 28.3 C 8.29 g/m*3 28.3 C 0 km/h
1420 29-06-2010 20:00:02 27.5 C 8.47 g/m*3 27.5 C 0 km/h
1421 29-06-2010 20:12:02 27.7 C 8.56 g/m*3 27.7 C 0 km/h
1422 29-06-2010 20:24:02 28 C 8.43 g/m*3 28 C 0 km/h
1423 29-06-2010 20:36:02 27.7 C 8.56 g/m*3 27.7 C 0 km/h
1424 29-06-2010 20:48:01 27.5 C 9 g/m*3 27.5 C 0 km/h
1425 29-06-2010 21:00:01 27.2 C 9.11 g/m*3 27.2 C 0 km/h
Sensor: Nr:Datum:Temp:Abs-Feuchte:Windchill:Wind:
Aussen-T/F 1426 29-06-2010 21:12:02 26.1 C 9.3 g/m*3 26.1 C 0 km/h
1427 29-06-2010 21:24:02 25.3 C 9.36 g/m*3 25.3 C 0 km/h
1428 29-06-2010 21:36:02 24.5 C 9.62 g/m*3 24.5 C 0 km/h
1429 29-06-2010 21:48:02 23.8 C 9.9 g/m*3 23.8 C 0 km/h
1430 29-06-2010 22:00:02 23.4 C 9.88 g/m*3 23.4 C 0 km/h
1431 29-06-2010 22:12:01 23.3 C 9.83 g/m*3 23.3 C 0 km/h
1432 29-06-2010 22:24:01 23.1 C 9.72 g/m*3 23.1 C 0 km/h
1433 29-06-2010 22:37:02 22.7 C 9.9 g/m*3 22.7 C 0 km/h
1434 29-06-2010 22:49:02 22.5 C 9.99 g/m*3 22.5 C 0 km/h
1435 29-06-2010 23:01:02 22.4 C 10.13 g/m*3 22.4 C 0 km/h
1436 29-06-2010 23:13:02 22.1 C 9.96 g/m*3 22.1 C 0 km/h
1437 29-06-2010 23:25:02 21.9 C 10.23 g/m*3 21.9 C 0 km/h
1438 29-06-2010 23:37:02 21.6 C 10.43 g/m*3 21.6 C 0 km/h
1439 29-06-2010 23:49:02 21.3 C 10.25 g/m*3 21.3 C 0 km/h
1440 30-06-2010 00:01:02 21.1 C 10.32 g/m*3 21.1 C 0 km/h
1441 30-06-2010 00:13:02 20.9 C 10.38 g/m*3 20.9 C 0 km/h
1442 30-06-2010 00:25:03 20.6 C 10.56 g/m*3 20.6 C 0 km/h
1443 30-06-2010 00:37:03 20.3 C 10.55 g/m*3 20.3 C 0 km/h
1444 30-06-2010 00:49:03 20.1 C 10.6 g/m*3 20.1 C 0 km/h
1445 30-06-2010 01:01:03 19.9 C 10.82 g/m*3 19.9 C 0 km/h
1446 30-06-2010 01:13:03 19.7 C 10.87 g/m*3 19.7 C 0 km/h
1447 30-06-2010 01:25:03 19.5 C 10.91 g/m*3 19.5 C 0 km/h
1448 30-06-2010 01:37:03 19.3 C 10.78 g/m*3 19.3 C 0 km/h
1449 30-06-2010 01:49:03 19.1 C 10.66 g/m*3 19.1 C 0 km/h
1450 30-06-2010 02:01:03 18.9 C 10.85 g/m*3 18.9 C 0 km/h
Sensor: Nr:Datum:Temp:Abs-Feuchte:Windchill:Wind:
Aussen-T/F 1451 30-06-2010 02:13:03 18.7 C 10.89 g/m*3 18.7 C 0 km/h
1452 30-06-2010 02:25:03 18.5 C 10.92 g/m*3 18.5 C 0 km/h
1453 30-06-2010 02:37:03 18.4 C 11.01 g/m*3 18.4 C 0 km/h
1454 30-06-2010 02:49:03 18.2 C 11.04 g/m*3 18.2 C 0 km/h
1455 30-06-2010 03:01:03 18.1 C 10.97 g/m*3 18.1 C 0 km/h
1456 30-06-2010 03:13:03 17.9 C 11.15 g/m*3 17.9 C 0 km/h
1457 30-06-2010 03:25:03 17.7 C 11.16 g/m*3 17.7 C 0 km/h
1458 30-06-2010 03:37:03 17.6 C 11.1 g/m*3 17.6 C 0 km/h
1459 30-06-2010 03:49:03 17.5 C 11.18 g/m*3 17.5 C 0 km/h
1460 30-06-2010 04:01:03 17.2 C 11.13 g/m*3 17.2 C 0 km/h
1461 30-06-2010 04:13:03 17.1 C 10.92 g/m*3 17.1 C 0 km/h
1462 30-06-2010 04:25:03 17 C 11 g/m*3 17 C 0 km/h
1463 30-06-2010 04:37:03 16.8 C 11.01 g/m*3 16.8 C 0 km/h
1464 30-06-2010 04:49:04 16.7 C 11.08 g/m*3 16.7 C 0 km/h
1465 30-06-2010 05:01:04 16.5 C 11.09 g/m*3 16.5 C 0 km/h
1466 30-06-2010 05:13:04 16.3 C 10.96 g/m*3 16.3 C 0 km/h
1467 30-06-2010 05:25:04 16.3 C 10.96 g/m*3 16.3 C 0 km/h
1468 30-06-2010 05:37:04 16.3 C 10.96 g/m*3 16.3 C 0 km/h
1469 30-06-2010 05:49:04 16.2 C 10.76 g/m*3 16.2 C 0 km/h
1470 30-06-2010 06:01:04 16.1 C 10.83 g/m*3 16.1 C 0 km/h
1471 30-06-2010 06:13:04 16.1 C 10.83 g/m*3 16.1 C 0 km/h
1472 30-06-2010 06:25:04 16.1 C 10.69 g/m*3 16.1 C 0 km/h
1473 30-06-2010 06:37:04 16.2 C 10.76 g/m*3 16.2 C 0 km/h
1474 30-06-2010 06:49:03 16.4 C 10.89 g/m*3 16.4 C 0 km/h
1475 30-06-2010 07:01:02 16.8 C 11.01 g/m*3 16.8 C 0 km/h
Sensor: Nr:Datum:Temp:Abs-Feuchte:Windchill:Wind:
Aussen-T/F 1476 30-06-2010 07:13:02 17.2 C 10.84 g/m*3 17.2 C 0 km/h
1477 30-06-2010 07:25:03 17.3 C 10.61 g/m*3 17.3 C 0 km/h
1478 30-06-2010 07:37:02 17.5 C 10.73 g/m*3 17.5 C 0 km/h
1479 30-06-2010 07:49:01 17.8 C 10.62 g/m*3 17.8 C 0 km/h
1480 30-06-2010 08:01:02 17.9 C 10.54 g/m*3 17.9 C 0 km/h
1481 30-06-2010 08:13:02 17.9 C 10.99 g/m*3 17.9 C 0 km/h
1482 30-06-2010 08:25:02 18.1 C 11.12 g/m*3 18.1 C 0 km/h
1483 30-06-2010 08:37:02 18.5 C 11.08 g/m*3 18.5 C 0 km/h
1484 30-06-2010 08:49:02 19 C 10.92 g/m*3 19 C 0 km/h
1485 30-06-2010 09:01:01 19.4 C 11.01 g/m*3 19.4 C 0 km/h
1486 30-06-2010 09:13:01 20 C 10.37 g/m*3 20 C 0 km/h
1487 30-06-2010 09:25:02 20.3 C 9.67 g/m*3 20.3 C 0 km/h
1488 30-06-2010 09:37:01 21.2 C 9.08 g/m*3 21.2 C 0 km/h
1489 30-06-2010 09:49:02 21.6 C 9.29 g/m*3 21.6 C 0 km/h
1490 30-06-2010 10:01:02 22.4 C 9.33 g/m*3 22.4 C 0 km/h
1491 30-06-2010 10:13:02 23 C 9.45 g/m*3 23 C 0 km/h
1492 30-06-2010 10:25:02 23.7 C 9.63 g/m*3 23.7 C 0 km/h
1493 30-06-2010 10:37:02 24.1 C 9.41 g/m*3 24.1 C 0 km/h
1494 30-06-2010 10:49:02 24.8 C 8.65 g/m*3 24.8 C 0 km/h
1495 30-06-2010 11:01:02 25.7 C 8.62 g/m*3 25.7 C 0 km/h
1496 30-06-2010 11:13:02 26.1 C 8.57 g/m*3 26.1 C 0 km/h
1497 30-06-2010 11:25:01 26.6 C 8.31 g/m*3 26.6 C 0 km/h
1498 30-06-2010 11:37:02 27.8 C 8.88 g/m*3 27.8 C 0 km/h
1499 30-06-2010 11:49:02 28.3 C 8.02 g/m*3 28.3 C 0 km/h
1500 30-06-2010 12:01:02 27.8 C 6.72 g/m*3 27.8 C 0 km/h
Sensor: Nr:Datum:Temp:Abs-Feuchte:Windchill:Wind:
Aussen-T/F 1501 30-06-2010 12:13:02 28 C 6.53 g/m*3 28 C 0 km/h
1502 30-06-2010 12:25:02 29.4 C 6.75 g/m*3 29.4 C 0 km/h
1503 30-06-2010 12:37:02 30.3 C 6.47 g/m*3 30.3 C 0 km/h
1504 30-06-2010 12:49:02 30.7 C 6.3 g/m*3 30.7 C 0 km/h
1505 30-06-2010 13:01:02 30.8 C 6.33 g/m*3 30.8 C 0 km/h
1506 30-06-2010 13:13:02 31.5 C 6.57 g/m*3 31.5 C 0 km/h
1507 30-06-2010 13:25:02 32 C 6.75 g/m*3 32 C 0 km/h
1508 30-06-2010 13:37:02 32.4 C 6.9 g/m*3 32.4 C 0 km/h
1509 30-06-2010 13:49:02 32.5 C 6.93 g/m*3 32.5 C 0 km/h
1510 30-06-2010 14:01:02 32.1 C 6.79 g/m*3 32.1 C 0 km/h
1511 30-06-2010 14:13:02 31.4 C 6.54 g/m*3 31.4 C 0 km/h
1512 30-06-2010 14:25:02 31.5 C 6.57 g/m*3 31.5 C 0 km/h
1513 30-06-2010 14:37:02 32.1 C 6.79 g/m*3 32.1 C 0 km/h
1514 30-06-2010 14:49:02 31.8 C 6.68 g/m*3 31.8 C 0 km/h
1515 30-06-2010 15:01:02 32 C 6.75 g/m*3 32 C 0 km/h
1516 30-06-2010 15:13:02 32.5 C 6.93 g/m*3 32.5 C 0 km/h
1517 30-06-2010 15:25:03 32.4 C 6.9 g/m*3 32.4 C 0 km/h
1518 30-06-2010 15:37:02 32.5 C 6.93 g/m*3 32.5 C 0 km/h
1519 30-06-2010 15:49:03 32.3 C 6.86 g/m*3 32.3 C 0 km/h
1520 30-06-2010 16:01:02 32.1 C 6.79 g/m*3 32.1 C 0 km/h
1521 30-06-2010 16:13:02 31.7 C 6.64 g/m*3 31.7 C 0 km/h
1522 30-06-2010 16:25:02 32.5 C 6.93 g/m*3 32.5 C 0 km/h
1523 30-06-2010 16:37:02 33 C 7.12 g/m*3 33 C 0 km/h
1524 30-06-2010 16:49:02 32.5 C 6.93 g/m*3 32.5 C 0 km/h
1525 30-06-2010 17:01:02 32.4 C 6.9 g/m*3 32.4 C 0 km/h
Sensor: Nr:Datum:Temp:Abs-Feuchte:Windchill:Wind:
Aussen-T/F 1526 30-06-2010 17:13:02 32.6 C 6.97 g/m*3 32.6 C 0 km/h
1527 30-06-2010 17:25:02 32.5 C 6.93 g/m*3 32.5 C 0 km/h
1528 30-06-2010 17:37:02 32 C 6.75 g/m*3 32 C 0 km/h
1529 30-06-2010 17:49:02 32.2 C 6.82 g/m*3 32.2 C 0 km/h
1530 30-06-2010 18:01:02 32.3 C 6.86 g/m*3 32.3 C 0 km/h
1531 30-06-2010 18:13:02 33.1 C 7.16 g/m*3 33.1 C 0 km/h
1532 30-06-2010 18:25:02 32.6 C 6.97 g/m*3 32.6 C 0 km/h
1533 30-06-2010 18:37:02 31.9 C 6.72 g/m*3 31.9 C 0 km/h
1534 30-06-2010 18:49:02 31.7 C 6.64 g/m*3 31.7 C 0 km/h
1535 30-06-2010 19:01:01 31.7 C 6.64 g/m*3 31.7 C 0 km/h
1536 30-06-2010 19:13:01 31.5 C 6.57 g/m*3 31.5 C 0 km/h
1537 30-06-2010 19:25:02 31.2 C 7.12 g/m*3 31.2 C 0 km/h
1538 30-06-2010 19:37:01 30.7 C 6.61 g/m*3 30.7 C 0 km/h
1539 30-06-2010 19:49:02 30.3 C 7.7 g/m*3 30.3 C 0 km/h
1540 30-06-2010 20:01:01 30.4 C 7.75 g/m*3 30.4 C 0 km/h
1541 30-06-2010 20:13:01 30.4 C 8.06 g/m*3 30.4 C 0 km/h
1542 30-06-2010 20:25:01 30.1 C 7.93 g/m*3 30.1 C 0 km/h
1543 30-06-2010 20:37:02 29.3 C 8.17 g/m*3 29.3 C 0 km/h
1544 30-06-2010 20:49:02 28.5 C 7.83 g/m*3 28.5 C 0 km/h
1545 30-06-2010 21:01:02 27.5 C 7.67 g/m*3 27.5 C 0 km/h
1546 30-06-2010 21:13:02 26.9 C 7.93 g/m*3 26.9 C 0 km/h
1547 30-06-2010 21:25:02 26.5 C 7.76 g/m*3 26.5 C 0 km/h
1548 30-06-2010 21:37:02 26 C 7.79 g/m*3 26 C 0 km/h
1549 30-06-2010 21:49:02 25.8 C 7.94 g/m*3 25.8 C 0 km/h
1550 30-06-2010 22:01:01 25.6 C 8.09 g/m*3 25.6 C 0 km/h
Sensor: Nr:Datum:Temp:Abs-Feuchte:Windchill:Wind:
Aussen-T/F 1551 30-06-2010 22:13:01 25.1 C 7.87 g/m*3 25.1 C 0 km/h
1552 30-06-2010 22:25:02 24.8 C 7.97 g/m*3 24.8 C 0 km/h
1553 30-06-2010 22:38:03 24.6 C 8.1 g/m*3 24.6 C 0 km/h
1554 30-06-2010 22:50:03 24.8 C 8.42 g/m*3 24.8 C 0 km/h
1555 30-06-2010 23:02:04 24.5 C 8.5 g/m*3 24.5 C 0 km/h
1556 30-06-2010 23:14:04 24 C 8.49 g/m*3 24 C 0 km/h
1557 30-06-2010 23:26:04 23.7 C 8.56 g/m*3 23.7 C 0 km/h
1558 30-06-2010 23:38:04 23.6 C 8.72 g/m*3 23.6 C 0 km/h
1559 30-06-2010 23:50:04 23.2 C 8.52 g/m*3 23.2 C 0 km/h
1560 01-07-2010 00:02:04 22.9 C 8.58 g/m*3 22.9 C 0 km/h
1561 01-07-2010 00:14:04 22.7 C 8.49 g/m*3 22.7 C 0 km/h
1562 01-07-2010 00:26:04 22.4 C 8.94 g/m*3 22.4 C 0 km/h
1563 01-07-2010 00:38:04 22.2 C 8.44 g/m*3 22.2 C 0 km/h
1564 01-07-2010 00:50:04 21.9 C 9.07 g/m*3 21.9 C 0 km/h
1565 01-07-2010 01:02:04 21.6 C 8.91 g/m*3 21.6 C 0 km/h
1566 01-07-2010 01:14:04 21.4 C 8.81 g/m*3 21.4 C 0 km/h
1567 01-07-2010 01:26:04 21.2 C 9.08 g/m*3 21.2 C 0 km/h
1568 01-07-2010 01:38:04 20.9 C 9.29 g/m*3 20.9 C 0 km/h
1569 01-07-2010 01:50:04 20.7 C 9.36 g/m*3 20.7 C 0 km/h
1570 01-07-2010 02:02:04 20.4 C 9.2 g/m*3 20.4 C 0 km/h
1571 01-07-2010 02:14:04 20.2 C 9.44 g/m*3 20.2 C 0 km/h
1572 01-07-2010 02:26:04 20.1 C 9.39 g/m*3 20.1 C 0 km/h
1573 01-07-2010 02:38:04 19.8 C 9.74 g/m*3 19.8 C 0 km/h
1574 01-07-2010 02:50:04 19.5 C 9.73 g/m*3 19.5 C 0 km/h
1575 01-07-2010 03:02:04 19.4 C 9.84 g/m*3 19.4 C 0 km/h
Sensor: Nr:Datum:Temp:Abs-Feuchte:Windchill:Wind:
Aussen-T/F 1576 01-07-2010 03:14:05 19.2 C 9.73 g/m*3 19.2 C 0 km/h
1577 01-07-2010 03:26:05 19 C 9.78 g/m*3 19 C 0 km/h
1578 01-07-2010 03:38:05 18.9 C 9.88 g/m*3 18.9 C 0 km/h
1579 01-07-2010 03:50:05 18.8 C 9.99 g/m*3 18.8 C 0 km/h
1580 01-07-2010 04:02:05 18.7 C 9.93 g/m*3 18.7 C 0 km/h
1581 01-07-2010 04:14:05 18.4 C 9.75 g/m*3 18.4 C 0 km/h
1582 01-07-2010 04:26:05 18.3 C 9.85 g/m*3 18.3 C 0 km/h
1583 01-07-2010 04:38:05 18.1 C 9.89 g/m*3 18.1 C 0 km/h
1584 01-07-2010 04:50:05 18 C 9.83 g/m*3 18 C 0 km/h
1585 01-07-2010 05:02:05 17.8 C 10.02 g/m*3 17.8 C 0 km/h
1586 01-07-2010 05:14:05 17.6 C 10.2 g/m*3 17.6 C 0 km/h
1587 01-07-2010 05:26:05 17.3 C 10.16 g/m*3 17.3 C 0 km/h
1588 01-07-2010 05:38:05 17.1 C 10.19 g/m*3 17.1 C 0 km/h
1589 01-07-2010 05:50:05 17 C 10.27 g/m*3 17 C 0 km/h
1590 01-07-2010 06:02:05 16.8 C 10.44 g/m*3 16.8 C 0 km/h
1591 01-07-2010 06:14:05 16.9 C 10.36 g/m*3 16.9 C 0 km/h
1592 01-07-2010 06:26:05 17.1 C 10.34 g/m*3 17.1 C 0 km/h
1593 01-07-2010 06:38:05 17.3 C 10.46 g/m*3 17.3 C 0 km/h
1594 01-07-2010 06:50:02 17.5 C 10.44 g/m*3 17.5 C 0 km/h
1595 01-07-2010 07:02:01 17.5 C 10.44 g/m*3 17.5 C 0 km/h
1596 01-07-2010 07:14:01 17.7 C 10.41 g/m*3 17.7 C 0 km/h
1597 01-07-2010 07:26:02 17.7 C 10.26 g/m*3 17.7 C 0 km/h
1598 01-07-2010 07:38:02 17.7 C 10.41 g/m*3 17.7 C 0 km/h
1599 01-07-2010 07:50:02 17.8 C 10.62 g/m*3 17.8 C 0 km/h
1600 01-07-2010 08:02:02 18.1 C 10.51 g/m*3 18.1 C 0 km/h
Sensor: Nr:Datum:Temp:Abs-Feuchte:Windchill:Wind:
Aussen-T/F 1601 01-07-2010 08:14:02 18.5 C 10.76 g/m*3 18.5 C 0 km/h
1602 01-07-2010 08:26:02 18.8 C 10.47 g/m*3 18.8 C 0 km/h
1603 01-07-2010 08:38:02 19.1 C 10.33 g/m*3 19.1 C 0 km/h
1604 01-07-2010 08:50:02 19.6 C 10.64 g/m*3 19.6 C 0 km/h
1605 01-07-2010 09:02:02 20.4 C 10.61 g/m*3 20.4 C 0 km/h
1606 01-07-2010 09:14:03 20.9 C 10.38 g/m*3 20.9 C 0 km/h
1607 01-07-2010 09:26:02 21.6 C 10.43 g/m*3 21.6 C 0 km/h
1608 01-07-2010 09:38:02 22.6 C 10.45 g/m*3 22.6 C 0 km/h
1609 01-07-2010 09:50:01 23.5 C 10.36 g/m*3 23.5 C 0 km/h
1610 01-07-2010 10:02:01 24.3 C 10.18 g/m*3 24.3 C 0 km/h
1611 01-07-2010 10:14:01 24.8 C 10.02 g/m*3 24.8 C 0 km/h
1612 01-07-2010 10:26:02 25.9 C 10.41 g/m*3 25.9 C 0 km/h
1613 01-07-2010 10:38:01 26.6 C 10.07 g/m*3 26.6 C 0 km/h
1614 01-07-2010 10:50:03 27.5 C 10.32 g/m*3 27.5 C 0 km/h
1615 01-07-2010 11:02:02 27.7 C 10.16 g/m*3 27.7 C 0 km/h
1616 01-07-2010 11:14:02 28.4 C 9.73 g/m*3 28.4 C 0 km/h
1617 01-07-2010 11:26:02 28.6 C 8.71 g/m*3 28.6 C 0 km/h
1618 01-07-2010 11:38:02 28.9 C 8.57 g/m*3 28.9 C 0 km/h
1619 01-07-2010 11:50:02 29.8 C 8.7 g/m*3 29.8 C 0 km/h
1620 01-07-2010 12:02:02 30.1 C 7.93 g/m*3 30.1 C 0 km/h
1621 01-07-2010 12:14:02 30.7 C 7.24 g/m*3 30.7 C 0 km/h
1622 01-07-2010 12:26:02 31.4 C 6.54 g/m*3 31.4 C 0 km/h
1623 01-07-2010 12:38:02 31.4 C 6.54 g/m*3 31.4 C 0 km/h
1624 01-07-2010 12:50:02 31.9 C 6.72 g/m*3 31.9 C 0 km/h
1625 01-07-2010 13:02:01 32.7 C 7.01 g/m*3 32.7 C 0 km/h
Sensor: Nr:Datum:Temp:Abs-Feuchte:Windchill:Wind:
Aussen-T/F 1626 01-07-2010 13:14:01 33 C 7.12 g/m*3 33 C 0 km/h
1627 01-07-2010 13:26:01 32.6 C 6.97 g/m*3 32.6 C 0 km/h
1628 01-07-2010 13:38:02 33 C 7.12 g/m*3 33 C 0 km/h
1629 01-07-2010 13:50:02 32.7 C 7.01 g/m*3 32.7 C 0 km/h
1630 01-07-2010 14:02:02 32.7 C 7.01 g/m*3 32.7 C 0 km/h
1631 01-07-2010 14:14:02 32.5 C 6.93 g/m*3 32.5 C 0 km/h
1632 01-07-2010 14:26:02 32.1 C 6.79 g/m*3 32.1 C 0 km/h
1633 01-07-2010 14:38:02 31.9 C 6.72 g/m*3 31.9 C 0 km/h
1634 01-07-2010 14:50:02 31.9 C 6.72 g/m*3 31.9 C 0 km/h
1635 01-07-2010 15:02:02 32.5 C 6.93 g/m*3 32.5 C 0 km/h
1636 01-07-2010 15:14:03 33.1 C 7.16 g/m*3 33.1 C 0 km/h
1637 01-07-2010 15:26:02 32.7 C 7.01 g/m*3 32.7 C 0 km/h
1638 01-07-2010 15:38:02 33 C 7.12 g/m*3 33 C 0 km/h
1639 01-07-2010 15:50:02 33.1 C 7.16 g/m*3 33.1 C 0 km/h
1640 01-07-2010 16:02:02 33.1 C 7.16 g/m*3 33.1 C 0 km/h
1641 01-07-2010 16:14:02 33 C 7.12 g/m*3 33 C 0 km/h
1642 01-07-2010 16:26:03 33.3 C 7.23 g/m*3 33.3 C 0 km/h
1643 01-07-2010 16:38:02 33.3 C 7.23 g/m*3 33.3 C 0 km/h
1644 01-07-2010 16:50:02 33.3 C 7.23 g/m*3 33.3 C 0 km/h
1645 01-07-2010 17:02:02 33.5 C 7.31 g/m*3 33.5 C 0 km/h
1646 01-07-2010 17:14:02 33.6 C 7.35 g/m*3 33.6 C 0 km/h
1647 01-07-2010 17:26:02 33.1 C 7.16 g/m*3 33.1 C 0 km/h
1648 01-07-2010 17:38:02 33 C 7.12 g/m*3 33 C 0 km/h
1649 01-07-2010 17:50:02 33.3 C 7.23 g/m*3 33.3 C 0 km/h
1650 01-07-2010 18:02:02 33.7 C 7.39 g/m*3 33.7 C 0 km/h
Sensor: Nr:Datum:Temp:Abs-Feuchte:Windchill:Wind:
Aussen-T/F 1651 01-07-2010 18:14:02 34.1 C 7.54 g/m*3 34.1 C 0 km/h
1652 01-07-2010 18:26:02 33.9 C 7.46 g/m*3 33.9 C 0 km/h
1653 01-07-2010 18:38:01 33.8 C 7.43 g/m*3 33.8 C 0 km/h
1654 01-07-2010 18:50:02 33.8 C 7.43 g/m*3 33.8 C 0 km/h
1655 01-07-2010 19:02:01 33.7 C 7.39 g/m*3 33.7 C 0 km/h
1656 01-07-2010 19:14:01 33.4 C 7.27 g/m*3 33.4 C 0 km/h
1657 01-07-2010 19:26:02 33.6 C 7.35 g/m*3 33.6 C 0 km/h
1658 01-07-2010 19:38:02 33.3 C 7.23 g/m*3 33.3 C 0 km/h
1659 01-07-2010 19:50:02 33.3 C 7.23 g/m*3 33.3 C 0 km/h
1660 01-07-2010 20:02:03 33.1 C 7.16 g/m*3 33.1 C 0 km/h
1661 01-07-2010 20:14:03 32.6 C 6.97 g/m*3 32.6 C 0 km/h
1662 01-07-2010 20:26:02 31.9 C 7.72 g/m*3 31.9 C 0 km/h
1663 01-07-2010 20:38:02 30.6 C 8.14 g/m*3 30.6 C 0 km/h
1664 01-07-2010 20:50:01 29.4 C 8.22 g/m*3 29.4 C 0 km/h
1665 01-07-2010 21:02:02 28.5 C 8.38 g/m*3 28.5 C 0 km/h
1666 01-07-2010 21:14:02 27.8 C 8.34 g/m*3 27.8 C 0 km/h
1667 01-07-2010 21:26:01 27.5 C 8.73 g/m*3 27.5 C 0 km/h
1668 01-07-2010 21:38:01 26.9 C 8.7 g/m*3 26.9 C 0 km/h
1669 01-07-2010 21:50:02 26.4 C 8.71 g/m*3 26.4 C 0 km/h
1670 01-07-2010 22:02:02 25.9 C 8.72 g/m*3 25.9 C 0 km/h
1671 01-07-2010 22:14:02 25.6 C 8.57 g/m*3 25.6 C 0 km/h
1672 01-07-2010 22:26:02 25.5 C 8.52 g/m*3 25.5 C 0 km/h
1673 01-07-2010 22:38:02 25.3 C 8.43 g/m*3 25.3 C 0 km/h
1674 01-07-2010 22:50:02 25.2 C 8.38 g/m*3 25.2 C 0 km/h
1675 01-07-2010 23:02:02 25.1 C 8.33 g/m*3 25.1 C 0 km/h
Sensor: Nr:Datum:Temp:Abs-Feuchte:Windchill:Wind:
Aussen-T/F 1676 01-07-2010 23:14:02 24.9 C 8.24 g/m*3 24.9 C 0 km/h
1677 01-07-2010 23:27:18 24.7 C 8.37 g/m*3 24.7 C 0 km/h
1678 01-07-2010 23:39:18 24.6 C 8.55 g/m*3 24.6 C 0 km/h
1679 01-07-2010 23:51:18 24.4 C 8.68 g/m*3 24.4 C 0 km/h
1680 02-07-2010 00:03:18 24.1 C 8.53 g/m*3 24.1 C 0 km/h
1681 02-07-2010 00:15:18 23.7 C 8.98 g/m*3 23.7 C 0 km/h
1682 02-07-2010 00:27:19 23.6 C 9.15 g/m*3 23.6 C 0 km/h
1683 02-07-2010 00:39:19 23.1 C 8.68 g/m*3 23.1 C 0 km/h
1684 02-07-2010 00:51:19 22.9 C 8.79 g/m*3 22.9 C 0 km/h
1685 02-07-2010 01:03:19 22.8 C 8.94 g/m*3 22.8 C 0 km/h
1686 02-07-2010 01:15:19 22.6 C 9.04 g/m*3 22.6 C 0 km/h
1687 02-07-2010 01:27:19 22.4 C 9.14 g/m*3 22.4 C 0 km/h
1688 02-07-2010 01:39:19 22.4 C 9.14 g/m*3 22.4 C 0 km/h
1689 02-07-2010 01:51:19 22.1 C 8.98 g/m*3 22.1 C 0 km/h
1690 02-07-2010 02:03:19 21.7 C 8.97 g/m*3 21.7 C 0 km/h
1691 02-07-2010 02:15:19 21.6 C 9.29 g/m*3 21.6 C 0 km/h
1692 02-07-2010 02:27:19 21.3 C 8.76 g/m*3 21.3 C 0 km/h
1693 02-07-2010 02:39:19 21.1 C 8.84 g/m*3 21.1 C 0 km/h
1694 02-07-2010 02:51:19 20.9 C 8.92 g/m*3 20.9 C 0 km/h
1695 02-07-2010 03:03:19 20.9 C 8.92 g/m*3 20.9 C 0 km/h
1696 02-07-2010 03:15:19 20.7 C 9.18 g/m*3 20.7 C 0 km/h
1697 02-07-2010 03:27:19 20.6 C 9.13 g/m*3 20.6 C 0 km/h
1698 02-07-2010 03:39:19 20.4 C 9.2 g/m*3 20.4 C 0 km/h
1699 02-07-2010 03:51:19 20.4 C 9.38 g/m*3 20.4 C 0 km/h
1700 02-07-2010 04:03:19 20.1 C 9.39 g/m*3 20.1 C 0 km/h
Sensor: Nr:Datum:Temp:Abs-Feuchte:Windchill:Wind:
Aussen-T/F 1701 02-07-2010 04:15:19 19.9 C 9.62 g/m*3 19.9 C 0 km/h
1702 02-07-2010 04:27:19 19.6 C 9.79 g/m*3 19.6 C 0 km/h
1703 02-07-2010 04:39:19 19.5 C 9.73 g/m*3 19.5 C 0 km/h
1704 02-07-2010 04:51:19 19.3 C 9.79 g/m*3 19.3 C 0 km/h
1705 02-07-2010 05:03:20 19.2 C 9.73 g/m*3 19.2 C 0 km/h
1706 02-07-2010 05:15:20 19 C 9.61 g/m*3 19 C 0 km/h
1707 02-07-2010 05:27:20 18.8 C 9.99 g/m*3 18.8 C 0 km/h
1708 02-07-2010 05:39:20 18.7 C 9.77 g/m*3 18.7 C 0 km/h
1709 02-07-2010 05:51:20 18.6 C 9.87 g/m*3 18.6 C 0 km/h
1710 02-07-2010 06:03:20 18.6 C 10.03 g/m*3 18.6 C 0 km/h
1711 02-07-2010 06:15:20 18.6 C 10.19 g/m*3 18.6 C 0 km/h
1712 02-07-2010 06:27:20 18.6 C 10.19 g/m*3 18.6 C 0 km/h
1713 02-07-2010 06:39:20 18.7 C 10.41 g/m*3 18.7 C 0 km/h
1714 02-07-2010 06:51:04 18.9 C 10.53 g/m*3 18.9 C 0 km/h
1715 02-07-2010 07:03:02 19.1 C 10.33 g/m*3 19.1 C 0 km/h
1716 02-07-2010 07:15:02 19.4 C 10.51 g/m*3 19.4 C 0 km/h
1717 02-07-2010 07:27:02 19.5 C 10.41 g/m*3 19.5 C 0 km/h
1718 02-07-2010 07:39:02 19.7 C 10.7 g/m*3 19.7 C 0 km/h
1719 02-07-2010 07:51:02 19.9 C 10.65 g/m*3 19.9 C 0 km/h
1720 02-07-2010 08:03:02 20.1 C 10.43 g/m*3 20.1 C 0 km/h
1721 02-07-2010 08:15:02 20.4 C 10.44 g/m*3 20.4 C 0 km/h
1722 02-07-2010 08:27:02 20.8 C 10.5 g/m*3 20.8 C 0 km/h
1723 02-07-2010 08:39:02 21.2 C 10.56 g/m*3 21.2 C 0 km/h
1724 02-07-2010 08:51:02 21.8 C 10.74 g/m*3 21.8 C 0 km/h
1725 02-07-2010 09:03:02 22.6 C 10.65 g/m*3 22.6 C 0 km/h
Sensor: Nr:Datum:Temp:Abs-Feuchte:Windchill:Wind:
Aussen-T/F 1726 02-07-2010 09:15:02 23.2 C 10.6 g/m*3 23.2 C 0 km/h
1727 02-07-2010 09:27:02 24.1 C 10.72 g/m*3 24.1 C 0 km/h
1728 02-07-2010 09:39:02 24.9 C 10.76 g/m*3 24.9 C 0 km/h
1729 02-07-2010 09:51:03 25.9 C 10.65 g/m*3 25.9 C 0 km/h
1730 02-07-2010 10:03:02 26.2 C 10.09 g/m*3 26.2 C 0 km/h
1731 02-07-2010 10:15:03 26.9 C 10.49 g/m*3 26.9 C 0 km/h
1732 02-07-2010 10:27:03 27.7 C 10.43 g/m*3 27.7 C 0 km/h
1733 02-07-2010 10:39:02 28.9 C 10.57 g/m*3 28.9 C 0 km/h
1734 02-07-2010 10:51:02 29.6 C 10.39 g/m*3 29.6 C 0 km/h
1735 02-07-2010 11:03:01 30.1 C 10.37 g/m*3 30.1 C 0 km/h
1736 02-07-2010 11:15:02 29.8 C 9.9 g/m*3 29.8 C 0 km/h
1737 02-07-2010 11:27:02 30.1 C 10.06 g/m*3 30.1 C 0 km/h
1738 02-07-2010 11:39:02 30.3 C 9.55 g/m*3 30.3 C 0 km/h
1739 02-07-2010 11:51:02 30.6 C 9.71 g/m*3 30.6 C 0 km/h
1740 02-07-2010 12:03:03 31.2 C 10.03 g/m*3 31.2 C 0 km/h
1741 02-07-2010 12:15:02 31.5 C 8.55 g/m*3 31.5 C 0 km/h
1742 02-07-2010 12:27:02 32 C 7.09 g/m*3 32 C 0 km/h
1743 02-07-2010 12:39:03 32.9 C 7.08 g/m*3 32.9 C 0 km/h
1744 02-07-2010 12:51:02 33 C 7.12 g/m*3 33 C 0 km/h
1745 02-07-2010 13:03:02 32.7 C 7.01 g/m*3 32.7 C 0 km/h
1746 02-07-2010 13:15:02 33.3 C 7.23 g/m*3 33.3 C 0 km/h
1747 02-07-2010 13:27:02 33.7 C 7.39 g/m*3 33.7 C 0 km/h
1748 02-07-2010 13:39:02 33.9 C 7.46 g/m*3 33.9 C 0 km/h
1749 02-07-2010 13:51:02 33.2 C 7.2 g/m*3 33.2 C 0 km/h
1750 02-07-2010 14:03:02 32.4 C 7.59 g/m*3 32.4 C 0 km/h
Sensor: Nr:Datum:Temp:Abs-Feuchte:Windchill:Wind:
Aussen-T/F 1751 02-07-2010 14:15:03 32.9 C 7.79 g/m*3 32.9 C 0 km/h
1752 02-07-2010 14:27:03 32.9 C 7.08 g/m*3 32.9 C 0 km/h
1753 02-07-2010 14:39:02 32.8 C 7.04 g/m*3 32.8 C 0 km/h
1754 02-07-2010 14:51:01 32.9 C 7.44 g/m*3 32.9 C 0 km/h
1755 02-07-2010 15:03:01 32.4 C 6.9 g/m*3 32.4 C 0 km/h
1756 02-07-2010 15:15:02 32.4 C 8.62 g/m*3 32.4 C 0 km/h
1757 02-07-2010 15:27:02 31.9 C 8.73 g/m*3 31.9 C 0 km/h
1758 02-07-2010 15:39:01 32 C 9.11 g/m*3 32 C 0 km/h
1759 02-07-2010 15:51:03 32.3 C 9.26 g/m*3 32.3 C 0 km/h
1760 02-07-2010 16:03:02 32.1 C 9.5 g/m*3 32.1 C 0 km/h
1761 02-07-2010 16:15:03 31.9 C 9.74 g/m*3 31.9 C 0 km/h
1762 02-07-2010 16:27:03 32.3 C 8.92 g/m*3 32.3 C 0 km/h
1763 02-07-2010 16:39:02 32.9 C 8.14 g/m*3 32.9 C 0 km/h
1764 02-07-2010 16:51:02 33.1 C 7.52 g/m*3 33.1 C 0 km/h
1765 02-07-2010 17:03:02 33.7 C 7.39 g/m*3 33.7 C 0 km/h
1766 02-07-2010 17:15:02 34.2 C 7.58 g/m*3 34.2 C 0 km/h
1767 02-07-2010 17:27:02 34.6 C 7.74 g/m*3 34.6 C 0 km/h
1768 02-07-2010 17:39:02 34.4 C 7.66 g/m*3 34.4 C 0 km/h
1769 02-07-2010 17:51:02 34.2 C 7.58 g/m*3 34.2 C 0 km/h
1770 02-07-2010 18:03:01 34.1 C 7.54 g/m*3 34.1 C 0 km/h
1771 02-07-2010 18:15:02 34 C 7.5 g/m*3 34 C 0 km/h
1772 02-07-2010 18:27:02 33.5 C 7.31 g/m*3 33.5 C 0 km/h
1773 02-07-2010 18:39:02 33.3 C 7.23 g/m*3 33.3 C 0 km/h
1774 02-07-2010 18:51:01 33.6 C 7.35 g/m*3 33.6 C 0 km/h
1775 02-07-2010 19:03:02 33.4 C 7.27 g/m*3 33.4 C 0 km/h
Sensor: Nr:Datum:Temp:Abs-Feuchte:Windchill:Wind:
Aussen-T/F 1776 02-07-2010 19:15:01 33.5 C 7.31 g/m*3 33.5 C 0 km/h
1777 02-07-2010 19:27:01 34 C 7.5 g/m*3 34 C 0 km/h
1778 02-07-2010 19:39:02 34.1 C 7.54 g/m*3 34.1 C 0 km/h
1779 02-07-2010 19:51:02 33.8 C 7.43 g/m*3 33.8 C 0 km/h
1780 02-07-2010 20:03:02 33.5 C 7.31 g/m*3 33.5 C 0 km/h
1781 02-07-2010 20:15:01 33 C 7.48 g/m*3 33 C 0 km/h
1782 02-07-2010 20:27:01 32.7 C 7.71 g/m*3 32.7 C 0 km/h
1783 02-07-2010 20:39:02 32 C 8.78 g/m*3 32 C 0 km/h
1784 02-07-2010 20:51:02 31.6 C 8.92 g/m*3 31.6 C 0 km/h
1785 02-07-2010 21:03:02 31 C 8.64 g/m*3 31 C 0 km/h
1786 02-07-2010 21:15:03 30.3 C 8.32 g/m*3 30.3 C 0 km/h
1787 02-07-2010 21:27:03 29.4 C 8.51 g/m*3 29.4 C 0 km/h
1788 02-07-2010 21:39:02 29.1 C 8.38 g/m*3 29.1 C 0 km/h
1789 02-07-2010 21:51:03 28.6 C 7.87 g/m*3 28.6 C 0 km/h
1790 02-07-2010 22:03:02 27.8 C 8.34 g/m*3 27.8 C 0 km/h
1791 02-07-2010 22:15:03 27.4 C 7.89 g/m*3 27.4 C 0 km/h
1792 02-07-2010 22:27:03 27.2 C 7.81 g/m*3 27.2 C 0 km/h
1793 02-07-2010 22:39:02 26.8 C 7.89 g/m*3 26.8 C 0 km/h
1794 02-07-2010 22:52:03 26.3 C 7.67 g/m*3 26.3 C 0 km/h
1795 02-07-2010 23:04:03 26 C 7.79 g/m*3 26 C 0 km/h
1796 02-07-2010 23:16:03 25.8 C 8.19 g/m*3 25.8 C 0 km/h
1797 02-07-2010 23:28:03 25.6 C 8.33 g/m*3 25.6 C 0 km/h
1798 02-07-2010 23:40:03 25.5 C 8.29 g/m*3 25.5 C 0 km/h
1799 02-07-2010 23:52:03 25.2 C 8.38 g/m*3 25.2 C 0 km/h
1800 03-07-2010 00:04:03 25 C 8.52 g/m*3 25 C 0 km/h
Sensor: Nr:Datum:Temp:Abs-Feuchte:Windchill:Wind:
Aussen-T/F 1801 03-07-2010 00:16:03 24.7 C 8.83 g/m*3 24.7 C 0 km/h
1802 03-07-2010 00:28:03 24.4 C 9.12 g/m*3 24.4 C 0 km/h
1803 03-07-2010 00:40:03 24.2 C 9.24 g/m*3 24.2 C 0 km/h
1804 03-07-2010 00:52:03 24 C 9.14 g/m*3 24 C 0 km/h
1805 03-07-2010 01:04:03 23.8 C 9.68 g/m*3 23.8 C 0 km/h
1806 03-07-2010 01:16:03 23.6 C 9.78 g/m*3 23.6 C 0 km/h
1807 03-07-2010 01:28:03 23.4 C 9.67 g/m*3 23.4 C 0 km/h
1808 03-07-2010 01:40:03 23.1 C 9.92 g/m*3 23.1 C 0 km/h
1809 03-07-2010 01:52:03 23 C 10.07 g/m*3 23 C 0 km/h
1810 03-07-2010 02:04:04 22.8 C 10.36 g/m*3 22.8 C 0 km/h
1811 03-07-2010 02:16:04 22.6 C 10.45 g/m*3 22.6 C 0 km/h
1812 03-07-2010 02:28:04 22.5 C 10.39 g/m*3 22.5 C 0 km/h
1813 03-07-2010 02:40:04 22.5 C 10.39 g/m*3 22.5 C 0 km/h
1814 03-07-2010 02:52:04 22.2 C 10.6 g/m*3 22.2 C 0 km/h
1815 03-07-2010 03:04:04 22 C 10.48 g/m*3 22 C 0 km/h
1816 03-07-2010 03:16:04 21.7 C 10.68 g/m*3 21.7 C 0 km/h
1817 03-07-2010 03:28:04 21.6 C 10.81 g/m*3 21.6 C 0 km/h
1818 03-07-2010 03:40:04 21.4 C 10.87 g/m*3 21.4 C 0 km/h
1819 03-07-2010 03:52:04 21.2 C 10.93 g/m*3 21.2 C 0 km/h
1820 03-07-2010 04:04:04 21 C 10.81 g/m*3 21 C 0 km/h
1821 03-07-2010 04:16:04 20.8 C 11.05 g/m*3 20.8 C 0 km/h
1822 03-07-2010 04:28:04 20.8 C 11.23 g/m*3 20.8 C 0 km/h
1823 03-07-2010 04:40:04 20.5 C 11.03 g/m*3 20.5 C 0 km/h
1824 03-07-2010 04:52:04 20.3 C 11.08 g/m*3 20.3 C 0 km/h
1825 03-07-2010 05:04:04 20.3 C 11.08 g/m*3 20.3 C 0 km/h
Sensor: Nr:Datum:Temp:Abs-Feuchte:Windchill:Wind:
Aussen-T/F 1826 03-07-2010 05:16:04 20.1 C 11.13 g/m*3 20.1 C 0 km/h
1827 03-07-2010 05:28:04 19.9 C 11.34 g/m*3 19.9 C 0 km/h
1828 03-07-2010 05:40:04 19.9 C 11.51 g/m*3 19.9 C 0 km/h
1829 03-07-2010 05:52:04 19.9 C 11.51 g/m*3 19.9 C 0 km/h
1830 03-07-2010 06:04:05 20 C 11.23 g/m*3 20 C 0 km/h
1831 03-07-2010 06:16:05 20 C 11.41 g/m*3 20 C 0 km/h
1832 03-07-2010 06:28:05 20.2 C 11.54 g/m*3 20.2 C 0 km/h
1833 03-07-2010 06:40:05 20.2 C 11.54 g/m*3 20.2 C 0 km/h
1834 03-07-2010 06:52:02 20.5 C 11.74 g/m*3 20.5 C 0 km/h
1835 03-07-2010 07:04:01 20.9 C 11.84 g/m*3 20.9 C 0 km/h
1836 03-07-2010 07:16:02 21.1 C 11.61 g/m*3 21.1 C 0 km/h
1837 03-07-2010 07:28:02 21.2 C 11.68 g/m*3 21.2 C 0 km/h
1838 03-07-2010 07:40:02 21.6 C 11.76 g/m*3 21.6 C 0 km/h
1839 03-07-2010 07:52:02 21.8 C 11.9 g/m*3 21.8 C 0 km/h
1840 03-07-2010 08:04:02 22.1 C 11.71 g/m*3 22.1 C 0 km/h
1841 03-07-2010 08:16:02 22.3 C 11.65 g/m*3 22.3 C 0 km/h
1842 03-07-2010 08:28:02 22.5 C 11.78 g/m*3 22.5 C 0 km/h
1843 03-07-2010 08:40:02 22.8 C 11.99 g/m*3 22.8 C 0 km/h
1844 03-07-2010 08:52:02 23.2 C 11.85 g/m*3 23.2 C 0 km/h
1845 03-07-2010 09:04:02 23.9 C 12.11 g/m*3 23.9 C 0 km/h
1846 03-07-2010 09:16:01 24.5 C 11.86 g/m*3 24.5 C 0 km/h
1847 03-07-2010 09:28:01 25.1 C 12.04 g/m*3 25.1 C 0 km/h
1848 03-07-2010 09:40:02 25.8 C 12.28 g/m*3 25.8 C 0 km/h
1849 03-07-2010 09:52:02 26.5 C 12.27 g/m*3 26.5 C 0 km/h
1850 03-07-2010 10:04:02 27.3 C 12.56 g/m*3 27.3 C 0 km/h
Sensor: Nr:Datum:Temp:Abs-Feuchte:Windchill:Wind:
Aussen-T/F 1851 03-07-2010 10:16:02 28.1 C 12.03 g/m*3 28.1 C 0 km/h
1852 03-07-2010 10:28:02 29 C 12.06 g/m*3 29 C 0 km/h
1853 03-07-2010 10:40:02 29.5 C 11.81 g/m*3 29.5 C 0 km/h
1854 03-07-2010 10:52:02 30.3 C 12.02 g/m*3 30.3 C 0 km/h
1855 03-07-2010 11:04:03 30.7 C 11.97 g/m*3 30.7 C 0 km/h
1856 03-07-2010 11:16:03 30.9 C 11.78 g/m*3 30.9 C 0 km/h
1857 03-07-2010 11:28:03 31.1 C 10.62 g/m*3 31.1 C 0 km/h
1858 03-07-2010 11:40:02 31.6 C 10.24 g/m*3 31.6 C 0 km/h
1859 03-07-2010 11:52:01 32.2 C 9.55 g/m*3 32.2 C 0 km/h
1860 03-07-2010 12:04:02 32.7 C 8.76 g/m*3 32.7 C 0 km/h
1861 03-07-2010 12:16:01 33.3 C 7.23 g/m*3 33.3 C 0 km/h
1862 03-07-2010 12:28:01 33.1 C 7.16 g/m*3 33.1 C 0 km/h
1863 03-07-2010 12:40:02 33.4 C 7.27 g/m*3 33.4 C 0 km/h
1864 03-07-2010 12:52:02 34 C 7.5 g/m*3 34 C 0 km/h
1865 03-07-2010 13:04:02 34 C 7.5 g/m*3 34 C 0 km/h
1866 03-07-2010 13:16:01 34.3 C 7.62 g/m*3 34.3 C 0 km/h
1867 03-07-2010 13:28:01 33.9 C 7.46 g/m*3 33.9 C 0 km/h
1868 03-07-2010 13:40:02 32.6 C 8.36 g/m*3 32.6 C 0 km/h
1869 03-07-2010 13:52:02 34.1 C 7.54 g/m*3 34.1 C 0 km/h
1870 03-07-2010 14:04:02 34.2 C 7.58 g/m*3 34.2 C 0 km/h
1871 03-07-2010 14:16:01 33.7 C 7.39 g/m*3 33.7 C 0 km/h
1872 03-07-2010 14:28:01 33.5 C 7.31 g/m*3 33.5 C 0 km/h
1873 03-07-2010 14:40:02 33.8 C 7.43 g/m*3 33.8 C 0 km/h
1874 03-07-2010 14:52:02 33.4 C 7.27 g/m*3 33.4 C 0 km/h
1875 03-07-2010 15:04:01 32.8 C 7.4 g/m*3 32.8 C 0 km/h
Sensor: Nr:Datum:Temp:Abs-Feuchte:Windchill:Wind:
Aussen-T/F 1876 03-07-2010 15:16:02 32.3 C 8.58 g/m*3 32.3 C 0 km/h
1877 03-07-2010 15:28:02 31.7 C 7.64 g/m*3 31.7 C 0 km/h
1878 03-07-2010 15:40:02 31.5 C 7.56 g/m*3 31.5 C 0 km/h
1879 03-07-2010 15:52:02 31.4 C 7.85 g/m*3 31.4 C 0 km/h
1880 03-07-2010 16:04:03 31.2 C 8.09 g/m*3 31.2 C 0 km/h
1881 03-07-2010 16:16:02 31.5 C 8.22 g/m*3 31.5 C 0 km/h
1882 03-07-2010 16:28:02 31 C 8.32 g/m*3 31 C 0 km/h
1883 03-07-2010 16:40:03 30.2 C 9.2 g/m*3 30.2 C 0 km/h
1884 03-07-2010 16:52:02 30.1 C 9.76 g/m*3 30.1 C 0 km/h
1885 03-07-2010 17:04:02 30.2 C 10.42 g/m*3 30.2 C 0 km/h
1886 03-07-2010 17:16:02 29.7 C 10.14 g/m*3 29.7 C 0 km/h
1887 03-07-2010 17:28:02 29.5 C 9.44 g/m*3 29.5 C 0 km/h
1888 03-07-2010 17:40:02 29.5 C 9.74 g/m*3 29.5 C 0 km/h
1889 03-07-2010 17:52:01 28.1 C 9.57 g/m*3 28.1 C 0 km/h
1890 03-07-2010 18:04:01 27.3 C 9.94 g/m*3 27.3 C 0 km/h
1891 03-07-2010 18:16:02 26.3 C 10.64 g/m*3 26.3 C 0 km/h
1892 03-07-2010 18:28:02 26.2 C 11.08 g/m*3 26.2 C 0 km/h
1893 03-07-2010 18:40:01 26.1 C 11.02 g/m*3 26.1 C 0 km/h
1894 03-07-2010 18:52:01 26.5 C 10.76 g/m*3 26.5 C 0 km/h
1895 03-07-2010 19:04:02 26.6 C 11.08 g/m*3 26.6 C 0 km/h
1896 03-07-2010 19:16:02 27.1 C 11.13 g/m*3 27.1 C 0 km/h
1897 03-07-2010 19:28:02 26.8 C 11.71 g/m*3 26.8 C 0 km/h
1898 03-07-2010 19:40:02 27.5 C 11.64 g/m*3 27.5 C 0 km/h
1899 03-07-2010 19:52:02 27.5 C 11.64 g/m*3 27.5 C 0 km/h
1900 03-07-2010 20:04:02 27.8 C 12.1 g/m*3 27.8 C 0 km/h
Sensor: Nr:Datum:Temp:Abs-Feuchte:Windchill:Wind:
Aussen-T/F 1901 03-07-2010 20:16:02 28.3 C 11.89 g/m*3 28.3 C 0 km/h
1902 03-07-2010 20:28:02 28.2 C 12.1 g/m*3 28.2 C 0 km/h
1903 03-07-2010 20:40:01 28.4 C 11.95 g/m*3 28.4 C 0 km/h
1904 03-07-2010 20:52:02 27.7 C 12.3 g/m*3 27.7 C 0 km/h
1905 03-07-2010 21:04:01 27.3 C 12.82 g/m*3 27.3 C 0 km/h
1906 03-07-2010 21:16:02 26.6 C 13.09 g/m*3 26.6 C 0 km/h
1907 03-07-2010 21:28:02 26.1 C 13.46 g/m*3 26.1 C 0 km/h
1908 03-07-2010 21:40:02 25.8 C 13.72 g/m*3 25.8 C 0 km/h
1909 03-07-2010 21:52:02 25.4 C 13.89 g/m*3 25.4 C 0 km/h
1910 03-07-2010 22:04:03 25.6 C 14.05 g/m*3 25.6 C 0 km/h
1911 03-07-2010 22:16:02 25.4 C 14.36 g/m*3 25.4 C 0 km/h
1912 03-07-2010 22:28:02 25 C 14.04 g/m*3 25 C 0 km/h
1913 03-07-2010 22:40:02 24.6 C 13.95 g/m*3 24.6 C 0 km/h
1914 03-07-2010 22:52:01 24.5 C 13.88 g/m*3 24.5 C 0 km/h
1915 03-07-2010 23:04:02 24.2 C 13.64 g/m*3 24.2 C 0 km/h
1916 03-07-2010 23:16:01 24.1 C 14 g/m*3 24.1 C 0 km/h
1917 03-07-2010 23:28:01 24.1 C 13.78 g/m*3 24.1 C 0 km/h
1918 03-07-2010 23:40:02 24 C 13.71 g/m*3 24 C 0 km/h
1919 03-07-2010 23:52:01 23.8 C 13.77 g/m*3 23.8 C 0 km/h
1920 04-07-2010 00:04:02 23.7 C 13.9 g/m*3 23.7 C 0 km/h
1921 04-07-2010 00:16:01 23.5 C 13.96 g/m*3 23.5 C 0 km/h
1922 04-07-2010 00:28:01 23.4 C 14.09 g/m*3 23.4 C 0 km/h
1923 04-07-2010 00:40:02 23.4 C 14.09 g/m*3 23.4 C 0 km/h
1924 04-07-2010 00:52:01 23.3 C 14.01 g/m*3 23.3 C 0 km/h
1925 04-07-2010 01:04:02 23.2 C 13.93 g/m*3 23.2 C 0 km/h
Sensor: Nr:Datum:Temp:Abs-Feuchte:Windchill:Wind:
Aussen-T/F 1926 04-07-2010 01:16:01 23.1 C 13.85 g/m*3 23.1 C 0 km/h
1927 04-07-2010 01:28:01 22.9 C 13.9 g/m*3 22.9 C 0 km/h
1928 04-07-2010 01:41:02 22.7 C 13.74 g/m*3 22.7 C 0 km/h
1929 04-07-2010 01:53:02 22.7 C 13.54 g/m*3 22.7 C 0 km/h
1930 04-07-2010 02:05:02 22.6 C 13.66 g/m*3 22.6 C 0 km/h
1931 04-07-2010 02:17:02 22.4 C 13.5 g/m*3 22.4 C 0 km/h
1932 04-07-2010 02:29:02 22.4 C 13.7 g/m*3 22.4 C 0 km/h
1933 04-07-2010 02:41:02 22.3 C 13.62 g/m*3 22.3 C 0 km/h
1934 04-07-2010 02:53:02 22.2 C 13.55 g/m*3 22.2 C 0 km/h
1935 04-07-2010 03:05:02 22.2 C 13.74 g/m*3 22.2 C 0 km/h
1936 04-07-2010 03:17:02 22.2 C 13.94 g/m*3 22.2 C 0 km/h
1937 04-07-2010 03:29:02 22.2 C 13.74 g/m*3 22.2 C 0 km/h
1938 04-07-2010 03:41:02 22.2 C 13.74 g/m*3 22.2 C 0 km/h
1939 04-07-2010 03:53:02 22 C 13.78 g/m*3 22 C 0 km/h
1940 04-07-2010 04:05:02 21.8 C 14.01 g/m*3 21.8 C 0 km/h
1941 04-07-2010 04:17:02 21.7 C 13.93 g/m*3 21.7 C 0 km/h
1942 04-07-2010 04:29:02 21.7 C 13.93 g/m*3 21.7 C 0 km/h
1943 04-07-2010 04:41:02 21.6 C 13.85 g/m*3 21.6 C 0 km/h
1944 04-07-2010 04:53:02 21.3 C 13.79 g/m*3 21.3 C 0 km/h
1945 04-07-2010 05:05:02 21.1 C 13.82 g/m*3 21.1 C 0 km/h
1946 04-07-2010 05:17:02 21 C 13.92 g/m*3 21 C 0 km/h
1947 04-07-2010 05:29:02 21 C 13.92 g/m*3 21 C 0 km/h
1948 04-07-2010 05:41:03 21.2 C 14.08 g/m*3 21.2 C 0 km/h
1949 04-07-2010 05:53:03 21.3 C 13.98 g/m*3 21.3 C 0 km/h
1950 04-07-2010 06:05:03 21.5 C 13.95 g/m*3 21.5 C 0 km/h
Sensor: Nr:Datum:Temp:Abs-Feuchte:Windchill:Wind:
Aussen-T/F 1951 04-07-2010 06:17:03 21.5 C 13.95 g/m*3 21.5 C 0 km/h
1952 04-07-2010 06:29:03 21.6 C 14.03 g/m*3 21.6 C 0 km/h
1953 04-07-2010 06:41:03 21.8 C 14.01 g/m*3 21.8 C 0 km/h
1954 04-07-2010 06:53:03 21.8 C 14.01 g/m*3 21.8 C 0 km/h
1955 04-07-2010 07:05:03 22 C 13.97 g/m*3 22 C 0 km/h
1956 04-07-2010 07:17:03 22.1 C 13.86 g/m*3 22.1 C 0 km/h
1957 04-07-2010 07:29:03 22.1 C 13.86 g/m*3 22.1 C 0 km/h
1958 04-07-2010 07:41:03 22.5 C 13.98 g/m*3 22.5 C 0 km/h
1959 04-07-2010 07:53:03 23 C 13.77 g/m*3 23 C 0 km/h
1960 04-07-2010 08:05:03 23.2 C 13.72 g/m*3 23.2 C 0 km/h
1961 04-07-2010 08:17:03 22.9 C 13.49 g/m*3 22.9 C 0 km/h
1962 04-07-2010 08:29:03 23 C 13.36 g/m*3 23 C 0 km/h
1963 04-07-2010 08:41:03 23.4 C 13.46 g/m*3 23.4 C 0 km/h
1964 04-07-2010 08:53:03 23.3 C 13.17 g/m*3 23.3 C 0 km/h
1965 04-07-2010 09:05:03 23.4 C 12.83 g/m*3 23.4 C 0 km/h
1966 04-07-2010 09:17:03 23.4 C 12.83 g/m*3 23.4 C 0 km/h
1967 04-07-2010 09:29:03 23.9 C 13.2 g/m*3 23.9 C 0 km/h
1968 04-07-2010 09:41:03 23.6 C 12.76 g/m*3 23.6 C 0 km/h
1969 04-07-2010 09:53:04 23.4 C 13.04 g/m*3 23.4 C 0 km/h
1970 04-07-2010 10:05:04 23.9 C 12.76 g/m*3 23.9 C 0 km/h
1971 04-07-2010 10:17:02 24.1 C 12.91 g/m*3 24.1 C 0 km/h
1972 04-07-2010 10:29:02 24.2 C 12.54 g/m*3 24.2 C 0 km/h
1973 04-07-2010 10:41:03 24.8 C 12.52 g/m*3 24.8 C 0 km/h
1974 04-07-2010 10:53:02 25.1 C 12.27 g/m*3 25.1 C 0 km/h
1975 04-07-2010 11:05:01 24.3 C 12.17 g/m*3 24.3 C 0 km/h
Sensor: Nr:Datum:Temp:Abs-Feuchte:Windchill:Wind:
Aussen-T/F 1976 04-07-2010 11:17:02 25.4 C 12.24 g/m*3 25.4 C 0 km/h
1977 04-07-2010 11:29:02 25.5 C 12.31 g/m*3 25.5 C 0 km/h
1978 04-07-2010 11:41:02 27.1 C 11.9 g/m*3 27.1 C 0 km/h
1979 04-07-2010 11:53:02 27.8 C 11.57 g/m*3 27.8 C 0 km/h
1980 04-07-2010 12:05:03 27 C 11.32 g/m*3 27 C 0 km/h
1981 04-07-2010 12:17:02 26.4 C 11.45 g/m*3 26.4 C 0 km/h
1982 04-07-2010 12:29:02 27.6 C 11.44 g/m*3 27.6 C 0 km/h
1983 04-07-2010 12:41:02 29.4 C 10.27 g/m*3 29.4 C 0 km/h
1984 04-07-2010 12:53:02 29.3 C 10.22 g/m*3 29.3 C 0 km/h
1985 04-07-2010 13:05:02 29.5 C 10.33 g/m*3 29.5 C 0 km/h
1986 04-07-2010 13:17:01 29.3 C 10.22 g/m*3 29.3 C 0 km/h
1987 04-07-2010 13:29:01 31.2 C 9.7 g/m*3 31.2 C 0 km/h
1988 04-07-2010 13:41:02 31.2 C 8.73 g/m*3 31.2 C 0 km/h
1989 04-07-2010 13:53:02 30.5 C 9.03 g/m*3 30.5 C 0 km/h
1990 04-07-2010 14:05:02 31 C 9.28 g/m*3 31 C 0 km/h
1991 04-07-2010 14:17:02 31 C 8.96 g/m*3 31 C 0 km/h
1992 04-07-2010 14:29:02 30.5 C 9.66 g/m*3 30.5 C 0 km/h
1993 04-07-2010 14:41:02 30 C 9.7 g/m*3 30 C 0 km/h
1994 04-07-2010 14:53:02 30.3 C 9.86 g/m*3 30.3 C 0 km/h
1995 04-07-2010 15:05:02 31.5 C 8.88 g/m*3 31.5 C 0 km/h
1996 04-07-2010 15:17:02 32.1 C 8.48 g/m*3 32.1 C 0 km/h
1997 04-07-2010 15:29:02 32 C 8.44 g/m*3 32 C 0 km/h
1998 04-07-2010 15:41:02 32.3 C 8.23 g/m*3 32.3 C 0 km/h
1999 04-07-2010 15:53:02 32 C 8.44 g/m*3 32 C 0 km/h
2000 04-07-2010 16:05:02 32.4 C 7.93 g/m*3 32.4 C 0 km/h
Sensor: Nr:Datum:Temp:Abs-Feuchte:Windchill:Wind:
Aussen-T/F 2001 04-07-2010 16:17:03 31.8 C 8.02 g/m*3 31.8 C 0 km/h
2002 04-07-2010 16:29:03 32.2 C 7.85 g/m*3 32.2 C 0 km/h
2003 04-07-2010 16:41:02 32.3 C 7.89 g/m*3 32.3 C 0 km/h
2004 04-07-2010 16:53:02 32.4 C 7.59 g/m*3 32.4 C 0 km/h
2005 04-07-2010 17:05:02 32.1 C 7.81 g/m*3 32.1 C 0 km/h
2006 04-07-2010 17:17:02 31.8 C 7.68 g/m*3 31.8 C 0 km/h
2007 04-07-2010 17:29:02 32.8 C 7.4 g/m*3 32.8 C 0 km/h
2008 04-07-2010 17:41:02 32.8 C 7.4 g/m*3 32.8 C 0 km/h
2009 04-07-2010 17:53:02 32.9 C 7.44 g/m*3 32.9 C 0 km/h
2010 04-07-2010 18:05:02 32.9 C 7.44 g/m*3 32.9 C 0 km/h
2011 04-07-2010 18:17:02 32.9 C 7.44 g/m*3 32.9 C 0 km/h
2012 04-07-2010 18:29:03 32.3 C 7.55 g/m*3 32.3 C 0 km/h
2013 04-07-2010 18:41:01 31.9 C 7.72 g/m*3 31.9 C 0 km/h
2014 04-07-2010 18:53:02 32.5 C 7.63 g/m*3 32.5 C 0 km/h
2015 04-07-2010 19:05:01 31.2 C 8.41 g/m*3 31.2 C 0 km/h
2016 04-07-2010 19:17:02 30 C 9.1 g/m*3 30 C 0 km/h
2017 04-07-2010 19:29:02 30.1 C 9.45 g/m*3 30.1 C 0 km/h
2018 04-07-2010 19:41:02 31.3 C 8.78 g/m*3 31.3 C 0 km/h
2019 04-07-2010 19:53:02 32 C 7.76 g/m*3 32 C 0 km/h
2020 04-07-2010 20:05:01 31.5 C 8.55 g/m*3 31.5 C 0 km/h
2021 04-07-2010 20:17:01 31.6 C 8.26 g/m*3 31.6 C 0 km/h
2022 04-07-2010 20:29:01 31.7 C 8.64 g/m*3 31.7 C 0 km/h
2023 04-07-2010 20:41:02 30.8 C 8.86 g/m*3 30.8 C 0 km/h
2024 04-07-2010 20:53:02 29.7 C 9.55 g/m*3 29.7 C 0 km/h
2025 04-07-2010 21:05:01 28.3 C 9.4 g/m*3 28.3 C 0 km/h
Sensor: Nr:Datum:Temp:Abs-Feuchte:Windchill:Wind:
Aussen-T/F 2026 04-07-2010 21:17:02 27.8 C 9.68 g/m*3 27.8 C 0 km/h
2027 04-07-2010 21:29:02 27.9 C 10.01 g/m*3 27.9 C 0 km/h
2028 04-07-2010 21:41:02 27.4 C 9.74 g/m*3 27.4 C 0 km/h
2029 04-07-2010 21:53:01 27.3 C 9.42 g/m*3 27.3 C 0 km/h
2030 04-07-2010 22:05:02 26.9 C 9.73 g/m*3 26.9 C 0 km/h
2031 04-07-2010 22:17:01 26.6 C 9.82 g/m*3 26.6 C 0 km/h
2032 04-07-2010 22:29:01 26.4 C 9.96 g/m*3 26.4 C 0 km/h
2033 04-07-2010 22:41:02 26.2 C 9.35 g/m*3 26.2 C 0 km/h
2034 04-07-2010 22:54:03 26.1 C 9.06 g/m*3 26.1 C 0 km/h
2035 04-07-2010 23:06:03 26.1 C 9.06 g/m*3 26.1 C 0 km/h
2036 04-07-2010 23:18:03 26.1 C 9.3 g/m*3 26.1 C 0 km/h
2037 04-07-2010 23:30:03 25.9 C 9.44 g/m*3 25.9 C 0 km/h
2038 04-07-2010 23:42:03 25.7 C 9.58 g/m*3 25.7 C 0 km/h
2039 04-07-2010 23:54:03 25.2 C 8.85 g/m*3 25.2 C 0 km/h
2040 05-07-2010 00:06:03 24.7 C 8.6 g/m*3 24.7 C 0 km/h
2041 05-07-2010 00:18:03 24.5 C 8.06 g/m*3 24.5 C 0 km/h
2042 05-07-2010 00:30:03 24.4 C 8.46 g/m*3 24.4 C 0 km/h
2043 05-07-2010 00:42:03 24.1 C 7.88 g/m*3 24.1 C 0 km/h
2044 05-07-2010 00:54:03 24 C 7.83 g/m*3 24 C 0 km/h
2045 05-07-2010 01:06:03 23.9 C 7.57 g/m*3 23.9 C 0 km/h
2046 05-07-2010 01:18:04 23.8 C 7.1 g/m*3 23.8 C 0 km/h
2047 05-07-2010 01:30:04 23.3 C 6.9 g/m*3 23.3 C 0 km/h
2048 05-07-2010 01:42:04 22.9 C 7.15 g/m*3 22.9 C 0 km/h
2049 05-07-2010 01:54:04 22.4 C 6.95 g/m*3 22.4 C 0 km/h
2050 05-07-2010 02:06:04 22.5 C 7.19 g/m*3 22.5 C 0 km/h
Sensor: Nr:Datum:Temp:Abs-Feuchte:Windchill:Wind:
Aussen-T/F 2051 05-07-2010 02:18:04 22.2 C 7.07 g/m*3 22.2 C 0 km/h
2052 05-07-2010 02:30:04 21.9 C 6.95 g/m*3 21.9 C 0 km/h
2053 05-07-2010 02:42:04 21.7 C 7.25 g/m*3 21.7 C 0 km/h
2054 05-07-2010 02:54:04 21.4 C 6.94 g/m*3 21.4 C 0 km/h
2055 05-07-2010 03:06:04 21.5 C 7.17 g/m*3 21.5 C 0 km/h
2056 05-07-2010 03:18:04 21.2 C 7.04 g/m*3 21.2 C 0 km/h
2057 05-07-2010 03:30:04 20.8 C 6.7 g/m*3 20.8 C 0 km/h
2058 05-07-2010 03:42:04 20.8 C 6.52 g/m*3 20.8 C 0 km/h
2059 05-07-2010 03:54:04 20.8 C 6.7 g/m*3 20.8 C 0 km/h
2060 05-07-2010 04:06:04 20.5 C 6.41 g/m*3 20.5 C 0 km/h
2061 05-07-2010 04:18:04 20.3 C 6.51 g/m*3 20.3 C 0 km/h
2062 05-07-2010 04:30:04 20 C 6.22 g/m*3 20 C 0 km/h
2063 05-07-2010 04:42:04 19.7 C 6.11 g/m*3 19.7 C 0 km/h
2064 05-07-2010 04:54:04 19.3 C 6.14 g/m*3 19.3 C 0 km/h
2065 05-07-2010 05:06:04 19.1 C 6.23 g/m*3 19.1 C 0 km/h
2066 05-07-2010 05:18:04 18.9 C 6.32 g/m*3 18.9 C 0 km/h
2067 05-07-2010 05:30:05 18.9 C 6.32 g/m*3 18.9 C 0 km/h
2068 05-07-2010 05:42:05 18.8 C 6.28 g/m*3 18.8 C 0 km/h
2069 05-07-2010 05:54:05 18.6 C 6.37 g/m*3 18.6 C 0 km/h
2070 05-07-2010 06:06:05 18.5 C 6.33 g/m*3 18.5 C 0 km/h
2071 05-07-2010 06:18:05 18.4 C 6.45 g/m*3 18.4 C 0 km/h
2072 05-07-2010 06:30:05 18.4 C 6.61 g/m*3 18.4 C 0 km/h
2073 05-07-2010 06:42:05 18.2 C 7.15 g/m*3 18.2 C 0 km/h
2074 05-07-2010 06:54:05 18.2 C 7.31 g/m*3 18.2 C 0 km/h
2075 05-07-2010 07:06:02 18.3 C 7.35 g/m*3 18.3 C 0 km/h
Sensor: Nr:Datum:Temp:Abs-Feuchte:Windchill:Wind:
Aussen-T/F 2076 05-07-2010 07:18:03 18.3 C 7.66 g/m*3 18.3 C 0 km/h
2077 05-07-2010 07:30:03 18.4 C 7.55 g/m*3 18.4 C 0 km/h
2078 05-07-2010 07:42:02 18.5 C 7.44 g/m*3 18.5 C 0 km/h
2079 05-07-2010 07:54:02 18.7 C 7.36 g/m*3 18.7 C 0 km/h
2080 05-07-2010 08:06:02 18.9 C 7.45 g/m*3 18.9 C 0 km/h
2081 05-07-2010 08:18:03 19.2 C 7.09 g/m*3 19.2 C 0 km/h
2082 05-07-2010 08:30:03 19.4 C 6.84 g/m*3 19.4 C 0 km/h
2083 05-07-2010 08:42:02 19.6 C 6.92 g/m*3 19.6 C 0 km/h
2084 05-07-2010 08:54:03 19.9 C 6.7 g/m*3 19.9 C 0 km/h
2085 05-07-2010 09:06:02 20.3 C 6.33 g/m*3 20.3 C 0 km/h
2086 05-07-2010 09:18:02 20.8 C 6.88 g/m*3 20.8 C 0 km/h
2087 05-07-2010 09:30:02 21.4 C 6.75 g/m*3 21.4 C 0 km/h
2088 05-07-2010 09:42:02 21.8 C 6.72 g/m*3 21.8 C 0 km/h
2089 05-07-2010 09:54:02 22.1 C 6.64 g/m*3 22.1 C 0 km/h
2090 05-07-2010 10:06:01 22.7 C 6.06 g/m*3 22.7 C 0 km/h
2091 05-07-2010 10:18:02 23.3 C 6.48 g/m*3 23.3 C 0 km/h
2092 05-07-2010 10:30:03 23.3 C 6.48 g/m*3 23.3 C 0 km/h
2093 05-07-2010 10:42:01 24.4 C 6.45 g/m*3 24.4 C 0 km/h
2094 05-07-2010 10:54:02 24.8 C 6.6 g/m*3 24.8 C 0 km/h
2095 05-07-2010 11:06:01 24.9 C 6.87 g/m*3 24.9 C 0 km/h
2096 05-07-2010 11:18:01 26.8 C 6.62 g/m*3 26.8 C 0 km/h
2097 05-07-2010 11:30:01 27.7 C 6.69 g/m*3 27.7 C 0 km/h
2098 05-07-2010 11:42:01 26.5 C 6.26 g/m*3 26.5 C 0 km/h
2099 05-07-2010 11:54:02 26.8 C 6.62 g/m*3 26.8 C 0 km/h
2100 05-07-2010 12:06:02 27.4 C 6.58 g/m*3 27.4 C 0 km/h
Sensor: Nr:Datum:Temp:Abs-Feuchte:Windchill:Wind:
Aussen-T/F 2101 05-07-2010 12:18:02 28.2 C 6.32 g/m*3 28.2 C 0 km/h
2102 05-07-2010 12:30:02 28.1 C 6.56 g/m*3 28.1 C 0 km/h
2103 05-07-2010 12:42:02 28.2 C 6.6 g/m*3 28.2 C 0 km/h
2104 05-07-2010 12:54:02 27.8 C 6.99 g/m*3 27.8 C 0 km/h
2105 05-07-2010 13:06:02 27.6 C 7.45 g/m*3 27.6 C 0 km/h
2106 05-07-2010 13:18:01 29.6 C 7.42 g/m*3 29.6 C 0 km/h
2107 05-07-2010 13:30:01 28.9 C 7.43 g/m*3 28.9 C 0 km/h
2108 05-07-2010 13:42:02 27.1 C 7.76 g/m*3 27.1 C 0 km/h
2109 05-07-2010 13:54:02 26.2 C 7.63 g/m*3 26.2 C 0 km/h
2110 05-07-2010 14:06:02 26.5 C 7.51 g/m*3 26.5 C 0 km/h
2111 05-07-2010 14:18:01 25.8 C 7.94 g/m*3 25.8 C 0 km/h
2112 05-07-2010 14:30:01 26.1 C 8.08 g/m*3 26.1 C 0 km/h
2113 05-07-2010 14:42:02 26.4 C 8.21 g/m*3 26.4 C 0 km/h
2114 05-07-2010 14:54:02 26.2 C 8.37 g/m*3 26.2 C 0 km/h
2115 05-07-2010 15:06:02 27.2 C 8.07 g/m*3 27.2 C 0 km/h
2116 05-07-2010 15:18:02 26.5 C 8.26 g/m*3 26.5 C 0 km/h
2117 05-07-2010 15:30:02 25.8 C 7.94 g/m*3 25.8 C 0 km/h
2118 05-07-2010 15:42:02 25.1 C 8.33 g/m*3 25.1 C 0 km/h
2119 05-07-2010 15:54:02 24.7 C 8.6 g/m*3 24.7 C 0 km/h
2120 05-07-2010 16:06:02 24.2 C 8.8 g/m*3 24.2 C 0 km/h
2121 05-07-2010 16:18:02 24.2 C 9.02 g/m*3 24.2 C 0 km/h
2122 05-07-2010 16:30:02 25.4 C 8.95 g/m*3 25.4 C 0 km/h
2123 05-07-2010 16:42:02 25.1 C 8.8 g/m*3 25.1 C 0 km/h
2124 05-07-2010 16:54:02 24.9 C 8.93 g/m*3 24.9 C 0 km/h
2125 05-07-2010 17:06:02 24.7 C 9.05 g/m*3 24.7 C 0 km/h
Sensor: Nr:Datum:Temp:Abs-Feuchte:Windchill:Wind:
Aussen-T/F 2126 05-07-2010 17:18:02 24.2 C 9.02 g/m*3 24.2 C 0 km/h
2127 05-07-2010 17:30:02 23.7 C 9.41 g/m*3 23.7 C 0 km/h
2128 05-07-2010 17:42:02 22.7 C 10.71 g/m*3 22.7 C 0 km/h
2129 05-07-2010 17:54:02 22 C 11.65 g/m*3 22 C 0 km/h
2130 05-07-2010 18:06:02 22.9 C 11.65 g/m*3 22.9 C 0 km/h
2131 05-07-2010 18:18:03 23 C 10.48 g/m*3 23 C 0 km/h
2132 05-07-2010 18:30:03 21.6 C 11 g/m*3 21.6 C 0 km/h
2133 05-07-2010 18:42:02 19.4 C 12.18 g/m*3 19.4 C 0 km/h
2134 05-07-2010 18:54:02 18.6 C 12.73 g/m*3 18.6 C 0 km/h
2135 05-07-2010 19:06:02 18.5 C 13.13 g/m*3 18.5 C 0 km/h
2136 05-07-2010 19:18:02 18.9 C 13.61 g/m*3 18.9 C 0 km/h
2137 05-07-2010 19:30:02 19.7 C 14.09 g/m*3 19.7 C 0 km/h
2138 05-07-2010 19:42:02 19.6 C 13.51 g/m*3 19.6 C 0 km/h
2139 05-07-2010 19:54:02 19.9 C 13.74 g/m*3 19.9 C 0 km/h
2140 05-07-2010 20:06:02 19.9 C 13.4 g/m*3 19.9 C 0 km/h
2141 05-07-2010 20:18:02 19.8 C 13.32 g/m*3 19.8 C 0 km/h
2142 05-07-2010 20:30:02 19.3 C 13.1 g/m*3 19.3 C 0 km/h
2143 05-07-2010 20:42:02 19.1 C 12.95 g/m*3 19.1 C 0 km/h
2144 05-07-2010 20:54:02 19.1 C 12.95 g/m*3 19.1 C 0 km/h
2145 05-07-2010 21:06:02 19.1 C 13.11 g/m*3 19.1 C 0 km/h
2146 05-07-2010 21:18:02 19.1 C 12.95 g/m*3 19.1 C 0 km/h
2147 05-07-2010 21:30:02 19 C 12.87 g/m*3 19 C 0 km/h
2148 05-07-2010 21:42:01 18.9 C 12.96 g/m*3 18.9 C 0 km/h
2149 05-07-2010 21:54:02 18.7 C 12.81 g/m*3 18.7 C 0 km/h
2150 05-07-2010 22:06:01 18.7 C 12.81 g/m*3 18.7 C 0 km/h
Sensor: Nr:Datum:Temp:Abs-Feuchte:Windchill:Wind:
Aussen-T/F 2151 05-07-2010 22:18:02 18.8 C 12.88 g/m*3 18.8 C 0 km/h
2152 05-07-2010 22:30:02 18.7 C 12.81 g/m*3 18.7 C 0 km/h
2153 05-07-2010 22:42:01 18.5 C 12.66 g/m*3 18.5 C 0 km/h
2154 05-07-2010 22:54:01 18.4 C 12.74 g/m*3 18.4 C 0 km/h
2155 05-07-2010 23:07:02 18.2 C 12.59 g/m*3 18.2 C 0 km/h
2156 05-07-2010 23:19:02 18 C 12.59 g/m*3 18 C 0 km/h
2157 05-07-2010 23:31:02 17.9 C 12.67 g/m*3 17.9 C 0 km/h
2158 05-07-2010 23:43:02 17.7 C 12.37 g/m*3 17.7 C 0 km/h
2159 05-07-2010 23:55:02 17.6 C 12.15 g/m*3 17.6 C 0 km/h
2160 06-07-2010 00:07:02 17.5 C 12.08 g/m*3 17.5 C 0 km/h
2161 06-07-2010 00:19:02 17.2 C 11.86 g/m*3 17.2 C 0 km/h
2162 06-07-2010 00:31:02 17.1 C 11.94 g/m*3 17.1 C 0 km/h
2163 06-07-2010 00:43:02 17.1 C 11.94 g/m*3 17.1 C 0 km/h
2164 06-07-2010 00:55:02 17.3 C 12.08 g/m*3 17.3 C 0 km/h
2165 06-07-2010 01:07:02 17.3 C 11.93 g/m*3 17.3 C 0 km/h
2166 06-07-2010 01:19:02 17.1 C 11.79 g/m*3 17.1 C 0 km/h
2167 06-07-2010 01:31:02 17.2 C 11.86 g/m*3 17.2 C 0 km/h
2168 06-07-2010 01:43:02 17.3 C 11.79 g/m*3 17.3 C 0 km/h
2169 06-07-2010 01:55:02 17.3 C 11.49 g/m*3 17.3 C 0 km/h
2170 06-07-2010 02:07:02 17.1 C 11.21 g/m*3 17.1 C 0 km/h
2171 06-07-2010 02:19:02 17.3 C 11.49 g/m*3 17.3 C 0 km/h
2172 06-07-2010 02:31:02 16.9 C 11.22 g/m*3 16.9 C 0 km/h
2173 06-07-2010 02:43:02 16.6 C 11.16 g/m*3 16.6 C 0 km/h
2174 06-07-2010 02:55:02 16.3 C 11.24 g/m*3 16.3 C 0 km/h
2175 06-07-2010 03:07:02 16.4 C 11.31 g/m*3 16.4 C 0 km/h
Sensor: Nr:Datum:Temp:Abs-Feuchte:Windchill:Wind:
Aussen-T/F 2176 06-07-2010 03:19:03 16.4 C 11.17 g/m*3 16.4 C 0 km/h
2177 06-07-2010 03:31:03 16.5 C 10.95 g/m*3 16.5 C 0 km/h
2178 06-07-2010 03:43:03 16.4 C 10.75 g/m*3 16.4 C 0 km/h
2179 06-07-2010 03:55:03 16 C 10.22 g/m*3 16 C 0 km/h
2180 06-07-2010 04:07:03 15.7 C 10.3 g/m*3 15.7 C 0 km/h
2181 06-07-2010 04:19:03 15.4 C 10.12 g/m*3 15.4 C 0 km/h
2182 06-07-2010 04:31:03 15.1 C 10.06 g/m*3 15.1 C 0 km/h
2183 06-07-2010 04:43:03 15 C 10 g/m*3 15 C 0 km/h
2184 06-07-2010 04:55:03 14.8 C 10.01 g/m*3 14.8 C 0 km/h
2185 06-07-2010 05:07:03 14.8 C 10.13 g/m*3 14.8 C 0 km/h
2186 06-07-2010 05:19:03 15 C 10.39 g/m*3 15 C 0 km/h
2187 06-07-2010 05:31:03 15 C 10.26 g/m*3 15 C 0 km/h
2188 06-07-2010 05:43:03 14.8 C 10.26 g/m*3 14.8 C 0 km/h
2189 06-07-2010 05:55:03 14.7 C 10.2 g/m*3 14.7 C 0 km/h
2190 06-07-2010 06:07:03 14.7 C 10.2 g/m*3 14.7 C 0 km/h
2191 06-07-2010 06:19:03 14.6 C 10.01 g/m*3 14.6 C 0 km/h
2192 06-07-2010 06:31:03 14.6 C 10.01 g/m*3 14.6 C 0 km/h
2193 06-07-2010 06:43:03 14.7 C 9.69 g/m*3 14.7 C 0 km/h
2194 06-07-2010 06:55:03 14.7 C 9.69 g/m*3 14.7 C 0 km/h
2195 06-07-2010 07:07:02 14.8 C 9.75 g/m*3 14.8 C 0 km/h
2196 06-07-2010 07:19:02 14.9 C 9.81 g/m*3 14.9 C 0 km/h
2197 06-07-2010 07:31:02 15.1 C 9.68 g/m*3 15.1 C 0 km/h
2198 06-07-2010 07:43:02 15.2 C 9.61 g/m*3 15.2 C 0 km/h
2199 06-07-2010 07:55:02 15.4 C 9.72 g/m*3 15.4 C 0 km/h
2200 06-07-2010 08:07:02 15.5 C 9.65 g/m*3 15.5 C 0 km/h
Sensor: Nr:Datum:Temp:Abs-Feuchte:Windchill:Wind:
Aussen-T/F 2201 06-07-2010 08:19:02 15.7 C 9.5 g/m*3 15.7 C 0 km/h
2202 06-07-2010 08:31:01 15.8 C 9.29 g/m*3 15.8 C 0 km/h
2203 06-07-2010 08:43:01 16.1 C 9.05 g/m*3 16.1 C 0 km/h
2204 06-07-2010 08:55:02 16.4 C 8.65 g/m*3 16.4 C 0 km/h
2205 06-07-2010 09:07:01 16.8 C 8.72 g/m*3 16.8 C 0 km/h
2206 06-07-2010 09:19:01 17.3 C 8.54 g/m*3 17.3 C 0 km/h
2207 06-07-2010 09:31:02 17.5 C 8.05 g/m*3 17.5 C 0 km/h
2208 06-07-2010 09:43:02 18 C 7.99 g/m*3 18 C 0 km/h
2209 06-07-2010 09:55:02 18.1 C 8.03 g/m*3 18.1 C 0 km/h
2210 06-07-2010 10:07:01 19 C 7.66 g/m*3 19 C 0 km/h
2211 06-07-2010 10:19:01 19.4 C 7.51 g/m*3 19.4 C 0 km/h
2212 06-07-2010 10:31:02 20.2 C 7.34 g/m*3 20.2 C 0 km/h
2213 06-07-2010 10:43:02 20.4 C 7.08 g/m*3 20.4 C 0 km/h
2214 06-07-2010 10:55:02 21.1 C 6.63 g/m*3 21.1 C 0 km/h
2215 06-07-2010 11:07:02 20.9 C 6.92 g/m*3 20.9 C 0 km/h
2216 06-07-2010 11:19:02 20.7 C 6.66 g/m*3 20.7 C 0 km/h
2217 06-07-2010 11:31:02 22 C 6.79 g/m*3 22 C 0 km/h
2218 06-07-2010 11:43:03 21.3 C 6.34 g/m*3 21.3 C 0 km/h
2219 06-07-2010 11:55:02 22.5 C 6.19 g/m*3 22.5 C 0 km/h
2220 06-07-2010 12:07:02 21.9 C 6.18 g/m*3 21.9 C 0 km/h
2221 06-07-2010 12:19:02 22.7 C 5.25 g/m*3 22.7 C 0 km/h
2222 06-07-2010 12:31:02 23.3 C 5.23 g/m*3 23.3 C 0 km/h
2223 06-07-2010 12:43:02 22.5 C 5.39 g/m*3 22.5 C 0 km/h
2224 06-07-2010 12:55:02 24.7 C 5.43 g/m*3 24.7 C 0 km/h
2225 06-07-2010 13:07:02 23.6 C 5.32 g/m*3 23.6 C 0 km/h
Sensor: Nr:Datum:Temp:Abs-Feuchte:Windchill:Wind:
Aussen-T/F 2226 06-07-2010 13:19:02 24.5 C 4.92 g/m*3 24.5 C 0 km/h
2227 06-07-2010 13:31:02 27 C 5.15 g/m*3 27 C 0 km/h
2228 06-07-2010 13:43:02 23.4 C 4.63 g/m*3 23.4 C 0 km/h
2229 06-07-2010 13:55:02 24.5 C 5.15 g/m*3 24.5 C 0 km/h
2230 06-07-2010 14:07:02 24.1 C 4.59 g/m*3 24.1 C 0 km/h
2231 06-07-2010 14:19:02 23.6 C 4.68 g/m*3 23.6 C 0 km/h
2232 06-07-2010 14:31:02 23.8 C 5.16 g/m*3 23.8 C 0 km/h
2233 06-07-2010 14:43:02 25.3 C 4.68 g/m*3 25.3 C 0 km/h
2234 06-07-2010 14:55:02 24.6 C 4.5 g/m*3 24.6 C 0 km/h
2235 06-07-2010 15:07:02 24.2 C 4.4 g/m*3 24.2 C 0 km/h
2236 06-07-2010 15:19:02 24.8 C 4.55 g/m*3 24.8 C 0 km/h
2237 06-07-2010 15:31:01 23.7 C 4.28 g/m*3 23.7 C 0 km/h
2238 06-07-2010 15:43:01 24.9 C 4.58 g/m*3 24.9 C 0 km/h
2239 06-07-2010 15:55:02 25 C 4.6 g/m*3 25 C 0 km/h
2240 06-07-2010 16:07:01 25.2 C 4.66 g/m*3 25.2 C 0 km/h
2241 06-07-2010 16:19:01 25.4 C 4.71 g/m*3 25.4 C 0 km/h
2242 06-07-2010 16:31:02 26.6 C 5.03 g/m*3 26.6 C 0 km/h
2243 06-07-2010 16:43:02 25.7 C 4.79 g/m*3 25.7 C 0 km/h
2244 06-07-2010 16:55:02 26.3 C 4.95 g/m*3 26.3 C 0 km/h
2245 06-07-2010 17:07:01 27.3 C 5.23 g/m*3 27.3 C 0 km/h
2246 06-07-2010 17:19:02 26.3 C 4.95 g/m*3 26.3 C 0 km/h
2247 06-07-2010 17:31:02 26.7 C 5.06 g/m*3 26.7 C 0 km/h
2248 06-07-2010 17:43:02 27.1 C 5.18 g/m*3 27.1 C 0 km/h
2249 06-07-2010 17:55:01 27.2 C 5.2 g/m*3 27.2 C 0 km/h
2250 06-07-2010 18:07:02 25.1 C 4.63 g/m*3 25.1 C 0 km/h
Sensor: Nr:Datum:Temp:Abs-Feuchte:Windchill:Wind:
Aussen-T/F 2251 06-07-2010 18:19:01 25.3 C 4.68 g/m*3 25.3 C 0 km/h
2252 06-07-2010 18:31:02 25.5 C 4.73 g/m*3 25.5 C 0 km/h
2253 06-07-2010 18:43:02 25.3 C 4.68 g/m*3 25.3 C 0 km/h
2254 06-07-2010 18:55:02 26.1 C 4.9 g/m*3 26.1 C 0 km/h
2255 06-07-2010 19:07:02 26 C 4.87 g/m*3 26 C 0 km/h
2256 06-07-2010 19:19:01 25.8 C 5.06 g/m*3 25.8 C 0 km/h
2257 06-07-2010 19:31:02 25.1 C 4.63 g/m*3 25.1 C 0 km/h
2258 06-07-2010 19:43:03 24.1 C 4.59 g/m*3 24.1 C 0 km/h
2259 06-07-2010 19:55:02 24.3 C 4.87 g/m*3 24.3 C 0 km/h
2260 06-07-2010 20:07:02 24.7 C 4.98 g/m*3 24.7 C 0 km/h
2261 06-07-2010 20:19:01 25.2 C 4.89 g/m*3 25.2 C 0 km/h
2262 06-07-2010 20:31:02 24.3 C 5.09 g/m*3 24.3 C 0 km/h
2263 06-07-2010 20:43:02 23.7 C 5.78 g/m*3 23.7 C 0 km/h
2264 06-07-2010 20:55:02 23.6 C 5.74 g/m*3 23.6 C 0 km/h
2265 06-07-2010 21:07:02 23 C 5.96 g/m*3 23 C 0 km/h
2266 06-07-2010 21:19:02 22.3 C 6.32 g/m*3 22.3 C 0 km/h
2267 06-07-2010 21:31:02 21.2 C 6.12 g/m*3 21.2 C 0 km/h
2268 06-07-2010 21:43:02 20.5 C 6.41 g/m*3 20.5 C 0 km/h
2269 06-07-2010 21:55:02 19.8 C 6.32 g/m*3 19.8 C 0 km/h
2270 06-07-2010 22:07:02 19.3 C 6.3 g/m*3 19.3 C 0 km/h
2271 06-07-2010 22:19:02 19.1 C 6.39 g/m*3 19.1 C 0 km/h
2272 06-07-2010 22:31:02 18.9 C 6.48 g/m*3 18.9 C 0 km/h
2273 06-07-2010 22:43:02 18.6 C 6.68 g/m*3 18.6 C 0 km/h
2274 06-07-2010 22:56:03 18.3 C 6.72 g/m*3 18.3 C 0 km/h
2275 06-07-2010 23:08:03 18.1 C 6.95 g/m*3 18.1 C 0 km/h
Sensor: Nr:Datum:Temp:Abs-Feuchte:Windchill:Wind:
Aussen-T/F 2276 06-07-2010 23:20:03 17.8 C 7.13 g/m*3 17.8 C 0 km/h
2277 06-07-2010 23:32:03 17.7 C 6.79 g/m*3 17.7 C 0 km/h
2278 06-07-2010 23:44:03 17.5 C 6.56 g/m*3 17.5 C 0 km/h
2279 06-07-2010 23:56:03 17.3 C 6.63 g/m*3 17.3 C 0 km/h
2280 07-07-2010 00:08:03 16.8 C 6.72 g/m*3 16.8 C 0 km/h
2281 07-07-2010 00:20:03 16.7 C 6.82 g/m*3 16.7 C 0 km/h
2282 07-07-2010 00:32:03 16.5 C 6.74 g/m*3 16.5 C 0 km/h
2283 07-07-2010 00:44:03 16.4 C 6.98 g/m*3 16.4 C 0 km/h
2284 07-07-2010 00:56:03 16.1 C 7.13 g/m*3 16.1 C 0 km/h
2285 07-07-2010 01:08:04 15.8 C 7.27 g/m*3 15.8 C 0 km/h
2286 07-07-2010 01:20:04 15.7 C 7.36 g/m*3 15.7 C 0 km/h
2287 07-07-2010 01:32:04 15.6 C 7.45 g/m*3 15.6 C 0 km/h
2288 07-07-2010 01:44:04 15.3 C 7.44 g/m*3 15.3 C 0 km/h
2289 07-07-2010 01:56:04 15.2 C 7.53 g/m*3 15.2 C 0 km/h
2290 07-07-2010 02:08:04 15.2 C 7.53 g/m*3 15.2 C 0 km/h
2291 07-07-2010 02:20:04 15 C 7.69 g/m*3 15 C 0 km/h
2292 07-07-2010 02:32:04 14.8 C 7.73 g/m*3 14.8 C 0 km/h
2293 07-07-2010 02:44:04 14.6 C 7.63 g/m*3 14.6 C 0 km/h
2294 07-07-2010 02:56:04 14.4 C 7.79 g/m*3 14.4 C 0 km/h
2295 07-07-2010 03:08:04 14.1 C 7.77 g/m*3 14.1 C 0 km/h
2296 07-07-2010 03:20:04 13.9 C 7.79 g/m*3 13.9 C 0 km/h
2297 07-07-2010 03:32:04 14 C 7.72 g/m*3 14 C 0 km/h
2298 07-07-2010 03:44:04 13.9 C 7.79 g/m*3 13.9 C 0 km/h
2299 07-07-2010 03:56:04 13.7 C 7.82 g/m*3 13.7 C 0 km/h
2300 07-07-2010 04:08:04 13.5 C 7.72 g/m*3 13.5 C 0 km/h
Sensor: Nr:Datum:Temp:Abs-Feuchte:Windchill:Wind:
Aussen-T/F 2301 07-07-2010 04:20:04 13.4 C 7.67 g/m*3 13.4 C 0 km/h
2302 07-07-2010 04:32:04 13.3 C 7.74 g/m*3 13.3 C 0 km/h
2303 07-07-2010 04:44:04 13.2 C 7.81 g/m*3 13.2 C 0 km/h
2304 07-07-2010 04:56:04 13.1 C 7.76 g/m*3 13.1 C 0 km/h
2305 07-07-2010 05:08:04 13 C 7.83 g/m*3 13 C 0 km/h
2306 07-07-2010 05:20:04 12.9 C 8 g/m*3 12.9 C 0 km/h
2307 07-07-2010 05:32:05 12.8 C 7.95 g/m*3 12.8 C 0 km/h
2308 07-07-2010 05:44:05 12.6 C 8.08 g/m*3 12.6 C 0 km/h
2309 07-07-2010 05:56:05 12.5 C 8.14 g/m*3 12.5 C 0 km/h
2310 07-07-2010 06:08:05 12.5 C 8.14 g/m*3 12.5 C 0 km/h
2311 07-07-2010 06:20:03 12.6 C 8.19 g/m*3 12.6 C 0 km/h
2312 07-07-2010 06:32:03 12.7 C 8.24 g/m*3 12.7 C 0 km/h
2313 07-07-2010 06:44:03 12.8 C 8.29 g/m*3 12.8 C 0 km/h
2314 07-07-2010 06:56:02 12.9 C 8.34 g/m*3 12.9 C 0 km/h
2315 07-07-2010 07:08:02 13 C 8.39 g/m*3 13 C 0 km/h
2316 07-07-2010 07:20:03 13.2 C 8.38 g/m*3 13.2 C 0 km/h
2317 07-07-2010 07:32:02 13.3 C 8.32 g/m*3 13.3 C 0 km/h
2318 07-07-2010 07:44:02 13.4 C 8.37 g/m*3 13.4 C 0 km/h
2319 07-07-2010 07:56:03 13.8 C 8.46 g/m*3 13.8 C 0 km/h
2320 07-07-2010 08:08:02 14.1 C 8.37 g/m*3 14.1 C 0 km/h
2321 07-07-2010 08:20:02 14.3 C 8.23 g/m*3 14.3 C 0 km/h
2322 07-07-2010 08:32:02 14.7 C 8.44 g/m*3 14.7 C 0 km/h
2323 07-07-2010 08:44:02 15.1 C 8.39 g/m*3 15.1 C 0 km/h
2324 07-07-2010 08:56:02 15.6 C 8.11 g/m*3 15.6 C 0 km/h
2325 07-07-2010 09:08:02 16.2 C 8.14 g/m*3 16.2 C 0 km/h
Sensor: Nr:Datum:Temp:Abs-Feuchte:Windchill:Wind:
Aussen-T/F 2326 07-07-2010 09:20:02 16.9 C 8.2 g/m*3 16.9 C 0 km/h
2327 07-07-2010 09:32:02 17.7 C 8.15 g/m*3 17.7 C 0 km/h
2328 07-07-2010 09:44:02 18.4 C 8.02 g/m*3 18.4 C 0 km/h
2329 07-07-2010 09:56:02 19.1 C 8.03 g/m*3 19.1 C 0 km/h
2330 07-07-2010 10:08:01 19.8 C 8.03 g/m*3 19.8 C 0 km/h
2331 07-07-2010 10:20:01 20.3 C 8.09 g/m*3 20.3 C 0 km/h
2332 07-07-2010 10:32:02 21.3 C 8.2 g/m*3 21.3 C 0 km/h
2333 07-07-2010 10:44:02 21.7 C 8.01 g/m*3 21.7 C 0 km/h
2334 07-07-2010 10:56:02 22.1 C 7.42 g/m*3 22.1 C 0 km/h
2335 07-07-2010 11:08:02 23 C 6.58 g/m*3 23 C 0 km/h
2336 07-07-2010 11:20:02 23 C 6.17 g/m*3 23 C 0 km/h
2337 07-07-2010 11:32:02 23.5 C 5.92 g/m*3 23.5 C 0 km/h
2338 07-07-2010 11:44:02 23.9 C 5.62 g/m*3 23.9 C 0 km/h
2339 07-07-2010 11:56:01 24.7 C 5.66 g/m*3 24.7 C 0 km/h
2340 07-07-2010 12:08:02 25.4 C 5.41 g/m*3 25.4 C 0 km/h
2341 07-07-2010 12:20:01 26.1 C 5.14 g/m*3 26.1 C 0 km/h
2342 07-07-2010 12:32:01 26.5 C 5.26 g/m*3 26.5 C 0 km/h
2343 07-07-2010 12:44:01 28 C 5.44 g/m*3 28 C 0 km/h
2344 07-07-2010 12:56:02 27.9 C 5.41 g/m*3 27.9 C 0 km/h
2345 07-07-2010 13:08:02 28.1 C 5.47 g/m*3 28.1 C 0 km/h
2346 07-07-2010 13:20:01 28.4 C 5.56 g/m*3 28.4 C 0 km/h
2347 07-07-2010 13:32:02 30.1 C 6.1 g/m*3 30.1 C 0 km/h
2348 07-07-2010 13:44:02 30.5 C 6.23 g/m*3 30.5 C 0 km/h
2349 07-07-2010 13:56:02 29.8 C 6 g/m*3 29.8 C 0 km/h
2350 07-07-2010 14:08:02 28.2 C 5.5 g/m*3 28.2 C 0 km/h
Sensor: Nr:Datum:Temp:Abs-Feuchte:Windchill:Wind:
Aussen-T/F 2351 07-07-2010 14:20:01 27.7 C 5.35 g/m*3 27.7 C 0 km/h
2352 07-07-2010 14:32:02 28.1 C 5.47 g/m*3 28.1 C 0 km/h
2353 07-07-2010 14:44:02 28.9 C 5.71 g/m*3 28.9 C 0 km/h
2354 07-07-2010 14:56:02 28.8 C 5.68 g/m*3 28.8 C 0 km/h
2355 07-07-2010 15:08:02 29.3 C 5.84 g/m*3 29.3 C 0 km/h
2356 07-07-2010 15:20:02 30.1 C 6.1 g/m*3 30.1 C 0 km/h
2357 07-07-2010 15:32:02 30.1 C 6.1 g/m*3 30.1 C 0 km/h
2358 07-07-2010 15:44:02 31 C 6.4 g/m*3 31 C 0 km/h
2359 07-07-2010 15:56:02 31.5 C 6.57 g/m*3 31.5 C 0 km/h
2360 07-07-2010 16:08:02 31.8 C 6.68 g/m*3 31.8 C 0 km/h
2361 07-07-2010 16:20:02 31.9 C 6.72 g/m*3 31.9 C 0 km/h
2362 07-07-2010 16:32:02 31.7 C 6.64 g/m*3 31.7 C 0 km/h
2363 07-07-2010 16:44:02 32 C 6.75 g/m*3 32 C 0 km/h
2364 07-07-2010 16:56:01 32.4 C 6.9 g/m*3 32.4 C 0 km/h
2365 07-07-2010 17:08:02 32.5 C 6.93 g/m*3 32.5 C 0 km/h
2366 07-07-2010 17:20:02 32.1 C 6.79 g/m*3 32.1 C 0 km/h
2367 07-07-2010 17:32:02 32.7 C 7.01 g/m*3 32.7 C 0 km/h
2368 07-07-2010 17:44:02 32.6 C 6.97 g/m*3 32.6 C 0 km/h
2369 07-07-2010 17:56:02 32.8 C 7.04 g/m*3 32.8 C 0 km/h
2370 07-07-2010 18:08:02 33 C 7.12 g/m*3 33 C 0 km/h
2371 07-07-2010 18:20:02 33.2 C 7.2 g/m*3 33.2 C 0 km/h
2372 07-07-2010 18:32:01 32.8 C 7.04 g/m*3 32.8 C 0 km/h
2373 07-07-2010 18:44:01 32.8 C 7.04 g/m*3 32.8 C 0 km/h
2374 07-07-2010 18:56:02 32.6 C 6.97 g/m*3 32.6 C 0 km/h
2375 07-07-2010 19:08:02 32.5 C 6.93 g/m*3 32.5 C 0 km/h
Sensor: Nr:Datum:Temp:Abs-Feuchte:Windchill:Wind:
Aussen-T/F 2376 07-07-2010 19:20:02 32.5 C 6.93 g/m*3 32.5 C 0 km/h
2377 07-07-2010 19:32:02 32.5 C 6.93 g/m*3 32.5 C 0 km/h
2378 07-07-2010 19:44:02 32.4 C 6.9 g/m*3 32.4 C 0 km/h
2379 07-07-2010 19:56:02 32.1 C 6.79 g/m*3 32.1 C 0 km/h
2380 07-07-2010 20:08:01 32 C 6.75 g/m*3 32 C 0 km/h
2381 07-07-2010 20:20:02 31.7 C 6.64 g/m*3 31.7 C 0 km/h
2382 07-07-2010 20:32:02 31.3 C 6.5 g/m*3 31.3 C 0 km/h
2383 07-07-2010 20:44:02 30.9 C 6.37 g/m*3 30.9 C 0 km/h
2384 07-07-2010 20:56:02 30.4 C 6.2 g/m*3 30.4 C 0 km/h
2385 07-07-2010 21:08:02 29.1 C 6.35 g/m*3 29.1 C 0 km/h
2386 07-07-2010 21:20:02 27.5 C 6.61 g/m*3 27.5 C 0 km/h
2387 07-07-2010 21:32:02 26.5 C 6.76 g/m*3 26.5 C 0 km/h
2388 07-07-2010 21:44:03 25.9 C 6.78 g/m*3 25.9 C 0 km/h
2389 07-07-2010 21:56:01 25.3 C 6.79 g/m*3 25.3 C 0 km/h
2390 07-07-2010 22:08:02 24.9 C 6.87 g/m*3 24.9 C 0 km/h
2391 07-07-2010 22:20:01 24.6 C 6.75 g/m*3 24.6 C 0 km/h
2392 07-07-2010 22:32:01 24.4 C 6.9 g/m*3 24.4 C 0 km/h
2393 07-07-2010 22:44:01 24.1 C 6.78 g/m*3 24.1 C 0 km/h
2394 07-07-2010 22:56:01 24 C 6.96 g/m*3 24 C 0 km/h
2395 07-07-2010 23:08:01 23.8 C 7.1 g/m*3 23.8 C 0 km/h
2396 07-07-2010 23:20:02 23.7 C 6.84 g/m*3 23.7 C 0 km/h
2397 07-07-2010 23:32:01 23.7 C 7.06 g/m*3 23.7 C 0 km/h
2398 07-07-2010 23:44:01 23.7 C 7.27 g/m*3 23.7 C 0 km/h
2399 07-07-2010 23:56:01 23.6 C 7.23 g/m*3 23.6 C 0 km/h
2400 08-07-2010 00:08:01 23.3 C 7.32 g/m*3 23.3 C 0 km/h
Sensor: Nr:Datum:Temp:Abs-Feuchte:Windchill:Wind:
Aussen-T/F 2401 08-07-2010 00:21:04 22.8 C 7.52 g/m*3 22.8 C 0 km/h
2402 08-07-2010 00:33:04 22.3 C 7.7 g/m*3 22.3 C 0 km/h
2403 08-07-2010 00:45:04 22 C 7.96 g/m*3 22 C 0 km/h
2404 08-07-2010 00:57:04 21.5 C 8.11 g/m*3 21.5 C 0 km/h
2405 08-07-2010 01:09:04 21.1 C 7.92 g/m*3 21.1 C 0 km/h
2406 08-07-2010 01:21:04 20.8 C 7.97 g/m*3 20.8 C 0 km/h
2407 08-07-2010 01:33:04 20.4 C 7.96 g/m*3 20.4 C 0 km/h
2408 08-07-2010 01:45:04 20.3 C 8.09 g/m*3 20.3 C 0 km/h
2409 08-07-2010 01:57:04 20.1 C 8 g/m*3 20.1 C 0 km/h
2410 08-07-2010 02:09:04 20 C 8.3 g/m*3 20 C 0 km/h
2411 08-07-2010 02:21:04 19.9 C 8.42 g/m*3 19.9 C 0 km/h
2412 08-07-2010 02:33:04 19.8 C 8.2 g/m*3 19.8 C 0 km/h
2413 08-07-2010 02:45:04 19.7 C 7.98 g/m*3 19.7 C 0 km/h
2414 08-07-2010 02:57:05 19.5 C 8.06 g/m*3 19.5 C 0 km/h
2415 08-07-2010 03:09:05 19.4 C 8.01 g/m*3 19.4 C 0 km/h
2416 08-07-2010 03:21:05 19.6 C 8.1 g/m*3 19.6 C 0 km/h
2417 08-07-2010 03:33:05 19.6 C 8.1 g/m*3 19.6 C 0 km/h
2418 08-07-2010 03:45:05 19.3 C 8.29 g/m*3 19.3 C 0 km/h
2419 08-07-2010 03:57:05 19.1 C 8.2 g/m*3 19.1 C 0 km/h
2420 08-07-2010 04:09:05 18.8 C 8.21 g/m*3 18.8 C 0 km/h
2421 08-07-2010 04:21:05 18.7 C 8.33 g/m*3 18.7 C 0 km/h
2422 08-07-2010 04:33:05 18.4 C 8.18 g/m*3 18.4 C 0 km/h
2423 08-07-2010 04:45:05 18.4 C 8.65 g/m*3 18.4 C 0 km/h
2424 08-07-2010 04:57:05 18.3 C 8.76 g/m*3 18.3 C 0 km/h
2425 08-07-2010 05:09:05 18.1 C 8.5 g/m*3 18.1 C 0 km/h
Sensor: Nr:Datum:Temp:Abs-Feuchte:Windchill:Wind:
Aussen-T/F 2426 08-07-2010 05:21:05 17.9 C 8.4 g/m*3 17.9 C 0 km/h
2427 08-07-2010 05:33:05 17.8 C 8.5 g/m*3 17.8 C 0 km/h
2428 08-07-2010 05:45:05 17.6 C 8.4 g/m*3 17.6 C 0 km/h
2429 08-07-2010 05:57:05 17.5 C 8.2 g/m*3 17.5 C 0 km/h
2430 08-07-2010 06:09:05 17.4 C 8.15 g/m*3 17.4 C 0 km/h
2431 08-07-2010 06:21:03 17.3 C 8.4 g/m*3 17.3 C 0 km/h
2432 08-07-2010 06:33:03 17.3 C 8.4 g/m*3 17.3 C 0 km/h
2433 08-07-2010 06:45:02 17.4 C 8.74 g/m*3 17.4 C 0 km/h
2434 08-07-2010 06:57:02 17.5 C 8.8 g/m*3 17.5 C 0 km/h
2435 08-07-2010 07:09:02 17.7 C 8.9 g/m*3 17.7 C 0 km/h
2436 08-07-2010 07:21:02 17.7 C 8.9 g/m*3 17.7 C 0 km/h
2437 08-07-2010 07:33:01 17.9 C 9.01 g/m*3 17.9 C 0 km/h
2438 08-07-2010 07:45:02 18.1 C 8.96 g/m*3 18.1 C 0 km/h
2439 08-07-2010 07:57:02 18.2 C 8.86 g/m*3 18.2 C 0 km/h
2440 08-07-2010 08:09:01 18.5 C 9.02 g/m*3 18.5 C 0 km/h
2441 08-07-2010 08:21:02 18.7 C 8.81 g/m*3 18.7 C 0 km/h
2442 08-07-2010 08:33:01 19.1 C 8.85 g/m*3 19.1 C 0 km/h
2443 08-07-2010 08:45:02 19.4 C 8.84 g/m*3 19.4 C 0 km/h
2444 08-07-2010 08:57:02 19.9 C 8.93 g/m*3 19.9 C 0 km/h
2445 08-07-2010 09:09:02 20.6 C 9.13 g/m*3 20.6 C 0 km/h
2446 08-07-2010 09:21:02 21.3 C 9.32 g/m*3 21.3 C 0 km/h
2447 08-07-2010 09:33:02 22.3 C 9.08 g/m*3 22.3 C 0 km/h
2448 08-07-2010 09:45:02 23.1 C 9.1 g/m*3 23.1 C 0 km/h
2449 08-07-2010 09:57:03 23.9 C 9.09 g/m*3 23.9 C 0 km/h
2450 08-07-2010 10:09:01 24.6 C 9.23 g/m*3 24.6 C 0 km/h
Sensor: Nr:Datum:Temp:Abs-Feuchte:Windchill:Wind:
Aussen-T/F 2451 08-07-2010 10:21:01 25.3 C 8.66 g/m*3 25.3 C 0 km/h
2452 08-07-2010 10:33:02 26 C 9.01 g/m*3 26 C 0 km/h
2453 08-07-2010 10:45:02 26.5 C 9.01 g/m*3 26.5 C 0 km/h
2454 08-07-2010 10:57:02 27.4 C 8.68 g/m*3 27.4 C 0 km/h
2455 08-07-2010 11:09:02 27.8 C 6.99 g/m*3 27.8 C 0 km/h
2456 08-07-2010 11:21:01 28.6 C 7.03 g/m*3 28.6 C 0 km/h
2457 08-07-2010 11:33:02 29.3 C 7.01 g/m*3 29.3 C 0 km/h
2458 08-07-2010 11:45:02 29.9 C 7.54 g/m*3 29.9 C 0 km/h
2459 08-07-2010 11:57:02 30.3 C 6.78 g/m*3 30.3 C 0 km/h
2460 08-07-2010 12:09:02 30.8 C 6.33 g/m*3 30.8 C 0 km/h
2461 08-07-2010 12:21:01 31.4 C 6.54 g/m*3 31.4 C 0 km/h
2462 08-07-2010 12:33:02 31.8 C 6.68 g/m*3 31.8 C 0 km/h
2463 08-07-2010 12:45:02 31.9 C 6.72 g/m*3 31.9 C 0 km/h
2464 08-07-2010 12:57:02 31.6 C 6.61 g/m*3 31.6 C 0 km/h
2465 08-07-2010 13:09:02 32.1 C 6.79 g/m*3 32.1 C 0 km/h
2466 08-07-2010 13:21:01 32.8 C 7.04 g/m*3 32.8 C 0 km/h
2467 08-07-2010 13:33:02 33 C 7.12 g/m*3 33 C 0 km/h
2468 08-07-2010 13:45:01 33.3 C 7.23 g/m*3 33.3 C 0 km/h
2469 08-07-2010 13:57:01 33.2 C 7.2 g/m*3 33.2 C 0 km/h
2470 08-07-2010 14:09:02 32.5 C 6.93 g/m*3 32.5 C 0 km/h
2471 08-07-2010 14:21:01 32.3 C 6.86 g/m*3 32.3 C 0 km/h
2472 08-07-2010 14:33:02 32.3 C 6.86 g/m*3 32.3 C 0 km/h
2473 08-07-2010 14:45:01 32.3 C 6.86 g/m*3 32.3 C 0 km/h
2474 08-07-2010 14:57:01 32.4 C 6.9 g/m*3 32.4 C 0 km/h
2475 08-07-2010 15:09:02 32.7 C 7.01 g/m*3 32.7 C 0 km/h
Sensor: Nr:Datum:Temp:Abs-Feuchte:Windchill:Wind:
Aussen-T/F 2476 08-07-2010 15:21:01 32.9 C 7.08 g/m*3 32.9 C 0 km/h
2477 08-07-2010 15:33:01 33.3 C 7.23 g/m*3 33.3 C 0 km/h
2478 08-07-2010 15:45:01 33.7 C 7.39 g/m*3 33.7 C 0 km/h
2479 08-07-2010 15:57:01 33.7 C 7.39 g/m*3 33.7 C 0 km/h
2480 08-07-2010 16:09:02 33.8 C 7.43 g/m*3 33.8 C 0 km/h
2481 08-07-2010 16:21:02 33.8 C 7.43 g/m*3 33.8 C 0 km/h
2482 08-07-2010 16:33:01 33.9 C 7.46 g/m*3 33.9 C 0 km/h
2483 08-07-2010 16:45:01 33.3 C 7.23 g/m*3 33.3 C 0 km/h
2484 08-07-2010 16:57:01 33.3 C 7.23 g/m*3 33.3 C 0 km/h
2485 08-07-2010 17:09:01 33.3 C 7.23 g/m*3 33.3 C 0 km/h
2486 08-07-2010 17:21:02 33.5 C 7.31 g/m*3 33.5 C 0 km/h
2487 08-07-2010 17:33:01 34.2 C 7.58 g/m*3 34.2 C 0 km/h
2488 08-07-2010 17:45:03 34.6 C 7.74 g/m*3 34.6 C 0 km/h
2489 08-07-2010 17:57:03 34.2 C 7.58 g/m*3 34.2 C 0 km/h
2490 08-07-2010 18:09:02 34.7 C 7.78 g/m*3 34.7 C 0 km/h
2491 08-07-2010 18:21:02 34 C 7.5 g/m*3 34 C 0 km/h
2492 08-07-2010 18:33:02 34.2 C 7.58 g/m*3 34.2 C 0 km/h
2493 08-07-2010 18:45:02 34.4 C 7.66 g/m*3 34.4 C 0 km/h
2494 08-07-2010 18:57:02 34.6 C 7.74 g/m*3 34.6 C 0 km/h
2495 08-07-2010 19:09:02 34.5 C 7.7 g/m*3 34.5 C 0 km/h
2496 08-07-2010 19:21:02 34.4 C 7.66 g/m*3 34.4 C 0 km/h
2497 08-07-2010 19:33:02 34.1 C 7.54 g/m*3 34.1 C 0 km/h
2498 08-07-2010 19:45:02 33.9 C 7.46 g/m*3 33.9 C 0 km/h
2499 08-07-2010 19:57:03 33.8 C 7.43 g/m*3 33.8 C 0 km/h
2500 08-07-2010 20:09:01 33.7 C 7.39 g/m*3 33.7 C 0 km/h
Sensor: Nr:Datum:Temp:Abs-Feuchte:Windchill:Wind:
Aussen-T/F 2501 08-07-2010 20:21:01 33.3 C 7.23 g/m*3 33.3 C 0 km/h
2502 08-07-2010 20:33:02 33 C 7.12 g/m*3 33 C 0 km/h
2503 08-07-2010 20:45:02 32.7 C 7.01 g/m*3 32.7 C 0 km/h
2504 08-07-2010 20:57:02 32.3 C 7.2 g/m*3 32.3 C 0 km/h
2505 08-07-2010 21:09:02 31.4 C 7.52 g/m*3 31.4 C 0 km/h
2506 08-07-2010 21:21:02 30.4 C 8.37 g/m*3 30.4 C 0 km/h
2507 08-07-2010 21:33:02 29.9 C 8.45 g/m*3 29.9 C 0 km/h
2508 08-07-2010 21:45:02 29.3 C 8.47 g/m*3 29.3 C 0 km/h
2509 08-07-2010 21:57:02 28.9 C 8.57 g/m*3 28.9 C 0 km/h
2510 08-07-2010 22:09:03 28.4 C 8.06 g/m*3 28.4 C 0 km/h
2511 08-07-2010 22:21:02 28.3 C 8.29 g/m*3 28.3 C 0 km/h
2512 08-07-2010 22:33:02 28 C 8.16 g/m*3 28 C 0 km/h
2513 08-07-2010 22:46:02 27.8 C 8.34 g/m*3 27.8 C 0 km/h
2514 08-07-2010 22:58:02 27.6 C 8.25 g/m*3 27.6 C 0 km/h
2515 08-07-2010 23:10:02 27.5 C 8.2 g/m*3 27.5 C 0 km/h
2516 08-07-2010 23:22:02 27.2 C 8.33 g/m*3 27.2 C 0 km/h
2517 08-07-2010 23:34:03 27 C 7.98 g/m*3 27 C 0 km/h
2518 08-07-2010 23:46:03 27 C 7.98 g/m*3 27 C 0 km/h
2519 08-07-2010 23:58:03 26.9 C 7.93 g/m*3 26.9 C 0 km/h
2520 09-07-2010 00:10:03 26.8 C 7.89 g/m*3 26.8 C 0 km/h
2521 09-07-2010 00:22:03 26.2 C 8.12 g/m*3 26.2 C 0 km/h
2522 09-07-2010 00:34:03 25.5 C 8.29 g/m*3 25.5 C 0 km/h
2523 09-07-2010 00:46:03 25.3 C 8.66 g/m*3 25.3 C 0 km/h
2524 09-07-2010 00:58:03 24.5 C 8.95 g/m*3 24.5 C 0 km/h
2525 09-07-2010 01:10:03 24.3 C 8.85 g/m*3 24.3 C 0 km/h
Sensor: Nr:Datum:Temp:Abs-Feuchte:Windchill:Wind:
Aussen-T/F 2526 09-07-2010 01:22:03 24.1 C 8.75 g/m*3 24.1 C 0 km/h
2527 09-07-2010 01:34:03 23.7 C 8.77 g/m*3 23.7 C 0 km/h
2528 09-07-2010 01:46:03 23.5 C 8.88 g/m*3 23.5 C 0 km/h
2529 09-07-2010 01:58:03 23.3 C 8.78 g/m*3 23.3 C 0 km/h
2530 09-07-2010 02:10:03 23 C 8.84 g/m*3 23 C 0 km/h
2531 09-07-2010 02:22:03 22.8 C 9.14 g/m*3 22.8 C 0 km/h
2532 09-07-2010 02:34:03 22.4 C 9.14 g/m*3 22.4 C 0 km/h
2533 09-07-2010 02:46:03 22 C 8.73 g/m*3 22 C 0 km/h
2534 09-07-2010 02:58:03 21.8 C 8.83 g/m*3 21.8 C 0 km/h
2535 09-07-2010 03:10:03 21.7 C 8.97 g/m*3 21.7 C 0 km/h
2536 09-07-2010 03:22:03 21.4 C 9.37 g/m*3 21.4 C 0 km/h
2537 09-07-2010 03:34:03 21.3 C 9.32 g/m*3 21.3 C 0 km/h
2538 09-07-2010 03:46:04 21 C 9.16 g/m*3 21 C 0 km/h
2539 09-07-2010 03:58:04 20.8 C 9.23 g/m*3 20.8 C 0 km/h
2540 09-07-2010 04:10:04 20.5 C 9.43 g/m*3 20.5 C 0 km/h
2541 09-07-2010 04:22:04 20.3 C 9.32 g/m*3 20.3 C 0 km/h
2542 09-07-2010 04:34:04 20.2 C 9.44 g/m*3 20.2 C 0 km/h
2543 09-07-2010 04:46:04 20 C 9.51 g/m*3 20 C 0 km/h
2544 09-07-2010 04:58:04 19.8 C 9.57 g/m*3 19.8 C 0 km/h
2545 09-07-2010 05:10:04 19.4 C 9.51 g/m*3 19.4 C 0 km/h
2546 09-07-2010 05:22:04 19.3 C 9.45 g/m*3 19.3 C 0 km/h
2547 09-07-2010 05:34:04 19.2 C 9.4 g/m*3 19.2 C 0 km/h
2548 09-07-2010 05:46:04 19.1 C 9.51 g/m*3 19.1 C 0 km/h
2549 09-07-2010 05:58:04 19.1 C 9.51 g/m*3 19.1 C 0 km/h
2550 09-07-2010 06:10:04 19 C 9.78 g/m*3 19 C 0 km/h
Sensor: Nr:Datum:Temp:Abs-Feuchte:Windchill:Wind:
Aussen-T/F 2551 09-07-2010 06:22:04 19.1 C 9.84 g/m*3 19.1 C 0 km/h
2552 09-07-2010 06:34:04 18.9 C 10.04 g/m*3 18.9 C 0 km/h
2553 09-07-2010 06:46:04 19.1 C 10 g/m*3 19.1 C 0 km/h
2554 09-07-2010 06:58:04 19.2 C 10.22 g/m*3 19.2 C 0 km/h
2555 09-07-2010 07:10:02 19.3 C 10.12 g/m*3 19.3 C 0 km/h
2556 09-07-2010 07:22:02 19.4 C 10.18 g/m*3 19.4 C 0 km/h
2557 09-07-2010 07:34:02 19.9 C 10.31 g/m*3 19.9 C 0 km/h
2558 09-07-2010 07:46:02 20.3 C 9.85 g/m*3 20.3 C 0 km/h
2559 09-07-2010 07:58:02 20.6 C 10.02 g/m*3 20.6 C 0 km/h
2560 09-07-2010 08:10:01 20.8 C 9.96 g/m*3 20.8 C 0 km/h
2561 09-07-2010 08:22:01 21.3 C 10.07 g/m*3 21.3 C 0 km/h
2562 09-07-2010 08:34:02 21.5 C 9.99 g/m*3 21.5 C 0 km/h
2563 09-07-2010 08:46:02 21.8 C 9.98 g/m*3 21.8 C 0 km/h
2564 09-07-2010 08:58:02 22.1 C 9.76 g/m*3 22.1 C 0 km/h
2565 09-07-2010 09:10:02 22.6 C 10.04 g/m*3 22.6 C 0 km/h
2566 09-07-2010 09:22:02 23.3 C 10.04 g/m*3 23.3 C 0 km/h
2567 09-07-2010 09:34:02 24.1 C 10.06 g/m*3 24.1 C 0 km/h
2568 09-07-2010 09:46:02 25 C 10.13 g/m*3 25 C 0 km/h
2569 09-07-2010 09:58:02 25.8 C 10.35 g/m*3 25.8 C 0 km/h
2570 09-07-2010 10:10:02 26.5 C 10.26 g/m*3 26.5 C 0 km/h
2571 09-07-2010 10:22:02 27.3 C 10.2 g/m*3 27.3 C 0 km/h
2572 09-07-2010 10:34:02 27.8 C 10.49 g/m*3 27.8 C 0 km/h
2573 09-07-2010 10:46:01 28.8 C 10.23 g/m*3 28.8 C 0 km/h
2574 09-07-2010 10:58:01 29.3 C 10.22 g/m*3 29.3 C 0 km/h
2575 09-07-2010 11:10:02 30 C 10.01 g/m*3 30 C 0 km/h
Sensor: Nr:Datum:Temp:Abs-Feuchte:Windchill:Wind:
Aussen-T/F 2576 09-07-2010 11:22:01 30.2 C 10.42 g/m*3 30.2 C 0 km/h
2577 09-07-2010 11:34:01 30.8 C 9.5 g/m*3 30.8 C 0 km/h
2578 09-07-2010 11:46:01 31.3 C 8.46 g/m*3 31.3 C 0 km/h
2579 09-07-2010 11:58:01 31.8 C 7.35 g/m*3 31.8 C 0 km/h
2580 09-07-2010 12:10:02 32.3 C 6.86 g/m*3 32.3 C 0 km/h
2581 09-07-2010 12:22:01 32.7 C 7.01 g/m*3 32.7 C 0 km/h
2582 09-07-2010 12:34:01 33.2 C 7.2 g/m*3 33.2 C 0 km/h
2583 09-07-2010 12:46:01 33.6 C 7.35 g/m*3 33.6 C 0 km/h
2584 09-07-2010 12:58:01 33.9 C 7.46 g/m*3 33.9 C 0 km/h
2585 09-07-2010 13:10:02 34.2 C 7.58 g/m*3 34.2 C 0 km/h
2586 09-07-2010 13:22:02 34.2 C 7.58 g/m*3 34.2 C 0 km/h
2587 09-07-2010 13:34:01 34.6 C 7.74 g/m*3 34.6 C 0 km/h
2588 09-07-2010 13:46:01 35 C 7.91 g/m*3 35 C 0 km/h
2589 09-07-2010 13:58:01 34.8 C 7.82 g/m*3 34.8 C 0 km/h
2590 09-07-2010 14:10:02 33.9 C 7.46 g/m*3 33.9 C 0 km/h
2591 09-07-2010 14:22:02 33.5 C 7.31 g/m*3 33.5 C 0 km/h
2592 09-07-2010 14:34:01 33.1 C 7.16 g/m*3 33.1 C 0 km/h
2593 09-07-2010 14:46:01 33 C 7.12 g/m*3 33 C 0 km/h
2594 09-07-2010 14:58:01 32.8 C 7.04 g/m*3 32.8 C 0 km/h
2595 09-07-2010 15:10:02 33.2 C 7.2 g/m*3 33.2 C 0 km/h
2596 09-07-2010 15:22:02 33.2 C 7.2 g/m*3 33.2 C 0 km/h
2597 09-07-2010 15:34:01 33.8 C 7.43 g/m*3 33.8 C 0 km/h
2598 09-07-2010 15:46:02 33.9 C 7.46 g/m*3 33.9 C 0 km/h
2599 09-07-2010 15:58:02 33.3 C 7.23 g/m*3 33.3 C 0 km/h
2600 09-07-2010 16:10:01 33.2 C 7.2 g/m*3 33.2 C 0 km/h
Sensor: Nr:Datum:Temp:Abs-Feuchte:Windchill:Wind:
Aussen-T/F 2601 09-07-2010 16:22:02 32.9 C 7.08 g/m*3 32.9 C 0 km/h
2602 09-07-2010 16:34:01 32.1 C 7.13 g/m*3 32.1 C 0 km/h
2603 09-07-2010 16:46:03 31.8 C 8.35 g/m*3 31.8 C 0 km/h
2604 09-07-2010 16:58:03 31.4 C 8.83 g/m*3 31.4 C 0 km/h
2605 09-07-2010 17:10:02 31.2 C 8.73 g/m*3 31.2 C 0 km/h
2606 09-07-2010 17:22:02 31.8 C 8.35 g/m*3 31.8 C 0 km/h
2607 09-07-2010 17:34:02 32.8 C 7.04 g/m*3 32.8 C 0 km/h
2608 09-07-2010 17:46:02 32.7 C 7.36 g/m*3 32.7 C 0 km/h
2609 09-07-2010 17:58:02 33.1 C 7.16 g/m*3 33.1 C 0 km/h
2610 09-07-2010 18:10:02 33.2 C 7.2 g/m*3 33.2 C 0 km/h
2611 09-07-2010 18:22:02 33.4 C 7.27 g/m*3 33.4 C 0 km/h
2612 09-07-2010 18:34:02 33.1 C 7.16 g/m*3 33.1 C 0 km/h
2613 09-07-2010 18:46:02 33.6 C 7.35 g/m*3 33.6 C 0 km/h
2614 09-07-2010 18:58:02 33.8 C 7.43 g/m*3 33.8 C 0 km/h
2615 09-07-2010 19:10:03 33.6 C 7.35 g/m*3 33.6 C 0 km/h
2616 09-07-2010 19:22:03 33.5 C 7.31 g/m*3 33.5 C 0 km/h
2617 09-07-2010 19:34:03 33.5 C 7.31 g/m*3 33.5 C 0 km/h
2618 09-07-2010 19:46:01 33.5 C 7.31 g/m*3 33.5 C 0 km/h
2619 09-07-2010 19:58:01 33.3 C 7.23 g/m*3 33.3 C 0 km/h
2620 09-07-2010 20:10:01 33.1 C 7.16 g/m*3 33.1 C 0 km/h
2621 09-07-2010 20:22:00 32.9 C 7.08 g/m*3 32.9 C 0 km/h
2622 09-07-2010 20:34:01 32.1 C 7.47 g/m*3 32.1 C 0 km/h
2623 09-07-2010 20:46:01 31.3 C 7.81 g/m*3 31.3 C 0 km/h
2624 09-07-2010 20:58:01 30.8 C 8.23 g/m*3 30.8 C 0 km/h
2625 09-07-2010 21:10:02 30.4 C 8.37 g/m*3 30.4 C 0 km/h
Sensor: Nr:Datum:Temp:Abs-Feuchte:Windchill:Wind:
Aussen-T/F 2626 09-07-2010 21:22:01 30.2 C 8.58 g/m*3 30.2 C 0 km/h
2627 09-07-2010 21:34:01 30 C 8.79 g/m*3 30 C 0 km/h
2628 09-07-2010 21:46:02 29.6 C 8.9 g/m*3 29.6 C 0 km/h
2629 09-07-2010 21:58:02 29.5 C 8.85 g/m*3 29.5 C 0 km/h
2630 09-07-2010 22:10:02 29.2 C 9 g/m*3 29.2 C 0 km/h
2631 09-07-2010 22:22:02 28.9 C 9.43 g/m*3 28.9 C 0 km/h
2632 09-07-2010 22:34:02 28.9 C 9.71 g/m*3 28.9 C 0 km/h
2633 09-07-2010 22:47:03 28.6 C 9.84 g/m*3 28.6 C 0 km/h
2634 09-07-2010 22:59:03 28.3 C 9.4 g/m*3 28.3 C 0 km/h
2635 09-07-2010 23:11:03 28 C 9.25 g/m*3 28 C 0 km/h
2636 09-07-2010 23:23:04 27.9 C 9.47 g/m*3 27.9 C 0 km/h
2637 09-07-2010 23:35:04 27.8 C 9.68 g/m*3 27.8 C 0 km/h
2638 09-07-2010 23:47:04 27.6 C 9.84 g/m*3 27.6 C 0 km/h
2639 09-07-2010 23:59:04 27.6 C 9.84 g/m*3 27.6 C 0 km/h
2640 10-07-2010 00:11:04 27 C 9.78 g/m*3 27 C 0 km/h
2641 10-07-2010 00:23:04 26.6 C 10.07 g/m*3 26.6 C 0 km/h
2642 10-07-2010 00:35:04 26.3 C 10.15 g/m*3 26.3 C 0 km/h
2643 10-07-2010 00:47:04 25.9 C 10.17 g/m*3 25.9 C 0 km/h
2644 10-07-2010 00:59:04 25.7 C 10.29 g/m*3 25.7 C 0 km/h
2645 10-07-2010 01:11:04 25.3 C 10.3 g/m*3 25.3 C 0 km/h
2646 10-07-2010 01:23:04 25.2 C 10.48 g/m*3 25.2 C 0 km/h
2647 10-07-2010 01:35:04 24.8 C 10.7 g/m*3 24.8 C 0 km/h
2648 10-07-2010 01:47:04 24.8 C 10.7 g/m*3 24.8 C 0 km/h
2649 10-07-2010 01:59:04 24.7 C 10.64 g/m*3 24.7 C 0 km/h
2650 10-07-2010 02:11:04 24.5 C 10.52 g/m*3 24.5 C 0 km/h
Sensor: Nr:Datum:Temp:Abs-Feuchte:Windchill:Wind:
Aussen-T/F 2651 10-07-2010 02:23:04 24.5 C 10.74 g/m*3 24.5 C 0 km/h
2652 10-07-2010 02:35:04 24.2 C 10.78 g/m*3 24.2 C 0 km/h
2653 10-07-2010 02:47:04 24.1 C 10.94 g/m*3 24.1 C 0 km/h
2654 10-07-2010 02:59:04 23.7 C 10.91 g/m*3 23.7 C 0 km/h
2655 10-07-2010 03:11:04 23.5 C 11.21 g/m*3 23.5 C 0 km/h
2656 10-07-2010 03:23:04 23.2 C 11.23 g/m*3 23.2 C 0 km/h
2657 10-07-2010 03:35:05 23.1 C 11.58 g/m*3 23.1 C 0 km/h
2658 10-07-2010 03:47:05 22.9 C 11.44 g/m*3 22.9 C 0 km/h
2659 10-07-2010 03:59:05 22.8 C 11.58 g/m*3 22.8 C 0 km/h
2660 10-07-2010 04:11:05 22.7 C 11.52 g/m*3 22.7 C 0 km/h
2661 10-07-2010 04:23:05 22.5 C 11.39 g/m*3 22.5 C 0 km/h
2662 10-07-2010 04:35:05 22.3 C 11.45 g/m*3 22.3 C 0 km/h
2663 10-07-2010 04:47:05 22.2 C 11.58 g/m*3 22.2 C 0 km/h
2664 10-07-2010 04:59:05 22 C 11.45 g/m*3 22 C 0 km/h
2665 10-07-2010 05:11:05 21.8 C 11.7 g/m*3 21.8 C 0 km/h
2666 10-07-2010 05:23:05 21.8 C 11.7 g/m*3 21.8 C 0 km/h
2667 10-07-2010 05:35:05 21.7 C 11.64 g/m*3 21.7 C 0 km/h
2668 10-07-2010 05:47:05 21.6 C 11.57 g/m*3 21.6 C 0 km/h
2669 10-07-2010 05:59:05 21.3 C 11.74 g/m*3 21.3 C 0 km/h
2670 10-07-2010 06:11:05 21.2 C 11.86 g/m*3 21.2 C 0 km/h
2671 10-07-2010 06:23:05 21.1 C 11.98 g/m*3 21.1 C 0 km/h
2672 10-07-2010 06:35:03 21.3 C 11.93 g/m*3 21.3 C 0 km/h
2673 10-07-2010 06:47:02 21.3 C 11.93 g/m*3 21.3 C 0 km/h
2674 10-07-2010 06:59:02 21.6 C 12.14 g/m*3 21.6 C 0 km/h
2675 10-07-2010 07:11:02 21.6 C 11.95 g/m*3 21.6 C 0 km/h
Sensor: Nr:Datum:Temp:Abs-Feuchte:Windchill:Wind:
Aussen-T/F 2676 10-07-2010 07:23:01 21.6 C 12.14 g/m*3 21.6 C 0 km/h
2677 10-07-2010 07:35:01 21.8 C 12.47 g/m*3 21.8 C 0 km/h
2678 10-07-2010 07:47:01 22.1 C 12.3 g/m*3 22.1 C 0 km/h
2679 10-07-2010 07:59:01 22.4 C 12.31 g/m*3 22.4 C 0 km/h
2680 10-07-2010 08:11:01 22.7 C 12.32 g/m*3 22.7 C 0 km/h
2681 10-07-2010 08:23:02 23 C 11.92 g/m*3 23 C 0 km/h
2682 10-07-2010 08:35:01 23.3 C 11.92 g/m*3 23.3 C 0 km/h
2683 10-07-2010 08:47:02 23.7 C 11.98 g/m*3 23.7 C 0 km/h
2684 10-07-2010 08:59:02 24.2 C 11.88 g/m*3 24.2 C 0 km/h
2685 10-07-2010 09:11:02 24.6 C 11.93 g/m*3 24.6 C 0 km/h
2686 10-07-2010 09:23:02 25.2 C 11.87 g/m*3 25.2 C 0 km/h
2687 10-07-2010 09:35:02 25.9 C 11.62 g/m*3 25.9 C 0 km/h
2688 10-07-2010 09:47:02 26.8 C 11.45 g/m*3 26.8 C 0 km/h
2689 10-07-2010 09:59:02 27.7 C 11.77 g/m*3 27.7 C 0 km/h
2690 10-07-2010 10:11:02 28.1 C 11.48 g/m*3 28.1 C 0 km/h
2691 10-07-2010 10:23:02 28.9 C 12 g/m*3 28.9 C 0 km/h
2692 10-07-2010 10:35:02 29.8 C 11.7 g/m*3 29.8 C 0 km/h
2693 10-07-2010 10:47:02 30 C 11.22 g/m*3 30 C 0 km/h
2694 10-07-2010 10:59:02 30.4 C 11.16 g/m*3 30.4 C 0 km/h
2695 10-07-2010 11:11:02 30.9 C 10.5 g/m*3 30.9 C 0 km/h
2696 10-07-2010 11:23:02 31.2 C 9.7 g/m*3 31.2 C 0 km/h
2697 10-07-2010 11:35:02 31.3 C 8.78 g/m*3 31.3 C 0 km/h
2698 10-07-2010 11:47:02 31.8 C 8.68 g/m*3 31.8 C 0 km/h
2699 10-07-2010 11:59:02 32.1 C 8.48 g/m*3 32.1 C 0 km/h
2700 10-07-2010 12:11:02 32.6 C 8.02 g/m*3 32.6 C 0 km/h
Sensor: Nr:Datum:Temp:Abs-Feuchte:Windchill:Wind:
Aussen-T/F 2701 10-07-2010 12:23:02 32.9 C 7.08 g/m*3 32.9 C 0 km/h
2702 10-07-2010 12:35:02 33.5 C 7.31 g/m*3 33.5 C 0 km/h
2703 10-07-2010 12:47:02 34 C 7.5 g/m*3 34 C 0 km/h
2704 10-07-2010 12:59:02 34.1 C 7.54 g/m*3 34.1 C 0 km/h
2705 10-07-2010 13:11:02 34.2 C 7.58 g/m*3 34.2 C 0 km/h
2706 10-07-2010 13:23:02 34.8 C 7.82 g/m*3 34.8 C 0 km/h
2707 10-07-2010 13:35:02 35.1 C 7.95 g/m*3 35.1 C 0 km/h
2708 10-07-2010 13:47:02 35.1 C 7.95 g/m*3 35.1 C 0 km/h
2709 10-07-2010 13:59:02 34.8 C 7.82 g/m*3 34.8 C 0 km/h
2710 10-07-2010 14:11:02 34.5 C 7.7 g/m*3 34.5 C 0 km/h
2711 10-07-2010 14:23:01 34.6 C 7.74 g/m*3 34.6 C 0 km/h
2712 10-07-2010 14:35:02 34.6 C 7.74 g/m*3 34.6 C 0 km/h
2713 10-07-2010 14:47:01 34.3 C 7.62 g/m*3 34.3 C 0 km/h
2714 10-07-2010 14:59:01 34.2 C 7.58 g/m*3 34.2 C 0 km/h
2715 10-07-2010 15:11:02 34.8 C 7.82 g/m*3 34.8 C 0 km/h
2716 10-07-2010 15:23:02 35.1 C 7.95 g/m*3 35.1 C 0 km/h
2717 10-07-2010 15:35:01 35.2 C 7.99 g/m*3 35.2 C 0 km/h
2718 10-07-2010 15:47:02 35.4 C 8.07 g/m*3 35.4 C 0 km/h
2719 10-07-2010 15:59:02 35.5 C 8.11 g/m*3 35.5 C 0 km/h
2720 10-07-2010 16:11:01 35.4 C 8.07 g/m*3 35.4 C 0 km/h
2721 10-07-2010 16:23:02 35.6 C 8.16 g/m*3 35.6 C 0 km/h
2722 10-07-2010 16:35:01 35.7 C 8.2 g/m*3 35.7 C 0 km/h
2723 10-07-2010 16:47:03 35.7 C 8.2 g/m*3 35.7 C 0 km/h
2724 10-07-2010 16:59:03 35.7 C 8.2 g/m*3 35.7 C 0 km/h
2725 10-07-2010 17:11:02 35.7 C 8.2 g/m*3 35.7 C 0 km/h
Sensor: Nr:Datum:Temp:Abs-Feuchte:Windchill:Wind:
Aussen-T/F 2726 10-07-2010 17:23:03 35.9 C 8.28 g/m*3 35.9 C 0 km/h
2727 10-07-2010 17:35:02 35.8 C 8.24 g/m*3 35.8 C 0 km/h
2728 10-07-2010 17:47:03 36 C 8.33 g/m*3 36 C 0 km/h
2729 10-07-2010 17:59:03 35.6 C 8.16 g/m*3 35.6 C 0 km/h
2730 10-07-2010 18:11:02 35.8 C 8.24 g/m*3 35.8 C 0 km/h
2731 10-07-2010 18:23:02 36 C 8.33 g/m*3 36 C 0 km/h
2732 10-07-2010 18:35:02 35.9 C 8.28 g/m*3 35.9 C 0 km/h
2733 10-07-2010 18:47:02 36 C 8.33 g/m*3 36 C 0 km/h
2734 10-07-2010 18:59:02 35.9 C 8.28 g/m*3 35.9 C 0 km/h
2735 10-07-2010 19:11:01 35.7 C 8.2 g/m*3 35.7 C 0 km/h
2736 10-07-2010 19:23:02 35.6 C 8.16 g/m*3 35.6 C 0 km/h
2737 10-07-2010 19:35:01 35.4 C 8.07 g/m*3 35.4 C 0 km/h
2738 10-07-2010 19:47:02 35.3 C 8.03 g/m*3 35.3 C 0 km/h
2739 10-07-2010 19:59:02 34.9 C 7.87 g/m*3 34.9 C 0 km/h
2740 10-07-2010 20:11:01 34.5 C 7.7 g/m*3 34.5 C 0 km/h
2741 10-07-2010 20:23:01 34 C 7.5 g/m*3 34 C 0 km/h
2742 10-07-2010 20:35:02 33.6 C 8.08 g/m*3 33.6 C 0 km/h
2743 10-07-2010 20:47:02 33.1 C 8.59 g/m*3 33.1 C 0 km/h
2744 10-07-2010 20:59:03 32.7 C 9.11 g/m*3 32.7 C 0 km/h
2745 10-07-2010 21:11:01 32.2 C 9.21 g/m*3 32.2 C 0 km/h
2746 10-07-2010 21:23:02 31.6 C 9.58 g/m*3 31.6 C 0 km/h
2747 10-07-2010 21:35:02 31.2 C 9.38 g/m*3 31.2 C 0 km/h
2748 10-07-2010 21:47:01 30.8 C 9.5 g/m*3 30.8 C 0 km/h
2749 10-07-2010 21:59:01 30.7 C 9.45 g/m*3 30.7 C 0 km/h
2750 10-07-2010 22:11:01 30.5 C 9.97 g/m*3 30.5 C 0 km/h
Sensor: Nr:Datum:Temp:Abs-Feuchte:Windchill:Wind:
Aussen-T/F 2751 10-07-2010 22:23:01 30.4 C 9.92 g/m*3 30.4 C 0 km/h
2752 10-07-2010 22:35:02 30.4 C 9.92 g/m*3 30.4 C 0 km/h
2753 10-07-2010 22:47:02 30.5 C 9.97 g/m*3 30.5 C 0 km/h
2754 10-07-2010 22:59:02 30.4 C 9.92 g/m*3 30.4 C 0 km/h
2755 10-07-2010 23:11:02 30.6 C 9.4 g/m*3 30.6 C 0 km/h
2756 10-07-2010 23:23:02 30.2 C 9.81 g/m*3 30.2 C 0 km/h
2757 10-07-2010 23:35:02 30.1 C 10.06 g/m*3 30.1 C 0 km/h
2758 10-07-2010 23:47:02 30.1 C 9.76 g/m*3 30.1 C 0 km/h
2759 10-07-2010 23:59:02 30 C 10.01 g/m*3 30 C 0 km/h
2760 11-07-2010 00:11:03 29.9 C 9.95 g/m*3 29.9 C 0 km/h
2761 11-07-2010 00:23:02 30 C 9.7 g/m*3 30 C 0 km/h
2762 11-07-2010 00:36:04 29.7 C 9.85 g/m*3 29.7 C 0 km/h
2763 11-07-2010 00:48:04 29.8 C 9.9 g/m*3 29.8 C 0 km/h
2764 11-07-2010 01:00:04 29.8 C 9.9 g/m*3 29.8 C 0 km/h
2765 11-07-2010 01:12:04 29.6 C 9.79 g/m*3 29.6 C 0 km/h
2766 11-07-2010 01:24:04 29.5 C 10.03 g/m*3 29.5 C 0 km/h
2767 11-07-2010 01:36:04 28.3 C 10.23 g/m*3 28.3 C 0 km/h
2768 11-07-2010 01:48:04 25.4 C 14.83 g/m*3 25.4 C 0 km/h
2769 11-07-2010 02:00:04 24 C 16.1 g/m*3 24 C 0 km/h
2770 11-07-2010 02:12:04 24.5 C 15.44 g/m*3 24.5 C 0 km/h
2771 11-07-2010 02:24:04 25 C 14.73 g/m*3 25 C 0 km/h
2772 11-07-2010 02:36:04 23.7 C 16.47 g/m*3 23.7 C 0 km/h
2773 11-07-2010 02:48:04 22.9 C 16.55 g/m*3 22.9 C 0 km/h
2774 11-07-2010 03:00:04 23.2 C 16.42 g/m*3 23.2 C 0 km/h
2775 11-07-2010 03:12:04 23.6 C 16.59 g/m*3 23.6 C 0 km/h
Sensor: Nr:Datum:Temp:Abs-Feuchte:Windchill:Wind:
Aussen-T/F 2776 11-07-2010 03:24:04 23.7 C 16.47 g/m*3 23.7 C 0 km/h
2777 11-07-2010 03:36:05 23.3 C 15.89 g/m*3 23.3 C 0 km/h
2778 11-07-2010 03:48:05 23.1 C 15.92 g/m*3 23.1 C 0 km/h
2779 11-07-2010 04:00:05 22.5 C 16.18 g/m*3 22.5 C 0 km/h
2780 11-07-2010 04:12:05 22.1 C 16.4 g/m*3 22.1 C 0 km/h
2781 11-07-2010 04:24:05 21.9 C 16.6 g/m*3 21.9 C 0 km/h
2782 11-07-2010 04:36:05 21.6 C 16.31 g/m*3 21.6 C 0 km/h
2783 11-07-2010 04:48:05 21.8 C 16.69 g/m*3 21.8 C 0 km/h
2784 11-07-2010 05:00:05 21.9 C 16.6 g/m*3 21.9 C 0 km/h
2785 11-07-2010 05:12:05 22 C 16.11 g/m*3 22 C 0 km/h
2786 11-07-2010 05:24:05 22.2 C 16.3 g/m*3 22.2 C 0 km/h
2787 11-07-2010 05:36:05 21.9 C 16.02 g/m*3 21.9 C 0 km/h
2788 11-07-2010 05:48:05 22 C 16.11 g/m*3 22 C 0 km/h
2789 11-07-2010 06:00:05 21.9 C 16.21 g/m*3 21.9 C 0 km/h
2790 11-07-2010 06:12:05 21.8 C 16.12 g/m*3 21.8 C 0 km/h
2791 11-07-2010 06:24:05 21.8 C 16.12 g/m*3 21.8 C 0 km/h
2792 11-07-2010 06:36:05 21.7 C 16.02 g/m*3 21.7 C 0 km/h
2793 11-07-2010 06:48:05 22 C 15.91 g/m*3 22 C 0 km/h
2794 11-07-2010 07:00:05 22.5 C 15.98 g/m*3 22.5 C 0 km/h
2795 11-07-2010 07:12:05 22.6 C 15.47 g/m*3 22.6 C 0 km/h
2796 11-07-2010 07:24:05 22.8 C 15.65 g/m*3 22.8 C 0 km/h
2797 11-07-2010 07:36:05 22.8 C 15.65 g/m*3 22.8 C 0 km/h
2798 11-07-2010 07:48:06 23.1 C 15.92 g/m*3 23.1 C 0 km/h
2799 11-07-2010 08:00:06 23.5 C 15.65 g/m*3 23.5 C 0 km/h
2800 11-07-2010 08:12:06 24 C 15.45 g/m*3 24 C 0 km/h
Sensor: Nr:Datum:Temp:Abs-Feuchte:Windchill:Wind:
Aussen-T/F 2801 11-07-2010 08:24:06 24.5 C 15.44 g/m*3 24.5 C 0 km/h
2802 11-07-2010 08:36:06 24.7 C 15.39 g/m*3 24.7 C 0 km/h
2803 11-07-2010 08:48:02 24.4 C 15.36 g/m*3 24.4 C 0 km/h
2804 11-07-2010 09:00:02 23.8 C 15.06 g/m*3 23.8 C 0 km/h
2805 11-07-2010 09:12:02 23.9 C 15.36 g/m*3 23.9 C 0 km/h
2806 11-07-2010 09:24:03 24.4 C 14.91 g/m*3 24.4 C 0 km/h
2807 11-07-2010 09:36:02 24.7 C 14.49 g/m*3 24.7 C 0 km/h
2808 11-07-2010 09:48:03 25.3 C 14.05 g/m*3 25.3 C 0 km/h
2809 11-07-2010 10:00:03 25.9 C 13.56 g/m*3 25.9 C 0 km/h
2810 11-07-2010 10:12:02 26.3 C 12.87 g/m*3 26.3 C 0 km/h
2811 11-07-2010 10:24:02 26.9 C 13.05 g/m*3 26.9 C 0 km/h
2812 11-07-2010 10:36:02 27.1 C 12.42 g/m*3 27.1 C 0 km/h
2813 11-07-2010 10:53:34 27.8 C 12.64 g/m*3 27.8 C 0 km/h
2814 11-07-2010 11:05:34 27.8 C 12.64 g/m*3 27.8 C 0 km/h
2815 11-07-2010 11:17:34 28 C 12.24 g/m*3 28 C 0 km/h
2816 11-07-2010 11:29:34 28.4 C 12.51 g/m*3 28.4 C 0 km/h
2817 11-07-2010 11:41:34 29.1 C 12.13 g/m*3 29.1 C 0 km/h
2818 11-07-2010 11:53:35 29.4 C 11.74 g/m*3 29.4 C 0 km/h
2819 11-07-2010 12:05:35 30.3 C 11.4 g/m*3 30.3 C 0 km/h
2820 11-07-2010 12:17:35 30.3 C 10.79 g/m*3 30.3 C 0 km/h
2821 11-07-2010 12:29:35 30.8 C 10.76 g/m*3 30.8 C 0 km/h
2822 11-07-2010 12:41:35 30.7 C 10.39 g/m*3 30.7 C 0 km/h
2823 11-07-2010 12:53:35 30.1 C 10.67 g/m*3 30.1 C 0 km/h
2824 11-07-2010 13:05:35 31.5 C 9.86 g/m*3 31.5 C 0 km/h
2825 11-07-2010 13:17:35 32.1 C 8.82 g/m*3 32.1 C 0 km/h
Sensor: Nr:Datum:Temp:Abs-Feuchte:Windchill:Wind:
Aussen-T/F 2826 11-07-2010 13:29:35 30.7 C 9.76 g/m*3 30.7 C 0 km/h
2827 11-07-2010 13:41:35 31.7 C 8.97 g/m*3 31.7 C 0 km/h
2828 11-07-2010 13:53:35 32.3 C 8.23 g/m*3 32.3 C 0 km/h
2829 11-07-2010 14:05:35 32.1 C 8.48 g/m*3 32.1 C 0 km/h
2830 11-07-2010 14:17:35 32.1 C 8.48 g/m*3 32.1 C 0 km/h
2831 11-07-2010 14:29:35 31.8 C 8.35 g/m*3 31.8 C 0 km/h
2832 11-07-2010 14:41:35 32 C 8.44 g/m*3 32 C 0 km/h
2833 11-07-2010 14:53:35 32.3 C 7.89 g/m*3 32.3 C 0 km/h
2834 11-07-2010 15:05:35 32.3 C 7.55 g/m*3 32.3 C 0 km/h
2835 11-07-2010 15:17:35 32.8 C 7.75 g/m*3 32.8 C 0 km/h
2836 11-07-2010 15:29:35 33 C 7.48 g/m*3 33 C 0 km/h
2837 11-07-2010 15:41:35 33 C 7.48 g/m*3 33 C 0 km/h
2838 11-07-2010 15:53:35 33.1 C 7.52 g/m*3 33.1 C 0 km/h
2839 11-07-2010 16:05:36 33.7 C 7.39 g/m*3 33.7 C 0 km/h
2840 11-07-2010 16:17:36 33.7 C 7.39 g/m*3 33.7 C 0 km/h
2841 11-07-2010 16:29:36 33.7 C 7.39 g/m*3 33.7 C 0 km/h
2842 11-07-2010 16:41:36 33.8 C 7.43 g/m*3 33.8 C 0 km/h
2843 11-07-2010 16:53:36 33.6 C 7.35 g/m*3 33.6 C 0 km/h
2844 11-07-2010 17:05:36 34 C 7.5 g/m*3 34 C 0 km/h
2845 11-07-2010 17:17:36 34 C 7.5 g/m*3 34 C 0 km/h
2846 11-07-2010 17:29:36 34.5 C 7.7 g/m*3 34.5 C 0 km/h
2847 11-07-2010 17:41:36 34.6 C 7.74 g/m*3 34.6 C 0 km/h
2848 11-07-2010 17:53:36 34.2 C 7.58 g/m*3 34.2 C 0 km/h
2849 11-07-2010 18:05:36 34.1 C 7.54 g/m*3 34.1 C 0 km/h
2850 11-07-2010 18:17:36 34.1 C 7.54 g/m*3 34.1 C 0 km/h
Sensor: Nr:Datum:Temp:Abs-Feuchte:Windchill:Wind:
Aussen-T/F 2851 11-07-2010 18:29:36 34 C 7.5 g/m*3 34 C 0 km/h
2852 11-07-2010 18:41:36 34.2 C 7.58 g/m*3 34.2 C 0 km/h
2853 11-07-2010 18:53:36 34.2 C 7.58 g/m*3 34.2 C 0 km/h
2854 11-07-2010 19:05:36 34.3 C 7.62 g/m*3 34.3 C 0 km/h
2855 11-07-2010 19:17:36 34.2 C 7.58 g/m*3 34.2 C 0 km/h
2856 11-07-2010 19:29:36 33.8 C 7.43 g/m*3 33.8 C 0 km/h
2857 11-07-2010 19:41:36 33.8 C 7.43 g/m*3 33.8 C 0 km/h
2858 11-07-2010 19:53:36 33.5 C 7.31 g/m*3 33.5 C 0 km/h
2859 11-07-2010 20:05:37 33.7 C 7.39 g/m*3 33.7 C 0 km/h
2860 11-07-2010 20:17:37 33.7 C 7.39 g/m*3 33.7 C 0 km/h
2861 11-07-2010 20:29:37 33.4 C 7.63 g/m*3 33.4 C 0 km/h
2862 11-07-2010 20:41:37 33.1 C 8.23 g/m*3 33.1 C 0 km/h
2863 11-07-2010 20:53:37 32.6 C 8.71 g/m*3 32.6 C 0 km/h
2864 11-07-2010 21:05:37 31.9 C 9.4 g/m*3 31.9 C 0 km/h
2865 11-07-2010 21:17:37 31.2 C 9.7 g/m*3 31.2 C 0 km/h
2866 11-07-2010 21:29:37 30.7 C 10.08 g/m*3 30.7 C 0 km/h
2867 11-07-2010 21:41:37 30.4 C 10.54 g/m*3 30.4 C 0 km/h
2868 11-07-2010 21:53:37 30.2 C 10.73 g/m*3 30.2 C 0 km/h
2869 11-07-2010 22:05:37 30.1 C 10.67 g/m*3 30.1 C 0 km/h
2870 11-07-2010 22:17:37 30 C 10.92 g/m*3 30 C 0 km/h
2871 11-07-2010 22:29:37 29.9 C 10.86 g/m*3 29.9 C 0 km/h
2872 11-07-2010 22:41:37 29.7 C 11.04 g/m*3 29.7 C 0 km/h
2873 11-07-2010 22:53:37 29.4 C 10.86 g/m*3 29.4 C 0 km/h
2874 11-07-2010 23:05:37 29.1 C 10.97 g/m*3 29.1 C 0 km/h
2875 11-07-2010 23:17:37 28.6 C 11.24 g/m*3 28.6 C 0 km/h
Sensor: Nr:Datum:Temp:Abs-Feuchte:Windchill:Wind:
Aussen-T/F 2876 11-07-2010 23:29:37 28.4 C 11.12 g/m*3 28.4 C 0 km/h
2877 11-07-2010 23:41:37 28.5 C 11.18 g/m*3 28.5 C 0 km/h
2878 11-07-2010 23:53:37 28.1 C 11.21 g/m*3 28.1 C 0 km/h
2879 12-07-2010 00:05:37 27.8 C 11.57 g/m*3 27.8 C 0 km/h
2880 12-07-2010 00:17:38 27.4 C 11.84 g/m*3 27.4 C 0 km/h
2881 12-07-2010 00:29:38 27.2 C 11.71 g/m*3 27.2 C 0 km/h
2882 12-07-2010 00:41:38 27 C 11.84 g/m*3 27 C 0 km/h
2883 12-07-2010 00:53:38 26.8 C 12.22 g/m*3 26.8 C 0 km/h
2884 12-07-2010 01:05:38 26.5 C 12.27 g/m*3 26.5 C 0 km/h
2885 12-07-2010 01:17:38 26.2 C 12.06 g/m*3 26.2 C 0 km/h
2886 12-07-2010 01:29:38 26 C 12.17 g/m*3 26 C 0 km/h
2887 12-07-2010 01:41:38 25.7 C 12.69 g/m*3 25.7 C 0 km/h
2888 12-07-2010 01:53:38 25.7 C 12.45 g/m*3 25.7 C 0 km/h
2889 12-07-2010 02:05:38 25.6 C 12.38 g/m*3 25.6 C 0 km/h
2890 12-07-2010 02:17:38 25.3 C 12.41 g/m*3 25.3 C 0 km/h
2891 12-07-2010 02:29:38 25.2 C 12.57 g/m*3 25.2 C 0 km/h
2892 12-07-2010 02:41:38 24.9 C 13.05 g/m*3 24.9 C 0 km/h
2893 12-07-2010 02:53:38 24.6 C 13.05 g/m*3 24.6 C 0 km/h
2894 12-07-2010 03:05:38 24.6 C 13.05 g/m*3 24.6 C 0 km/h
2895 12-07-2010 03:17:38 24.2 C 13.2 g/m*3 24.2 C 0 km/h
2896 12-07-2010 03:29:38 24 C 13.05 g/m*3 24 C 0 km/h
2897 12-07-2010 03:41:38 24.1 C 13.13 g/m*3 24.1 C 0 km/h
2898 12-07-2010 03:53:38 24 C 13.05 g/m*3 24 C 0 km/h
2899 12-07-2010 04:05:38 23.7 C 13.05 g/m*3 23.7 C 0 km/h
2900 12-07-2010 04:17:39 23.4 C 13.04 g/m*3 23.4 C 0 km/h
Sensor: Nr:Datum:Temp:Abs-Feuchte:Windchill:Wind:
Aussen-T/F 2901 12-07-2010 04:29:39 23.3 C 13.17 g/m*3 23.3 C 0 km/h
2902 12-07-2010 04:41:39 23.2 C 12.89 g/m*3 23.2 C 0 km/h
2903 12-07-2010 04:53:39 23 C 13.15 g/m*3 23 C 0 km/h
2904 12-07-2010 05:05:39 22.9 C 13.28 g/m*3 22.9 C 0 km/h
2905 12-07-2010 05:17:39 22.6 C 13.26 g/m*3 22.6 C 0 km/h
2906 12-07-2010 05:29:39 22.7 C 13.13 g/m*3 22.7 C 0 km/h
2907 12-07-2010 05:41:39 22.6 C 13.06 g/m*3 22.6 C 0 km/h
2908 12-07-2010 05:53:39 22.5 C 13.18 g/m*3 22.5 C 0 km/h
2909 12-07-2010 06:05:39 22.4 C 13.11 g/m*3 22.4 C 0 km/h
2910 12-07-2010 06:17:39 22.4 C 13.5 g/m*3 22.4 C 0 km/h
2911 12-07-2010 06:29:39 22.4 C 13.31 g/m*3 22.4 C 0 km/h
2912 12-07-2010 06:41:39 22.7 C 13.54 g/m*3 22.7 C 0 km/h
2913 12-07-2010 06:53:39 22.8 C 13.41 g/m*3 22.8 C 0 km/h
2914 12-07-2010 07:05:39 22.8 C 13.61 g/m*3 22.8 C 0 km/h
2915 12-07-2010 07:17:39 22.7 C 13.54 g/m*3 22.7 C 0 km/h
2916 12-07-2010 07:29:39 22.9 C 13.69 g/m*3 22.9 C 0 km/h
2917 12-07-2010 07:41:39 23 C 13.57 g/m*3 23 C 0 km/h
2918 12-07-2010 07:53:39 22.9 C 13.69 g/m*3 22.9 C 0 km/h
2919 12-07-2010 08:05:39 23.1 C 13.64 g/m*3 23.1 C 0 km/h
2920 12-07-2010 08:17:39 23.4 C 13.46 g/m*3 23.4 C 0 km/h
2921 12-07-2010 08:29:40 23.7 C 13.48 g/m*3 23.7 C 0 km/h
2922 12-07-2010 08:41:40 24.3 C 13.72 g/m*3 24.3 C 0 km/h
2923 12-07-2010 08:53:40 24.8 C 13.88 g/m*3 24.8 C 0 km/h
2924 12-07-2010 09:05:40 25.4 C 13.65 g/m*3 25.4 C 0 km/h
2925 12-07-2010 09:17:40 26.1 C 13.71 g/m*3 26.1 C 0 km/h
Sensor: Nr:Datum:Temp:Abs-Feuchte:Windchill:Wind:
Aussen-T/F 2926 12-07-2010 09:29:40 26.7 C 13.67 g/m*3 26.7 C 0 km/h
2927 12-07-2010 09:41:40 27.3 C 13.34 g/m*3 27.3 C 0 km/h
2928 12-07-2010 09:53:40 28.1 C 13.4 g/m*3 28.1 C 0 km/h
2929 12-07-2010 10:05:40 28.9 C 13.43 g/m*3 28.9 C 0 km/h
2930 12-07-2010 10:17:40 29.7 C 12.83 g/m*3 29.7 C 0 km/h
2931 12-07-2010 10:29:40 30 C 12.74 g/m*3 30 C 0 km/h
2932 12-07-2010 10:41:40 30.3 C 12.02 g/m*3 30.3 C 0 km/h
2933 12-07-2010 10:53:40 30.9 C 11.46 g/m*3 30.9 C 0 km/h
2934 12-07-2010 11:05:40 31.4 C 11.12 g/m*3 31.4 C 0 km/h
2935 12-07-2010 11:17:40 31.5 C 10.52 g/m*3 31.5 C 0 km/h
2936 12-07-2010 11:29:40 31.9 C 10.41 g/m*3 31.9 C 0 km/h
2937 12-07-2010 11:41:40 32 C 8.78 g/m*3 32 C 0 km/h
2938 12-07-2010 11:53:40 32.1 C 8.82 g/m*3 32.1 C 0 km/h
2939 12-07-2010 12:05:40 32.3 C 8.58 g/m*3 32.3 C 0 km/h
2940 12-07-2010 12:17:40 32.4 C 8.62 g/m*3 32.4 C 0 km/h
2941 12-07-2010 12:29:41 32.8 C 8.45 g/m*3 32.8 C 0 km/h
2942 12-07-2010 12:41:41 31.8 C 7.35 g/m*3 31.8 C 0 km/h
2943 12-07-2010 12:53:41 25.9 C 7.51 g/m*3 25.9 C 0 km/h
2944 12-07-2010 13:05:41 25.1 C 14.58 g/m*3 25.1 C 0 km/h
2945 12-07-2010 13:17:41 27.9 C 11.09 g/m*3 27.9 C 0 km/h
2946 12-07-2010 13:29:41 28.3 C 11.06 g/m*3 28.3 C 0 km/h
2947 12-07-2010 13:41:41 29.2 C 11.91 g/m*3 29.2 C 0 km/h
2948 12-07-2010 13:53:41 30.1 C 9.15 g/m*3 30.1 C 0 km/h
2949 12-07-2010 14:05:41 30.3 C 9.55 g/m*3 30.3 C 0 km/h
2950 12-07-2010 14:17:41 30.5 C 10.59 g/m*3 30.5 C 0 km/h
Sensor: Nr:Datum:Temp:Abs-Feuchte:Windchill:Wind:
Aussen-T/F 2951 12-07-2010 14:29:41 30.7 C 10.08 g/m*3 30.7 C 0 km/h
2952 12-07-2010 14:41:41 31 C 8.32 g/m*3 31 C 0 km/h
2953 12-07-2010 14:53:41 31 C 8.64 g/m*3 31 C 0 km/h
2954 12-07-2010 15:05:41 31.1 C 9.65 g/m*3 31.1 C 0 km/h
2955 12-07-2010 15:17:41 31.5 C 8.55 g/m*3 31.5 C 0 km/h
2956 12-07-2010 15:29:41 32 C 7.43 g/m*3 32 C 0 km/h
2957 12-07-2010 15:41:41 31.8 C 7.01 g/m*3 31.8 C 0 km/h
2958 12-07-2010 15:53:41 31.7 C 6.98 g/m*3 31.7 C 0 km/h
2959 12-07-2010 16:05:41 32.3 C 6.86 g/m*3 32.3 C 0 km/h
2960 12-07-2010 16:17:41 32 C 6.75 g/m*3 32 C 0 km/h
2961 12-07-2010 16:29:42 31.9 C 6.72 g/m*3 31.9 C 0 km/h
2962 12-07-2010 16:41:42 31.8 C 6.68 g/m*3 31.8 C 0 km/h
2963 12-07-2010 16:53:42 31.5 C 6.57 g/m*3 31.5 C 0 km/h
2964 12-07-2010 17:05:42 31.4 C 6.54 g/m*3 31.4 C 0 km/h
2965 12-07-2010 17:17:42 31.7 C 6.64 g/m*3 31.7 C 0 km/h
2966 12-07-2010 17:29:42 32 C 6.75 g/m*3 32 C 0 km/h
2967 12-07-2010 17:41:42 31.6 C 6.61 g/m*3 31.6 C 0 km/h
2968 12-07-2010 17:53:42 31 C 6.4 g/m*3 31 C 0 km/h
2969 12-07-2010 18:05:42 30.6 C 6.58 g/m*3 30.6 C 0 km/h
2970 12-07-2010 18:17:42 30.3 C 7.4 g/m*3 30.3 C 0 km/h
2971 12-07-2010 18:29:42 30 C 7.58 g/m*3 30 C 0 km/h
2972 12-07-2010 18:41:42 30 C 7.58 g/m*3 30 C 0 km/h
2973 12-07-2010 18:53:42 30 C 7.88 g/m*3 30 C 0 km/h
2974 12-07-2010 19:05:42 29.5 C 7.67 g/m*3 29.5 C 0 km/h
2975 12-07-2010 19:17:42 29 C 7.47 g/m*3 29 C 0 km/h
Sensor: Nr:Datum:Temp:Abs-Feuchte:Windchill:Wind:
Aussen-T/F 2976 12-07-2010 19:29:42 28.6 C 7.87 g/m*3 28.6 C 0 km/h
2977 12-07-2010 19:41:42 28.2 C 7.7 g/m*3 28.2 C 0 km/h
2978 12-07-2010 19:53:42 28.1 C 7.38 g/m*3 28.1 C 0 km/h
2979 12-07-2010 20:05:42 27.8 C 7.53 g/m*3 27.8 C 0 km/h
2980 12-07-2010 20:17:42 27.6 C 7.71 g/m*3 27.6 C 0 km/h
2981 12-07-2010 20:29:42 27 C 7.72 g/m*3 27 C 0 km/h
2982 12-07-2010 20:41:43 26.4 C 7.97 g/m*3 26.4 C 0 km/h
2983 12-07-2010 20:53:43 26 C 8.28 g/m*3 26 C 0 km/h
2984 12-07-2010 21:05:43 26 C 8.52 g/m*3 26 C 0 km/h
2985 12-07-2010 21:17:43 25.8 C 8.67 g/m*3 25.8 C 0 km/h
2986 12-07-2010 21:29:43 25.7 C 8.86 g/m*3 25.7 C 0 km/h
2987 12-07-2010 21:41:43 25.7 C 9.34 g/m*3 25.7 C 0 km/h
2988 12-07-2010 21:53:43 25.4 C 9.42 g/m*3 25.4 C 0 km/h
2989 12-07-2010 22:05:43 24.9 C 9.61 g/m*3 24.9 C 0 km/h
2990 12-07-2010 22:17:43 24.9 C 9.16 g/m*3 24.9 C 0 km/h
2991 12-07-2010 22:29:43 24.2 C 9.02 g/m*3 24.2 C 0 km/h
2992 12-07-2010 22:41:43 24.6 C 9.23 g/m*3 24.6 C 0 km/h
2993 12-07-2010 22:53:43 24.5 C 9.18 g/m*3 24.5 C 0 km/h
2994 12-07-2010 23:05:43 24.3 C 9.29 g/m*3 24.3 C 0 km/h
2995 12-07-2010 23:17:43 24 C 9.57 g/m*3 24 C 0 km/h
2996 12-07-2010 23:29:43 23.4 C 9.67 g/m*3 23.4 C 0 km/h
2997 12-07-2010 23:41:43 23 C 9.87 g/m*3 23 C 0 km/h
2998 12-07-2010 23:53:43 22.7 C 10.1 g/m*3 22.7 C 0 km/h
2999 13-07-2010 00:05:43 22.6 C 10.25 g/m*3 22.6 C 0 km/h
3000 13-07-2010 00:17:43 22.5 C 10.39 g/m*3 22.5 C 0 km/h
Sensor: Nr:Datum:Temp:Abs-Feuchte:Windchill:Wind:
Aussen-T/F 3001 13-07-2010 00:29:43 22.3 C 10.27 g/m*3 22.3 C 0 km/h
3002 13-07-2010 00:41:44 22.1 C 10.35 g/m*3 22.1 C 0 km/h
3003 13-07-2010 00:53:44 22 C 10.48 g/m*3 22 C 0 km/h
3004 13-07-2010 01:05:44 21.6 C 10.62 g/m*3 21.6 C 0 km/h
3005 13-07-2010 01:17:44 21.5 C 10.56 g/m*3 21.5 C 0 km/h
3006 13-07-2010 01:29:44 21.4 C 10.69 g/m*3 21.4 C 0 km/h
3007 13-07-2010 01:41:44 21.3 C 10.81 g/m*3 21.3 C 0 km/h
3008 13-07-2010 01:53:44 21.3 C 10.81 g/m*3 21.3 C 0 km/h
3009 13-07-2010 02:05:44 21 C 10.62 g/m*3 21 C 0 km/h
3010 13-07-2010 02:17:44 20.8 C 10.86 g/m*3 20.8 C 0 km/h
3011 13-07-2010 02:29:44 20.7 C 10.98 g/m*3 20.7 C 0 km/h
3012 13-07-2010 02:41:44 20.5 C 11.03 g/m*3 20.5 C 0 km/h
3013 13-07-2010 02:53:44 20.3 C 11.08 g/m*3 20.3 C 0 km/h
3014 13-07-2010 03:05:44 20.2 C 11.02 g/m*3 20.2 C 0 km/h
3015 13-07-2010 03:17:44 20 C 11.06 g/m*3 20 C 0 km/h
3016 13-07-2010 03:29:44 19.8 C 11.27 g/m*3 19.8 C 0 km/h
3017 13-07-2010 03:41:44 19.7 C 11.38 g/m*3 19.7 C 0 km/h
3018 13-07-2010 03:53:44 19.7 C 11.38 g/m*3 19.7 C 0 km/h
3019 13-07-2010 04:05:44 19.8 C 11.44 g/m*3 19.8 C 0 km/h
3020 13-07-2010 04:17:44 19.8 C 11.44 g/m*3 19.8 C 0 km/h
3021 13-07-2010 04:29:44 19.7 C 11.38 g/m*3 19.7 C 0 km/h
3022 13-07-2010 04:41:44 19.7 C 11.89 g/m*3 19.7 C 0 km/h
3023 13-07-2010 04:53:45 19.1 C 12.13 g/m*3 19.1 C 0 km/h
3024 13-07-2010 05:05:45 18.9 C 12.31 g/m*3 18.9 C 0 km/h
3025 13-07-2010 05:17:45 18.7 C 12.33 g/m*3 18.7 C 0 km/h
Sensor: Nr:Datum:Temp:Abs-Feuchte:Windchill:Wind:
Aussen-T/F 3026 13-07-2010 05:29:45 18.7 C 12.33 g/m*3 18.7 C 0 km/h
3027 13-07-2010 05:41:45 18.7 C 12.17 g/m*3 18.7 C 0 km/h
3028 13-07-2010 05:53:45 18.6 C 12.1 g/m*3 18.6 C 0 km/h
3029 13-07-2010 06:05:45 18.7 C 12.17 g/m*3 18.7 C 0 km/h
3030 13-07-2010 06:17:45 18.8 C 12.08 g/m*3 18.8 C 0 km/h
3031 13-07-2010 06:29:45 18.8 C 12.08 g/m*3 18.8 C 0 km/h
3032 13-07-2010 06:41:45 18.8 C 12.08 g/m*3 18.8 C 0 km/h
3033 13-07-2010 06:53:45 18.9 C 12.15 g/m*3 18.9 C 0 km/h
3034 13-07-2010 07:05:45 19.2 C 12.04 g/m*3 19.2 C 0 km/h
3035 13-07-2010 07:17:45 19.5 C 12.08 g/m*3 19.5 C 0 km/h
3036 13-07-2010 07:29:45 19.7 C 12.06 g/m*3 19.7 C 0 km/h
3037 13-07-2010 07:41:45 19.7 C 12.06 g/m*3 19.7 C 0 km/h
3038 13-07-2010 07:53:45 20 C 11.92 g/m*3 20 C 0 km/h
3039 13-07-2010 08:05:45 20.4 C 12.03 g/m*3 20.4 C 0 km/h
3040 13-07-2010 08:17:45 20.5 C 12.1 g/m*3 20.5 C 0 km/h
3041 13-07-2010 08:29:45 21 C 12.09 g/m*3 21 C 0 km/h
3042 13-07-2010 08:41:45 21.5 C 11.88 g/m*3 21.5 C 0 km/h
3043 13-07-2010 08:53:45 21.2 C 11.68 g/m*3 21.2 C 0 km/h
3044 13-07-2010 09:05:46 21.4 C 12 g/m*3 21.4 C 0 km/h
3045 13-07-2010 09:17:46 21.9 C 12.16 g/m*3 21.9 C 0 km/h
3046 13-07-2010 09:29:46 22.7 C 11.72 g/m*3 22.7 C 0 km/h
3047 13-07-2010 09:41:46 23.3 C 11.5 g/m*3 23.3 C 0 km/h
3048 13-07-2010 09:53:46 23.9 C 11.47 g/m*3 23.9 C 0 km/h
3049 13-07-2010 10:05:46 24.4 C 11.57 g/m*3 24.4 C 0 km/h
3050 13-07-2010 10:17:46 24.8 C 11.15 g/m*3 24.8 C 0 km/h
Sensor: Nr:Datum:Temp:Abs-Feuchte:Windchill:Wind:
Aussen-T/F 3051 13-07-2010 10:29:46 24.2 C 11 g/m*3 24.2 C 0 km/h
3052 13-07-2010 10:41:46 24.5 C 10.97 g/m*3 24.5 C 0 km/h
3053 13-07-2010 10:53:46 25.1 C 10.65 g/m*3 25.1 C 0 km/h
3054 13-07-2010 11:05:46 25.4 C 10.59 g/m*3 25.4 C 0 km/h
3055 13-07-2010 11:17:46 25.7 C 10.29 g/m*3 25.7 C 0 km/h
3056 13-07-2010 11:29:46 25.4 C 10.12 g/m*3 25.4 C 0 km/h
3057 13-07-2010 11:41:46 25.7 C 10.29 g/m*3 25.7 C 0 km/h
3058 13-07-2010 11:53:46 28.3 C 9.95 g/m*3 28.3 C 0 km/h
3059 13-07-2010 12:05:46 29.5 C 8.85 g/m*3 29.5 C 0 km/h
3060 13-07-2010 12:17:46 30 C 9.1 g/m*3 30 C 0 km/h
3061 13-07-2010 12:29:46 29.4 C 8.51 g/m*3 29.4 C 0 km/h
3062 13-07-2010 12:41:46 28.8 C 8.52 g/m*3 28.8 C 0 km/h
3063 13-07-2010 12:53:46 29.5 C 7.97 g/m*3 29.5 C 0 km/h
3064 13-07-2010 13:05:46 29.1 C 7.8 g/m*3 29.1 C 0 km/h
3065 13-07-2010 13:17:47 28.5 C 8.66 g/m*3 28.5 C 0 km/h
3066 13-07-2010 13:29:47 28.9 C 8 g/m*3 28.9 C 0 km/h
3067 13-07-2010 13:41:47 29.7 C 7.76 g/m*3 29.7 C 0 km/h
3068 13-07-2010 13:53:47 30.4 C 7.75 g/m*3 30.4 C 0 km/h
3069 13-07-2010 14:05:47 29.4 C 8.22 g/m*3 29.4 C 0 km/h
3070 13-07-2010 14:17:47 28.7 C 8.76 g/m*3 28.7 C 0 km/h
3071 13-07-2010 14:29:47 28.1 C 8.48 g/m*3 28.1 C 0 km/h
3072 13-07-2010 14:41:47 29 C 8.62 g/m*3 29 C 0 km/h
3073 13-07-2010 14:53:47 30 C 7.58 g/m*3 30 C 0 km/h
3074 13-07-2010 15:05:47 30.4 C 7.75 g/m*3 30.4 C 0 km/h
3075 13-07-2010 15:17:47 31.1 C 7.72 g/m*3 31.1 C 0 km/h
Sensor: Nr:Datum:Temp:Abs-Feuchte:Windchill:Wind:
Aussen-T/F 3076 13-07-2010 15:29:47 30.6 C 6.89 g/m*3 30.6 C 0 km/h
3077 13-07-2010 15:41:47 30.5 C 7.17 g/m*3 30.5 C 0 km/h
3078 13-07-2010 15:53:47 31 C 7.04 g/m*3 31 C 0 km/h
3079 13-07-2010 16:05:47 31.2 C 6.47 g/m*3 31.2 C 0 km/h
3080 13-07-2010 16:17:47 31 C 6.72 g/m*3 31 C 0 km/h
3081 13-07-2010 16:29:47 30.8 C 7.28 g/m*3 30.8 C 0 km/h
3082 13-07-2010 16:41:47 30.8 C 7.28 g/m*3 30.8 C 0 km/h
3083 13-07-2010 16:53:47 31.5 C 6.57 g/m*3 31.5 C 0 km/h
3084 13-07-2010 17:05:47 31.8 C 6.68 g/m*3 31.8 C 0 km/h
3085 13-07-2010 17:17:47 31.5 C 6.57 g/m*3 31.5 C 0 km/h
3086 13-07-2010 17:29:48 31.8 C 6.68 g/m*3 31.8 C 0 km/h
3087 13-07-2010 17:41:48 31.8 C 6.68 g/m*3 31.8 C 0 km/h
3088 13-07-2010 17:53:48 31.8 C 6.68 g/m*3 31.8 C 0 km/h
3089 13-07-2010 18:05:48 32.1 C 6.79 g/m*3 32.1 C 0 km/h
3090 13-07-2010 18:17:48 31.8 C 6.68 g/m*3 31.8 C 0 km/h
3091 13-07-2010 18:29:48 31.7 C 6.64 g/m*3 31.7 C 0 km/h
3092 13-07-2010 18:41:48 32.1 C 6.79 g/m*3 32.1 C 0 km/h
3093 13-07-2010 18:53:48 31.6 C 6.61 g/m*3 31.6 C 0 km/h
3094 13-07-2010 19:05:48 31.4 C 6.54 g/m*3 31.4 C 0 km/h
3095 13-07-2010 19:17:48 31.4 C 6.54 g/m*3 31.4 C 0 km/h
3096 13-07-2010 19:29:48 31.4 C 6.54 g/m*3 31.4 C 0 km/h
3097 13-07-2010 19:41:48 31.4 C 6.54 g/m*3 31.4 C 0 km/h
3098 13-07-2010 19:53:48 31.2 C 6.47 g/m*3 31.2 C 0 km/h
3099 13-07-2010 20:05:48 31.4 C 6.54 g/m*3 31.4 C 0 km/h
3100 13-07-2010 20:17:48 31.4 C 6.54 g/m*3 31.4 C 0 km/h
Sensor: Nr:Datum:Temp:Abs-Feuchte:Windchill:Wind:
Aussen-T/F 3101 13-07-2010 20:29:48 31.2 C 6.79 g/m*3 31.2 C 0 km/h
3102 13-07-2010 20:41:48 31 C 6.72 g/m*3 31 C 0 km/h
3103 13-07-2010 20:53:48 30.6 C 7.2 g/m*3 30.6 C 0 km/h
3104 13-07-2010 21:05:48 29.8 C 7.8 g/m*3 29.8 C 0 km/h
3105 13-07-2010 21:17:48 28.6 C 7.87 g/m*3 28.6 C 0 km/h
3106 13-07-2010 21:29:48 27.6 C 7.98 g/m*3 27.6 C 0 km/h
3107 13-07-2010 21:41:49 26.8 C 8.14 g/m*3 26.8 C 0 km/h
3108 13-07-2010 21:53:49 26.4 C 8.21 g/m*3 26.4 C 0 km/h
3109 13-07-2010 22:05:49 25.9 C 8.47 g/m*3 25.9 C 0 km/h
3110 13-07-2010 22:17:49 25.5 C 8.52 g/m*3 25.5 C 0 km/h
3111 13-07-2010 22:29:49 25.4 C 8.48 g/m*3 25.4 C 0 km/h
3112 13-07-2010 22:41:49 25.4 C 8.71 g/m*3 25.4 C 0 km/h
3113 13-07-2010 22:53:49 25.1 C 8.8 g/m*3 25.1 C 0 km/h
3114 13-07-2010 23:05:49 24.7 C 9.05 g/m*3 24.7 C 0 km/h
3115 13-07-2010 23:17:49 24.6 C 9 g/m*3 24.6 C 0 km/h
3116 13-07-2010 23:29:49 24.4 C 9.12 g/m*3 24.4 C 0 km/h
3117 13-07-2010 23:41:49 24.1 C 9.19 g/m*3 24.1 C 0 km/h
3118 13-07-2010 23:53:49 24.3 C 9.29 g/m*3 24.3 C 0 km/h
3119 14-07-2010 00:05:49 24.1 C 9.19 g/m*3 24.1 C 0 km/h
3120 14-07-2010 00:17:49 23.8 C 9.68 g/m*3 23.8 C 0 km/h
3121 14-07-2010 00:29:49 23.6 C 9.57 g/m*3 23.6 C 0 km/h
3122 14-07-2010 00:41:49 23.4 C 9.67 g/m*3 23.4 C 0 km/h
3123 14-07-2010 00:53:49 23.5 C 9.94 g/m*3 23.5 C 0 km/h
3124 14-07-2010 01:05:49 23.6 C 10 g/m*3 23.6 C 0 km/h
3125 14-07-2010 01:17:49 23.6 C 10 g/m*3 23.6 C 0 km/h
Sensor: Nr:Datum:Temp:Abs-Feuchte:Windchill:Wind:
Aussen-T/F 3126 14-07-2010 01:29:49 23.1 C 9.92 g/m*3 23.1 C 0 km/h
3127 14-07-2010 01:41:50 22.9 C 10.01 g/m*3 22.9 C 0 km/h
3128 14-07-2010 01:53:50 22.6 C 10.04 g/m*3 22.6 C 0 km/h
3129 14-07-2010 02:05:50 22.7 C 10.3 g/m*3 22.7 C 0 km/h
3130 14-07-2010 02:17:50 22.7 C 10.1 g/m*3 22.7 C 0 km/h
3131 14-07-2010 02:29:50 22.7 C 10.51 g/m*3 22.7 C 0 km/h
3132 14-07-2010 02:41:50 22.5 C 10.39 g/m*3 22.5 C 0 km/h
3133 14-07-2010 02:53:50 22.1 C 10.35 g/m*3 22.1 C 0 km/h
3134 14-07-2010 03:05:50 22 C 10.29 g/m*3 22 C 0 km/h
3135 14-07-2010 03:17:50 21.8 C 10.55 g/m*3 21.8 C 0 km/h
3136 14-07-2010 03:29:50 21.5 C 10.75 g/m*3 21.5 C 0 km/h
3137 14-07-2010 03:41:50 21.3 C 10.62 g/m*3 21.3 C 0 km/h
3138 14-07-2010 03:53:50 21.3 C 10.81 g/m*3 21.3 C 0 km/h
3139 14-07-2010 04:05:50 21.2 C 10.93 g/m*3 21.2 C 0 km/h
3140 14-07-2010 04:17:50 20.8 C 11.05 g/m*3 20.8 C 0 km/h
3141 14-07-2010 04:29:50 20.7 C 11.16 g/m*3 20.7 C 0 km/h
3142 14-07-2010 04:41:50 20.5 C 11.03 g/m*3 20.5 C 0 km/h
3143 14-07-2010 04:53:50 20.4 C 10.97 g/m*3 20.4 C 0 km/h
3144 14-07-2010 05:05:50 20.2 C 11.02 g/m*3 20.2 C 0 km/h
3145 14-07-2010 05:17:50 20.1 C 11.13 g/m*3 20.1 C 0 km/h
3146 14-07-2010 05:29:50 20.1 C 11.13 g/m*3 20.1 C 0 km/h
3147 14-07-2010 05:41:50 20.1 C 11.13 g/m*3 20.1 C 0 km/h
3148 14-07-2010 05:53:51 20 C 11.23 g/m*3 20 C 0 km/h
3149 14-07-2010 06:05:51 20 C 11.06 g/m*3 20 C 0 km/h
3150 14-07-2010 06:17:51 20.3 C 11.43 g/m*3 20.3 C 0 km/h
Sensor: Nr:Datum:Temp:Abs-Feuchte:Windchill:Wind:
Aussen-T/F 3151 14-07-2010 06:29:51 20.3 C 11.26 g/m*3 20.3 C 0 km/h
3152 14-07-2010 06:41:51 20.5 C 11.39 g/m*3 20.5 C 0 km/h
3153 14-07-2010 06:53:51 20.4 C 11.32 g/m*3 20.4 C 0 km/h
3154 14-07-2010 07:05:51 20.3 C 11.43 g/m*3 20.3 C 0 km/h
3155 14-07-2010 07:17:51 20.3 C 11.43 g/m*3 20.3 C 0 km/h
3156 14-07-2010 07:29:51 20.4 C 11.68 g/m*3 20.4 C 0 km/h
3157 14-07-2010 07:41:51 20.7 C 11.7 g/m*3 20.7 C 0 km/h
3158 14-07-2010 07:53:51 21.2 C 11.68 g/m*3 21.2 C 0 km/h
3159 14-07-2010 08:05:51 21.5 C 11.69 g/m*3 21.5 C 0 km/h
3160 14-07-2010 08:17:51 21.5 C 11.69 g/m*3 21.5 C 0 km/h
3161 14-07-2010 08:29:51 21.7 C 11.83 g/m*3 21.7 C 0 km/h
3162 14-07-2010 08:41:51 22 C 11.65 g/m*3 22 C 0 km/h
3163 14-07-2010 08:53:51 22.4 C 11.92 g/m*3 22.4 C 0 km/h
3164 14-07-2010 09:05:51 22.9 C 12.06 g/m*3 22.9 C 0 km/h
3165 14-07-2010 09:17:51 24 C 12.18 g/m*3 24 C 0 km/h
3166 14-07-2010 09:29:51 25.2 C 11.64 g/m*3 25.2 C 0 km/h
3167 14-07-2010 09:41:51 25.3 C 11.71 g/m*3 25.3 C 0 km/h
3168 14-07-2010 09:53:52 25.9 C 11.86 g/m*3 25.9 C 0 km/h
3169 14-07-2010 10:05:52 26.5 C 11.51 g/m*3 26.5 C 0 km/h
3170 14-07-2010 10:17:52 27.1 C 10.61 g/m*3 27.1 C 0 km/h
3171 14-07-2010 10:29:52 27.8 C 10.22 g/m*3 27.8 C 0 km/h
3172 14-07-2010 10:41:52 28.7 C 10.17 g/m*3 28.7 C 0 km/h
3173 14-07-2010 10:53:52 29.3 C 9.63 g/m*3 29.3 C 0 km/h
3174 14-07-2010 11:05:52 30 C 9.4 g/m*3 30 C 0 km/h
3175 14-07-2010 11:17:52 30.3 C 9.25 g/m*3 30.3 C 0 km/h
Sensor: Nr:Datum:Temp:Abs-Feuchte:Windchill:Wind:
Aussen-T/F 3176 14-07-2010 11:29:52 30.4 C 9.3 g/m*3 30.4 C 0 km/h
3177 14-07-2010 11:41:52 30.5 C 9.03 g/m*3 30.5 C 0 km/h
3178 14-07-2010 11:53:52 30.8 C 9.18 g/m*3 30.8 C 0 km/h
3179 14-07-2010 12:05:52 31.2 C 8.41 g/m*3 31.2 C 0 km/h
3180 14-07-2010 12:17:52 31.5 C 8.22 g/m*3 31.5 C 0 km/h
3181 14-07-2010 12:29:52 31.3 C 8.13 g/m*3 31.3 C 0 km/h
3182 14-07-2010 12:41:52 31.5 C 7.89 g/m*3 31.5 C 0 km/h
3183 14-07-2010 12:53:52 31.7 C 8.31 g/m*3 31.7 C 0 km/h
3184 14-07-2010 13:05:52 31.7 C 7.64 g/m*3 31.7 C 0 km/h
3185 14-07-2010 13:17:52 32.3 C 7.2 g/m*3 32.3 C 0 km/h
3186 14-07-2010 13:29:52 33.5 C 7.31 g/m*3 33.5 C 0 km/h
3187 14-07-2010 13:41:52 32.6 C 7.32 g/m*3 32.6 C 0 km/h
3188 14-07-2010 13:53:52 32 C 7.43 g/m*3 32 C 0 km/h
3189 14-07-2010 14:05:53 32.5 C 6.93 g/m*3 32.5 C 0 km/h
3190 14-07-2010 14:17:53 33.3 C 7.23 g/m*3 33.3 C 0 km/h
3191 14-07-2010 14:29:53 32.8 C 7.04 g/m*3 32.8 C 0 km/h
3192 14-07-2010 14:41:53 32.8 C 7.04 g/m*3 32.8 C 0 km/h
3193 14-07-2010 14:53:53 33.3 C 7.23 g/m*3 33.3 C 0 km/h
3194 14-07-2010 15:05:53 33 C 7.12 g/m*3 33 C 0 km/h
3195 14-07-2010 15:17:53 32.9 C 7.08 g/m*3 32.9 C 0 km/h
3196 14-07-2010 15:29:53 33.1 C 7.16 g/m*3 33.1 C 0 km/h
3197 14-07-2010 15:41:53 33.5 C 7.31 g/m*3 33.5 C 0 km/h
3198 14-07-2010 15:53:53 33.8 C 7.43 g/m*3 33.8 C 0 km/h
3199 14-07-2010 16:05:53 33.9 C 7.46 g/m*3 33.9 C 0 km/h
3200 14-07-2010 16:17:53 34.1 C 7.54 g/m*3 34.1 C 0 km/h
Sensor: Nr:Datum:Temp:Abs-Feuchte:Windchill:Wind:
Aussen-T/F 3201 14-07-2010 16:29:53 34.6 C 7.74 g/m*3 34.6 C 0 km/h
3202 14-07-2010 16:41:53 34.6 C 7.74 g/m*3 34.6 C 0 km/h
3203 14-07-2010 16:53:53 34.8 C 7.82 g/m*3 34.8 C 0 km/h
3204 14-07-2010 17:05:53 34.8 C 7.82 g/m*3 34.8 C 0 km/h
3205 14-07-2010 17:17:53 34.6 C 7.74 g/m*3 34.6 C 0 km/h
3206 14-07-2010 17:29:53 34.6 C 7.74 g/m*3 34.6 C 0 km/h
3207 14-07-2010 17:41:53 34.1 C 7.54 g/m*3 34.1 C 0 km/h
3208 14-07-2010 17:53:53 34.4 C 7.66 g/m*3 34.4 C 0 km/h
3209 14-07-2010 18:05:54 34.4 C 7.66 g/m*3 34.4 C 0 km/h
3210 14-07-2010 18:17:54 34.8 C 7.82 g/m*3 34.8 C 0 km/h
3211 14-07-2010 18:29:54 35 C 7.91 g/m*3 35 C 0 km/h
3212 14-07-2010 18:41:54 34.8 C 7.82 g/m*3 34.8 C 0 km/h
3213 14-07-2010 18:53:54 34.3 C 7.62 g/m*3 34.3 C 0 km/h
3214 14-07-2010 19:05:54 33.5 C 7.31 g/m*3 33.5 C 0 km/h
3215 14-07-2010 19:17:54 27.6 C 9.31 g/m*3 27.6 C 0 km/h
3216 14-07-2010 19:29:54 24.1 C 14 g/m*3 24.1 C 0 km/h
3217 14-07-2010 19:41:54 22.2 C 15.51 g/m*3 22.2 C 0 km/h
3218 14-07-2010 19:53:54 21.8 C 16.12 g/m*3 21.8 C 0 km/h
3219 14-07-2010 20:05:54 21.8 C 16.12 g/m*3 21.8 C 0 km/h
3220 14-07-2010 20:17:54 22.5 C 17.18 g/m*3 22.5 C 0 km/h
3221 14-07-2010 20:29:54 22.6 C 16.87 g/m*3 22.6 C 0 km/h
3222 14-07-2010 20:41:54 22.5 C 16.38 g/m*3 22.5 C 0 km/h
3223 14-07-2010 20:53:54 22.3 C 15.99 g/m*3 22.3 C 0 km/h
3224 14-07-2010 21:05:54 22 C 15.53 g/m*3 22 C 0 km/h
3225 14-07-2010 21:17:54